[[{"header":{"parameterUnit":"m.s-1","parameterCategory":1,"la1":30.6,"la2":29.2853,"lo1":-89.7004,"lo2":-87.6739,"dy":0.0162,"dx":0.0183,"nx":112,"ny":82,"refTime":"2024-08-25T06:00:00:Z","depth":0,"parameterNumber":2,"parameterNumberName":"U-component_of_WINDS"},"data":[0.0,0.0,0.0,0.0,0.0,0.0,0.0,0.0,0.0,0.0,0.0,0.0,0.0,0.0,0.0,0.0,0.0,0.0,0.0,0.0,0.0,0.0,0.0,0.0,0.0,0.0,0.0,0.0,0.0,0.0,0.0,0.0,0.0,0.0,0.0,0.0,0.0,0.0,0.0,0.0,0.0,0.0,0.0,0.0,0.0,0.0,0.0,0.0,0.0,0.0,0.0,0.0,0.0,0.0,0.0,0.0,0.0,0.0,0.0,0.0,0.0,0.0,0.0,0.0,0.0,0.0,0.0,0.0,0.0,0.0,0.0,0.0,0.0,0.0,0.0,0.0,0.0,0.0,0.0,0.0,0.0,0.0,0.0,0.0,0.0,0.0,0.0,0.0,0.0,0.0,0.7828,0.7875,0.7928,0.7988,0.7988,0.7988,0.7867,0.7617,0.0,0.0,0.0,0.0,0.0,0.0,0.0,0.0,0.0,0.0,0.0,0.0,0.0,0.0,0.0,0.0,0.0,0.0,0.0,0.0,0.0,0.0,0.0,0.0,0.0,0.0,0.0,0.0,0.0,0.0,0.0,0.0,0.0,0.0,0.0,0.0,0.0,0.0,0.0,0.0,0.0,0.0,0.0,0.0,0.0,0.0,0.0,0.0,0.0,0.0,0.0,0.0,0.0,0.0,0.0,0.0,0.0,0.0,0.0,0.0,0.0,0.0,0.0,0.0,0.0,0.0,0.0,0.0,0.0,0.0,0.0,0.0,0.0,0.0,0.0,0.0,0.0,0.0,0.0,0.0,0.0,0.0,0.0,0.0,0.0,0.0,0.0,0.0,0.0,0.0,0.0,0.0,0.0,0.0,0.0,0.0,0.0,0.0,0.0,0.0,0.0,0.0,0.0,0.0,0.7909,0.8174,0.8106,0.7988,0.7988,0.7988,0.7867,0.7617,0.0,0.0,0.0,0.0,0.0,0.0,0.0,0.0,0.0,0.0,0.0,0.0,0.0,0.0,0.0,0.0,0.0,0.0,0.0,0.0,0.0,0.0,0.0,0.0,0.0,0.0,0.0,0.0,0.0,0.0,0.0,0.0,0.0,0.0,0.0,0.0,0.0,0.0,0.0,0.0,0.0,0.0,0.0,0.0,0.0,0.0,0.0,0.0,0.0,0.0,0.0,0.0,0.0,0.0,0.0,0.0,0.0,0.0,0.0,0.0,0.0,0.0,0.0,0.0,0.0,0.0,0.0,0.0,0.0,0.0,0.0,0.0,0.0,0.0,0.0,0.0,0.0,0.0,0.0,0.0,0.0,0.0,0.0,0.0,0.0,0.0,0.0,0.0,0.0,0.0,0.0,0.0,0.0,0.0,0.0,0.0,0.0,0.0,0.0,0.0,0.0,0.0,0.0,0.778,0.7929,0.8286,0.8133,0.7988,0.7988,0.7988,0.7867,0.7617,0.738,0.0,0.0,0.0,0.0,0.0,0.0,0.0,0.0,0.0,0.0,0.0,0.0,0.0,0.0,0.0,0.0,0.0,0.0,0.0,0.0,0.0,0.0,0.0,0.0,0.0,0.0,0.0,0.0,0.0,0.0,0.0,0.0,0.0,0.0,0.0,0.0,0.0,0.0,0.0,0.0,0.0,0.0,0.0,0.0,0.0,0.0,0.0,0.0,0.0,0.0,0.0,0.0,0.0,0.0,0.0,0.0,0.0,0.0,0.0,0.0,0.0,0.0,0.0,0.0,0.0,0.0,0.0,0.0,0.0,0.0,0.0,0.0,0.0,0.0,0.0,0.0,0.0,0.0,0.0,0.0,0.0,0.0,0.0,0.0,0.0,0.0,0.0,0.0,0.0,0.0,0.0,0.0,0.0,0.0,0.0,0.0,0.0,0.0,0.0,0.0,0.0,0.0,0.7887,0.7984,0.8289,0.8153,0.7988,0.7988,0.7928,0.7828,0.7563,0.7224,0.0,0.0,0.0,0.0,0.0,0.0,0.0,0.0,0.0,0.0,0.0,0.0,0.0,0.0,0.0,0.0,0.0,0.0,0.0,0.0,0.0,0.0,0.0,0.0,0.0,0.0,0.0,0.0,0.0,0.0,0.0,0.0,0.0,0.0,0.0,0.0,0.0,0.0,0.0,0.0,0.0,0.0,0.0,0.0,0.0,0.0,0.0,0.0,0.0,0.0,0.0,0.0,0.0,0.0,0.0,0.0,0.0,0.0,0.0,0.0,0.0,0.0,0.0,0.0,0.0,0.0,0.0,0.0,0.0,0.0,0.0,0.0,0.0,0.0,0.0,0.0,0.0,0.0,0.0,0.0,0.0,0.0,0.0,0.0,0.0,0.0,0.0,0.0,0.0,0.0,0.0,0.0,0.0,0.0,0.0,0.0,0.0,0.0,0.0,0.0,0.0,0.0,0.7982,0.814,0.8438,0.8214,0.7988,0.7988,0.7787,0.7563,0.7446,0.6973,0.0,0.0,0.0,0.0,0.0,0.0,0.0,0.0,0.0,0.0,0.0,0.0,0.0,0.0,0.0,0.0,0.0,0.0,0.0,0.0,0.0,0.0,0.0,0.0,0.0,0.0,0.0,0.0,0.0,0.0,0.0,0.0,0.0,0.0,0.0,0.0,0.0,0.0,0.0,0.0,0.0,0.0,0.0,0.0,0.0,0.0,0.0,0.0,0.0,0.0,0.0,0.0,0.0,0.0,0.0,0.0,0.0,0.0,0.0,0.0,0.0,0.0,0.0,0.0,0.0,0.0,0.0,0.0,0.0,0.0,0.0,0.0,0.0,0.0,0.0,0.0,0.0,0.0,0.0,0.0,0.0,0.0,0.0,0.0,0.0,0.0,0.0,0.0,0.0,0.0,0.0,0.0,0.0,0.0,0.0,0.0,0.0,0.0,0.0,0.0,0.0,0.0,0.7907,0.8045,0.0,0.8214,0.7988,0.7988,0.7887,0.7733,0.7439,0.0,0.0,0.0,0.0,0.0,0.0,0.0,0.0,0.0,0.0,0.0,0.0,0.0,0.0,0.0,0.0,0.0,0.0,0.0,0.0,0.0,0.0,0.0,0.0,0.0,0.0,0.0,0.0,0.0,0.0,0.0,0.0,0.0,0.0,0.0,0.0,0.0,0.0,0.0,0.0,0.0,0.0,0.0,0.0,0.0,0.0,0.0,0.0,0.0,0.0,0.0,0.0,0.0,0.0,0.0,0.0,0.0,0.0,0.0,0.0,0.0,0.0,0.0,0.0,0.0,0.0,0.0,0.0,0.0,0.0,0.0,0.0,0.0,0.0,0.0,0.0,0.0,0.0,0.0,0.0,0.0,0.0,0.0,0.0,0.0,0.0,0.0,0.0,0.0,0.0,0.0,0.0,0.0,0.0,0.0,0.0,0.0,0.0,0.0,0.0,0.0,0.0,0.7941,0.8031,0.814,0.0,0.8262,0.8092,0.7995,0.7901,0.7726,0.7326,0.0,0.0,0.0,0.0,0.0,0.0,0.0,0.0,0.0,0.0,0.0,0.0,0.0,0.0,0.0,0.0,0.0,0.0,0.0,0.0,0.0,0.0,0.0,0.0,0.0,0.0,0.0,0.0,0.0,0.0,0.0,0.0,0.0,0.0,0.0,0.0,0.0,0.0,0.0,0.0,0.0,0.0,0.0,0.0,0.0,0.0,0.0,0.0,0.0,0.0,0.0,0.0,0.0,0.0,0.0,0.0,0.0,0.0,0.0,0.0,0.0,0.0,0.0,0.0,0.0,0.0,0.0,0.0,0.0,0.0,0.0,0.0,0.0,0.0,0.0,0.0,0.0,0.0,0.0,0.0,0.0,0.0,0.0,0.0,0.0,0.0,0.0,0.0,0.0,0.0,0.0,0.0,0.0,0.0,0.0,0.0,0.0,0.0,0.0,0.0,0.0,0.0,0.7975,0.8303,0.8479,0.8479,0.8357,0.8208,0.8002,0.7773,0.7475,0.0,0.0,0.0,0.0,0.0,0.0,0.0,0.0,0.0,0.0,0.0,0.0,0.0,0.0,0.0,0.0,0.0,0.0,0.0,0.0,0.0,0.0,0.0,0.0,0.0,0.0,0.0,0.0,0.0,0.0,0.0,0.0,0.0,0.0,0.0,0.0,0.0,0.0,0.0,0.0,0.0,0.0,0.0,0.0,0.0,0.0,0.0,0.0,0.0,0.0,0.0,0.0,0.0,0.0,0.0,0.0,0.0,0.0,0.0,0.0,0.0,0.0,0.0,0.0,0.0,0.0,0.0,0.0,0.0,0.0,0.0,0.0,0.0,0.0,0.0,0.0,0.0,0.0,0.0,0.0,0.0,0.0,0.0,0.0,0.0,0.0,0.0,0.0,0.0,0.0,0.0,0.0,0.0,0.0,0.0,0.0,0.0,0.0,0.0,0.0,0.0,0.0,0.0,0.8167,0.8364,0.8479,0.8479,0.8357,0.8208,0.8002,0.7914,0.7638,0.7125,0.0,0.0,0.0,0.0,0.0,0.0,0.0,0.0,0.0,0.0,0.0,0.0,0.0,0.0,0.0,0.0,0.0,0.0,0.0,0.0,0.0,0.0,0.0,0.0,0.0,0.0,0.0,0.0,0.0,0.0,0.0,0.0,0.0,0.0,0.0,0.0,0.0,0.0,0.0,0.0,0.0,0.0,0.0,0.0,0.0,0.0,0.0,0.0,0.0,0.0,0.0,0.0,0.0,0.0,0.0,0.0,0.0,0.0,0.0,0.0,0.0,0.0,0.0,0.0,0.0,0.0,0.0,0.0,0.0,0.0,0.0,0.0,0.0,0.0,0.0,0.0,0.0,0.0,0.0,0.0,0.0,0.0,0.0,0.0,0.0,0.0,0.0,0.0,0.0,0.0,0.0,0.0,0.0,0.0,0.0,0.0,0.0,0.0,0.0,0.0,0.0,0.0,0.8241,0.8499,0.8642,0.8581,0.8438,0.8296,0.8147,0.8022,0.7759,0.7265,0.0,0.0,0.0,0.0,0.0,0.0,0.0,0.0,0.0,0.0,0.0,0.0,0.0,0.0,0.0,0.0,0.0,0.0,0.0,0.0,0.0,0.0,0.0,0.0,0.0,0.0,0.0,0.0,0.0,0.0,0.0,0.0,0.0,0.0,0.0,0.0,0.0,0.0,0.0,0.0,0.0,0.0,0.0,0.0,0.0,0.0,0.0,0.0,0.0,0.0,0.0,0.0,0.0,0.0,0.0,0.0,0.0,0.0,0.0,0.0,0.0,0.0,0.0,0.0,0.0,0.0,0.0,0.0,0.0,0.0,0.0,0.0,0.0,0.0,0.0,0.0,0.0,0.0,0.0,0.0,0.0,0.0,0.0,0.0,0.0,0.0,0.0,0.0,0.0,0.0,0.0,0.0,0.0,0.0,0.0,0.0,0.0,0.0,0.0,0.0,0.0,0.0,0.8269,0.8669,0.8824,0.8723,0.8587,0.8438,0.8333,0.814,0.7868,0.7467,0.0,0.0,0.0,0.0,0.0,0.0,0.0,0.0,0.0,0.0,0.0,0.0,0.0,0.0,0.0,0.0,0.0,0.0,0.0,0.0,0.0,0.0,0.0,0.0,0.0,0.0,0.0,0.0,0.0,0.0,0.0,0.0,0.0,0.0,0.0,0.0,0.0,0.0,0.0,0.0,0.0,0.0,0.0,0.0,0.0,0.0,0.0,0.0,0.0,0.0,0.0,0.0,0.0,0.0,0.0,0.0,0.0,0.0,0.0,0.0,0.7828,0.0,0.0,0.0,0.0,0.0,0.0,0.0,0.0,0.0,0.0,0.0,0.0,0.0,0.0,0.0,0.0,0.0,0.0,0.0,0.0,0.0,0.0,0.0,0.0,0.0,0.0,0.0,0.0,0.0,0.0,0.0,0.0,0.0,0.0,0.0,0.0,0.0,0.0,0.0,0.0,0.0,0.8404,0.873,0.8824,0.8723,0.8682,0.8554,0.8347,0.8241,0.8031,0.7577,0.7407,0.0,0.0,0.0,0.0,0.0,0.0,0.0,0.0,0.0,0.0,0.0,0.0,0.0,0.0,0.0,0.0,0.0,0.0,0.0,0.0,0.0,0.0,0.0,0.0,0.0,0.0,0.0,0.0,0.0,0.0,0.0,0.0,0.0,0.0,0.0,0.0,0.0,0.0,0.0,0.0,0.0,0.0,0.0,0.0,0.0,0.0,0.0,0.0,0.0,0.0,0.0,0.0,0.0,0.0,0.0,0.0,0.0,0.0,0.0,0.0,0.8201,0.0,0.0,0.0,0.0,0.0,0.0,0.0,0.0,0.0,0.0,0.0,0.0,0.0,0.0,0.0,0.0,0.0,0.0,0.0,0.0,0.0,0.0,0.0,0.0,0.0,0.0,0.0,0.0,0.0,0.0,0.0,0.0,0.0,0.0,0.0,0.0,0.0,0.0,0.0,0.0,0.8452,0.875,0.8851,0.8825,0.8757,0.8648,0.8492,0.835,0.814,0.7828,0.7604,0.0,0.0,0.0,0.0,0.0,0.0,0.0,0.0,0.0,0.0,0.0,0.0,0.0,0.0,0.0,0.0,0.0,0.0,0.0,0.0,0.0,0.0,0.0,0.0,0.0,0.0,0.0,0.0,0.0,0.0,0.0,0.0,0.0,0.0,0.0,0.0,0.0,0.0,0.0,0.0,0.0,0.0,0.0,0.0,0.0,0.0,0.0,0.0,0.0,0.0,0.0,0.0,0.0,0.9449,0.9537,0.9537,0.9537,0.9537,0.9517,0.9144,0.8913,0.8771,0.8554,0.0,0.0,0.0,0.0,0.0,0.0,0.0,0.0,0.0,0.0,0.0,0.0,0.0,0.0,0.0,0.0,0.0,0.0,0.0,0.0,0.0,0.0,0.0,0.0,-0.4704,-0.3748,0.0,0.0,0.0,0.0,0.0,0.0,0.0,0.0,0.0,0.0,0.0,0.0,0.854,0.8804,0.8974,0.8974,0.8838,0.8737,0.871,0.8276,0.8013,0.8042,0.7579,0.7321,0.0,0.0,0.0,0.0,0.0,0.0,0.0,0.0,0.0,0.0,0.0,0.0,0.0,0.0,0.0,0.0,0.0,0.0,0.0,0.0,0.0,0.0,0.0,0.0,0.0,0.0,0.0,0.0,0.0,0.0,0.0,0.0,0.8585,0.8477,0.0,0.0,0.0,0.0,0.0,0.0,0.0,0.0,0.0,0.0,0.0,0.0,0.0,0.9279,0.932,0.9598,0.9734,0.9734,1.0025,1.0161,1.0161,1.0161,1.0161,1.0161,1.01,0.0,0.9159,0.9198,0.0,0.0,0.0,0.0,0.0,0.0,0.0,0.0,0.0,0.0,0.0,0.0,0.0,0.0,0.0,0.0,0.0,0.0,0.0,0.0,0.0,0.0,-0.4264,-0.3103,-0.391,-0.3938,0.0,-0.0057,0.0485,0.349,0.4986,0.0,0.0,0.0,0.0,0.0,0.0,0.0,0.8845,0.9022,0.918,0.918,0.8994,0.8852,0.8723,0.7481,0.7199,0.8204,0.6865,0.6573,0.7712,0.7489,0.0,0.0,0.0,0.0,0.0,0.0,0.0,0.0,0.0,0.0,0.0,0.0,0.0,0.0,0.0,0.0,0.0,0.0,0.0,0.0,0.0,0.0,0.0,0.0,0.0,0.0,0.0,0.0,0.0,0.9245,0.9584,0.9391,0.9632,0.9451,0.0,0.0,0.0,0.0,0.0,0.0,0.0,0.0,0.0,0.9618,1.0562,1.0718,0.9883,1.0093,1.0202,1.0202,1.0426,1.0527,1.0527,1.0527,1.0527,1.0527,1.0527,1.029,0.989,0.9707,0.9462,0.892,0.0,0.0,0.0,0.0,0.0,0.0,0.0,0.0,0.0,0.0,0.0,0.0,0.0,0.0,0.0,0.0,0.0,0.0,0.0,0.0,0.0,-0.3797,-0.4389,-0.4284,-0.1894,-0.1536,-0.083,0.0,0.4017,0.5202,0.5751,0.0,0.0,0.0,0.0,0.8961,0.9042,0.9191,0.9303,0.9221,0.9096,0.9001,0.8852,0.8154,0.7952,0.8474,0.7742,0.7584,0.8187,0.7991,0.7834,0.0,0.0,0.0,0.0,0.0,0.0,0.0,0.0,0.0,0.0,0.0,0.0,0.0,0.0,0.0,0.0,0.0,0.0,0.0,0.0,0.0,0.0,0.0,0.0,0.0,0.0,0.0,0.0,0.9999,1.023,0.9959,1.0716,1.0563,0.0,0.0,0.0,0.0,0.0,0.0,1.0303,1.1575,1.2063,1.1511,1.1868,1.1838,1.1272,1.0871,1.0663,1.0663,1.0778,1.0833,1.0833,1.0833,1.0833,1.0833,1.0833,1.0744,1.0575,1.0161,0.9883,0.9406,0.6111,0.4763,0.4341,0.1151,0.0,0.0,0.0,0.0,0.0,0.0,0.0,0.0,0.0,0.0,0.0,0.0,0.0,-0.0362,-0.2041,-0.2498,-0.2833,-0.3984,-0.4338,-0.3896,-0.2212,-0.1495,-0.064,0.0,0.3145,0.4822,0.552,0.0,0.0,0.0,0.0,0.933,0.933,0.9367,0.9395,0.9337,0.9296,0.915,0.9008,0.8501,0.8349,0.8662,0.8282,0.815,0.8486,0.8384,0.8269,0.8153,0.0,0.0,0.0,0.0,0.0,0.0,0.0,0.0,0.0,0.0,0.0,0.0,0.0,0.0,0.0,0.0,0.0,0.0,0.0,0.0,0.0,0.0,0.0,0.0,0.0,0.0,0.0,0.0,0.0,0.9279,1.1062,0.0,0.0,0.0,0.0,0.9801,1.2664,1.3985,1.2815,1.294,1.3978,1.6014,1.2962,1.205,1.3832,1.2079,1.1131,1.1131,1.1138,1.1138,1.1138,1.1138,1.1138,1.1138,1.1138,1.1056,1.0833,1.0588,1.029,0.9647,0.638,0.5026,0.4487,0.1188,0.0,0.0,0.0,0.0,0.0,0.0,0.0,0.0,0.0,0.0,0.0,0.0,0.0,-0.0379,-0.2046,-0.2593,-0.2686,-0.2624,-0.2719,-0.2345,-0.0537,0.1207,0.1994,0.0,0.266,0.4857,0.4774,0.0,0.9523,0.9361,0.9483,0.9585,0.9585,0.9591,0.9598,0.9585,0.9456,0.9306,0.9214,0.7817,0.7483,0.8622,0.7396,0.7172,0.8433,0.8472,0.8465,0.8459,0.8174,0.0,0.0,0.0,0.0,0.0,0.0,0.0,0.0,0.0,0.0,0.0,0.0,0.0,0.0,0.0,0.0,0.0,0.0,0.0,0.0,0.0,0.0,0.0,0.0,0.0,0.0,0.0,0.0,1.2781,1.3725,0.0,1.2885,1.4301,1.4872,1.3747,1.5074,1.5775,1.5429,1.6505,1.7026,1.666,1.654,1.5701,1.4019,1.3344,1.2391,1.1234,1.1234,1.1234,1.1234,1.1234,1.1234,1.1234,1.1234,1.1131,1.1077,1.0968,1.0751,1.0091,0.6614,0.5291,0.4686,0.0,-0.0986,-0.0198,-0.1323,-0.0991,0.0,0.0,0.0,0.0,0.0,0.0,0.0,0.0,0.0,-0.0132,-0.0727,-0.0931,-0.0934,-0.0934,-0.0938,-0.0807,-0.0135,0.1411,0.2478,0.1857,0.4441,0.671,0.6482,0.8447,0.9958,0.97,0.9883,1.0005,0.9842,0.9829,0.9822,0.9632,0.9557,0.9462,0.9313,0.8749,0.8539,0.9001,0.8404,0.8278,0.8723,0.8777,0.873,0.8628,0.8526,0.8303,0.0,0.0,0.0,0.0,0.0,0.0,0.0,0.0,0.0,0.0,0.0,0.0,0.0,0.0,0.0,0.0,0.0,0.0,0.0,0.0,0.0,0.0,0.0,0.0,0.0,1.4143,1.5121,1.5095,1.6124,1.6422,1.5427,1.6852,1.7404,1.6405,1.7632,1.8272,1.7833,1.8947,1.9364,1.8732,1.8755,1.7955,1.6234,1.4927,1.3644,1.2511,1.1818,1.1463,1.1534,1.1409,1.1389,1.1389,1.1341,1.1287,1.124,1.124,1.109,1.053,0.6859,0.5079,0.3974,-0.0877,-0.1956,-0.1009,-0.1613,-0.1009,0.0,0.0,0.0,0.0,0.0,0.0,0.0,0.0,0.0,0.0,0.0,0.0,0.0,0.0,0.0,0.0135,0.0807,0.235,0.3756,0.4356,0.6316,0.7787,0.7628,0.9194,1.0344,1.0086,1.0222,1.0297,1.0148,1.0127,1.0053,0.9856,0.9788,0.9693,0.9544,0.9347,0.9289,0.9289,0.9049,0.8905,0.9008,0.8913,0.8811,0.871,0.8662,0.854,0.8292,0.0,0.0,0.0,0.0,0.0,0.0,0.0,0.0,0.0,0.0,0.0,0.0,0.0,0.0,0.0,0.0,0.0,0.0,0.0,0.0,0.0,0.0,0.0,1.5353,1.5552,1.5908,1.5918,1.8018,1.8691,1.6709,1.9883,2.0781,1.7591,2.0282,2.1406,2.0027,2.0083,2.0877,2.2404,1.9481,1.8735,2.0521,1.6803,1.4958,1.5064,1.3089,1.2135,1.2054,1.1904,1.1837,1.183,1.1694,1.1552,1.1409,1.1409,1.1321,1.0833,0.7048,0.4558,0.2519,-0.13,-0.2719,-0.2418,-0.0606,0.0,0.0,0.0,0.0,0.0,0.0,0.0,0.0,0.0,0.0,0.0,0.0,0.0,0.0,0.0,0.0,0.0471,0.2283,0.4091,0.5897,0.7631,0.803,0.8097,0.8097,0.951,1.067,1.0521,1.05,0.0,1.0304,1.029,1.0283,1.0283,1.0148,0.9936,0.9849,0.9564,0.9395,0.9388,0.911,0.9008,0.9214,0.8886,0.873,0.8737,0.8594,0.8662,0.8898,0.0,0.0,0.0,0.0,0.0,0.0,0.0,0.0,0.0,0.0,0.0,0.0,0.0,0.0,0.0,0.0,0.0,0.0,0.0,0.0,0.0,1.8528,1.9333,1.7757,1.8959,2.0016,2.0217,2.1027,2.1337,2.0784,2.2049,2.2566,2.1716,2.2693,2.3104,2.2748,2.2756,2.2981,2.3394,2.2537,2.1675,2.078,1.9692,1.7844,1.5064,1.4555,1.3527,1.2135,1.202,1.1999,1.1999,1.1959,1.1918,1.1877,1.1877,1.1789,1.1253,0.7196,0.5289,0.4226,-0.0833,-0.269,-0.2451,-0.0607,0.0,0.0,0.0,0.0,0.0,0.0,0.0,0.0,0.0,0.0,0.0,0.0,0.0,0.0,0.0,0.0,0.0471,0.2283,0.4091,0.5897,0.7631,0.9039,0.9975,0.9975,1.0379,1.0704,1.0663,1.0656,0.0,1.0453,1.0432,1.0392,1.029,1.0243,1.0202,1.0161,0.9876,0.9652,0.9551,0.9259,0.9164,0.9313,0.9239,0.9245,0.9361,0.932,0.9286,0.0,0.0,0.0,0.0,0.0,0.0,0.0,0.0,0.0,0.0,0.0,0.0,0.0,0.0,0.0,0.0,0.0,0.0,0.0,0.0,0.0,0.0,2.0666,2.1371,2.0626,2.1424,2.2231,2.2338,2.2726,2.2979,2.2979,2.33,2.3607,2.3861,2.3808,2.3928,2.4302,2.4088,2.3955,2.3955,2.3955,2.3425,2.2306,2.1426,1.9493,1.6554,1.5667,1.4184,1.2244,1.2182,1.2155,0.0,1.2088,1.2135,1.2135,1.2135,1.2006,0.0,0.0,0.0,0.0,0.0,-0.1458,-0.131,-0.0343,0.0,0.0,0.0,0.0,0.0,0.0,0.0,0.0,0.0,0.0,0.0,0.0,0.0,0.0,0.0,0.0,0.0474,0.2286,0.4091,0.5897,0.7631,0.9437,0.0,1.0717,1.0717,1.0717,1.0717,1.0717,1.069,1.0602,1.0588,1.0555,1.0473,1.0405,1.0371,1.0371,1.0093,0.0,0.0,0.0,0.9449,0.9476,0.9476,0.0,0.0,0.0,0.0,0.0,0.0,0.0,0.0,0.993,0.9924,0.0,0.0,0.0,0.0,0.0,0.0,0.0,0.0,0.0,0.0,0.0,0.0,0.0,0.0,0.0,0.0,2.2432,2.302,2.3327,2.3166,2.3075,2.3035,2.3474,2.3834,2.3861,2.3901,2.4142,2.469,2.4262,2.4302,2.509,0.0,0.0,0.0,0.0,2.4356,2.4356,2.2546,2.0631,1.8643,1.6815,1.4753,1.2522,1.24,1.2332,1.2305,1.2169,1.219,1.219,1.219,1.2176,1.1918,0.9757,0.772,0.5605,0.2105,0.0699,0.0489,0.035,0.0,0.0,0.0,0.0,0.0,0.0,0.0,0.0,0.0,0.0,0.0,0.0,0.0,0.0,0.0,0.0,0.048,0.23,0.3977,0.5655,0.7665,0.9352,1.0498,1.0685,1.0731,1.0717,1.0717,1.0717,1.0717,1.0717,1.0717,1.0717,1.0717,0.0,0.0,1.0521,1.0263,1.0148,1.0276,1.0025,0.9815,0.9693,0.972,0.9788,0.9897,0.993,1.0134,1.0521,1.0555,1.0704,1.0887,1.027,1.0168,0.0,0.0,0.0,0.0,0.0,0.0,0.0,0.0,0.0,0.0,0.0,0.0,0.0,0.0,0.0,2.2151,2.2806,2.334,2.3647,2.3834,2.3861,2.3621,2.3901,2.4209,2.4449,2.469,2.497,2.5317,2.5237,2.5251,2.5424,2.5317,2.5264,2.5264,2.5264,2.5264,2.5264,2.4872,2.279,1.9108,0.0,0.0,1.2684,1.2657,1.2576,1.2461,1.2427,1.242,1.242,1.242,1.2345,1.2079,0.9955,0.7878,0.5929,0.5135,0.3792,0.2409,0.2317,0.1328,0.0,0.0,0.0,0.0,0.0,0.0,0.0,0.0,0.0,0.0,0.0,0.0,0.0,0.0,0.0,0.0489,0.2293,0.2984,0.4228,0.7617,0.8517,0.9245,1.065,1.0806,1.0717,1.0717,1.0717,1.0717,1.0717,1.0717,1.0717,1.0717,1.0697,1.0677,1.0677,1.0514,1.0371,1.0283,1.0222,1.0181,1.0154,1.0378,1.046,1.0365,1.0602,1.0711,1.0677,1.0914,1.1063,1.1118,1.0853,1.0839,0.0,0.0,0.0,0.0,0.0,0.0,0.0,0.0,0.0,0.0,0.0,1.9296,2.1014,0.0,2.2632,2.322,2.3688,2.4035,2.4182,2.4583,2.4636,2.4062,2.4382,2.4703,2.485,2.513,2.5411,2.5718,2.5598,2.5638,2.5932,2.5678,2.5585,2.5732,2.5585,2.5518,2.5518,2.5518,2.3393,1.924,1.924,1.6993,1.2847,1.2847,1.2807,1.2732,1.2732,1.2732,1.2725,1.2651,1.2528,1.2309,1.1225,1.0086,0.8938,0.7874,0.6203,0.4276,0.3295,0.1636,0.0,0.0,0.0,0.0,0.0,0.0,0.0,0.0,0.0,0.0,0.0,0.0,0.0,0.0,0.0,0.0283,0.1123,0.203,0.3564,0.6418,0.7673,0.891,1.0721,1.0995,1.0894,1.0744,1.0717,1.0717,1.0717,1.0717,1.0717,1.0717,1.0717,1.0717,1.0717,1.0649,1.0575,1.0507,1.05,1.0534,1.0609,1.0758,1.0833,1.0826,1.0975,1.1016,1.0941,1.109,1.124,1.1389,1.1321,1.1321,0.0,0.0,0.0,0.0,0.0,0.0,0.0,1.3402,1.4935,1.839,2.0306,2.1697,2.2895,2.3757,2.4235,2.4375,2.4623,2.481,2.481,2.5211,2.5251,2.4543,2.4877,2.5184,2.5251,2.5464,2.5718,2.6012,2.5879,2.5972,2.6453,2.6026,2.5879,2.6119,2.5838,2.5678,2.5678,2.5678,2.3785,1.9912,1.9529,1.7374,1.3639,1.3244,1.299,1.2963,1.2963,1.2942,1.2908,1.2779,1.2637,1.2501,1.2501,1.2359,1.1971,1.015,0.8298,0.6275,0.4158,0.2168,0.0503,0.0144,0.0,0.0,0.0,0.0,0.0,0.0,0.0,0.0,0.0,0.0,0.0,0.0,0.0,0.0,0.0,0.113,0.2749,0.4715,0.6259,0.8009,1.0297,1.0714,1.0685,1.0739,1.0765,1.0751,1.0724,1.0717,1.0717,1.0717,1.0717,1.0731,1.0765,1.0765,1.0778,1.0806,1.0806,1.086,1.0914,1.0989,1.1043,1.1227,1.1261,1.1219,1.1253,1.128,1.1436,1.1708,1.1708,1.1708,0.6943,0.7841,0.9215,0.9817,0.9824,1.0489,0.0,1.5642,1.7644,1.9993,2.3846,2.6243,2.4363,2.5995,2.6997,2.5256,2.5224,2.5411,2.5411,2.5478,2.5478,2.5384,2.5424,2.5571,2.5838,2.597,2.6026,2.6319,2.6547,2.6707,2.6774,2.6707,2.6694,2.672,2.644,2.6293,2.6293,2.6293,2.5069,2.2647,2.0712,1.8527,1.5957,1.4032,1.3078,1.2963,1.2963,1.2881,1.2752,1.2739,1.2637,1.2501,1.2501,1.2481,1.242,1.191,1.0378,0.8269,0.6199,0.4211,0.2323,0.0582,0.0,0.0,0.0,0.0,0.0,0.0,0.0,0.0,0.0,0.0,0.0,0.0,0.0,0.0,0.0,0.0145,0.0871,0.2824,0.3401,0.461,0.8177,0.8797,0.9282,1.069,1.0853,1.0806,1.0738,1.0717,1.0717,1.0717,1.0717,1.0772,1.0847,1.0853,1.0975,1.1104,1.1111,1.1118,1.1138,1.1138,1.1145,1.1234,1.1294,1.1436,1.1565,1.1694,1.1843,1.2013,1.2013,1.2013,0.8791,0.9406,1.0127,1.0663,1.0812,1.1443,1.3978,1.5435,1.7194,2.0516,2.3927,2.6387,2.6714,2.7644,2.8134,2.7251,2.6399,2.5705,2.5545,2.5665,2.5705,2.5531,2.5665,2.5825,2.6023,2.6106,2.6333,2.6613,2.6747,2.6894,2.7068,2.7081,2.7081,2.7081,2.68,2.664,2.664,2.6466,2.533,2.306,2.2166,1.9927,1.6456,1.5567,1.4482,1.3214,1.3214,1.3085,1.2868,1.2868,1.2718,1.2501,1.2501,1.2501,1.2474,1.2271,1.0932,0.904,0.798,0.558,0.2864,0.1969,0.0944,0.0,0.0,0.0,0.0,0.0,0.0,0.0,0.0,0.0,0.0292,0.1544,0.1841,0.1771,0.1784,0.1776,0.1988,0.272,0.2924,0.4134,0.7993,0.8632,0.9221,1.0955,1.1131,1.105,1.0989,1.1917,1.2613,1.2512,1.237,1.194,1.1009,1.1023,1.1097,1.1158,1.1234,1.1275,1.1294,1.1294,1.1375,1.1545,1.1613,1.1721,1.1877,1.1938,1.2047,1.2196,1.2196,1.2237,1.0015,1.0399,1.0636,1.1111,1.1369,1.2094,1.4416,1.5185,1.6688,2.1004,2.4328,2.6814,2.837,2.965,3.0115,2.8852,2.7688,2.6685,2.5862,2.5865,2.5905,2.5772,2.5879,2.6063,2.6066,2.6266,2.6507,2.68,2.6894,2.7068,2.7375,2.7388,2.7388,2.7388,2.7014,2.6827,2.6827,2.6533,2.5581,2.4031,2.338,2.1431,1.8354,1.7138,1.5753,1.421,1.3645,1.3254,1.3017,1.3056,1.2807,1.2562,1.2515,1.2501,1.2488,1.2386,1.1473,1.0095,0.9282,0.6767,0.3792,0.3169,0.1615,0.0,0.0,0.0,0.0,0.0,0.0,0.0,0.0,0.0,0.0517,0.2603,0.2684,0.2393,0.2941,0.2626,0.2234,0.2152,0.2135,0.3358,0.7259,0.7905,0.8678,1.1109,1.1362,1.1462,1.1924,1.3609,1.4774,1.4629,1.4016,1.3165,1.1937,1.1434,1.1246,1.1287,1.1328,1.1396,1.1504,1.1552,1.1674,1.1891,1.1898,1.1972,1.2128,1.2128,1.2203,1.2345,1.2345,1.2406,0.9857,1.0697,1.1179,1.1341,1.1599,1.2441,1.4933,1.5735,1.7221,2.1749,2.6101,2.9058,2.8832,3.2359,3.3828,2.9519,2.907,2.8593,2.6675,2.6132,2.6052,2.6333,2.6119,2.6066,2.6346,2.6386,2.6507,2.68,2.7094,2.7375,2.7669,2.7682,2.7682,2.7682,2.7121,2.6827,2.6827,2.6533,2.6386,2.6307,2.4111,2.306,2.274,1.8516,1.6565,1.6401,1.4293,1.3308,1.3152,1.3017,1.2868,1.2712,1.2562,1.2501,1.2501,1.2494,1.2406,1.1884,0.9902,0.7752,0.5575,0.3696,0.1724,0.0,0.0,0.0,0.0,0.0,0.0,0.0,0.0,0.0,0.0529,0.2644,0.1588,0.0681,0.2645,0.1512,0.0075,0.0075,0.0074,0.1331,0.5241,0.5881,0.7183,1.1031,1.1606,1.213,1.3728,1.5566,1.6705,1.6705,1.5091,1.4019,1.4119,1.2414,1.145,1.1599,1.1735,1.1816,1.1816,1.1965,1.2047,1.2054,1.2054,1.2128,1.2284,1.2284,1.2359,1.2494,1.2494,1.2501,1.4295,1.4913,1.5265,1.5739,1.5985,1.6332,1.735,1.7856,1.8885,2.1697,2.555,2.8732,2.9945,3.2339,3.3856,3.2594,3.1596,3.0405,2.8657,2.8288,2.7721,2.6262,2.6186,2.6199,2.6106,2.6279,2.6587,2.7081,2.7215,2.7482,2.8047,2.7989,2.7989,2.7989,2.7602,2.7402,2.7402,2.7108,2.6867,2.668,2.4277,2.314,2.298,1.8598,1.6565,1.6483,1.4293,1.3315,1.3166,1.3119,1.2956,1.2725,1.2671,1.2589,1.2501,1.2501,1.2474,1.233,1.1492,0.9915,0.792,0.5745,0.3688,0.1804,0.0452,0.0,0.0,0.0,0.0,0.0,0.0,0.0,0.0531,0.2596,0.367,0.4364,0.5094,0.5756,0.579,0.4482,0.4148,0.5014,0.759,0.798,0.8743,1.1319,1.2741,1.4106,1.5863,1.7581,1.871,1.8778,1.6998,1.539,1.4275,1.2622,1.1701,1.1755,1.1898,1.1986,1.1986,1.2033,1.2108,1.221,1.221,1.2284,1.2433,1.2433,1.2454,1.2501,1.2501,1.2556,1.6824,1.7313,1.7803,1.8953,1.9327,1.9617,2.0508,2.0875,2.1601,2.3518,2.639,2.9132,3.1006,3.2913,3.4162,3.4036,3.32,3.196,2.9849,2.9419,2.8569,2.6716,2.64,2.636,2.6279,2.644,2.6707,2.7081,2.7201,2.7482,2.7963,2.8167,2.8221,2.8221,2.7856,2.7696,2.7696,2.7308,2.6961,2.6667,2.5008,2.4271,2.4111,1.9735,1.7783,1.7629,1.4706,1.3342,1.3247,1.3193,1.3057,1.2881,1.2834,1.2718,1.2583,1.2583,1.2549,1.2488,1.24,1.1045,0.9177,0.7727,0.5334,0.2815,0.1524,0.0608,0.0,0.0,0.0,0.0,0.0,0.0,0.0538,0.2629,0.4176,0.5346,0.6166,0.7378,0.7868,0.6532,0.6333,0.6664,0.7836,0.7932,0.8484,1.0497,1.2299,1.4386,1.7124,1.9471,2.1027,2.1195,1.8732,1.6617,1.5637,1.331,1.1911,1.1911,1.206,1.2142,1.2142,1.2189,1.2264,1.2366,1.2366,1.2413,1.2501,1.2501,1.2501,1.2501,1.2501,1.2583,1.7983,1.8307,1.905,2.1171,2.1836,2.2497,2.4314,2.4797,2.5313,2.6998,2.8607,3.028,3.187,3.3895,3.496,3.3848,3.3983,3.3258,3.0419,2.9496,2.8613,2.7405,2.6787,2.656,2.6814,2.6841,2.6841,2.6841,0.0,2.7402,2.7709,2.7989,2.8221,2.8221,2.7869,2.7722,2.7722,2.7134,2.6707,2.644,2.64,2.6307,2.607,2.1845,1.9826,1.9501,1.5275,1.3403,1.339,1.3247,1.318,1.3159,1.3024,1.2874,1.2739,1.2732,1.2637,1.2515,1.2508,1.125,0.9532,0.9454,0.6671,0.3388,0.3311,0.1911,0.0303,0.0304,0.0306,0.0309,0.0309,0.0311,0.0785,0.2819,0.3365,0.399,0.602,0.657,0.6622,0.6623,0.6532,0.6354,0.5892,0.5729,0.6334,0.8295,1.0208,1.3,1.7302,2.0971,2.3306,2.3599,1.996,1.76,1.7739,1.4268,1.2074,1.2074,1.2216,1.2298,1.2298,1.2427,1.2501,1.2501,1.2501,1.2501,1.2501,1.2501,1.2508,1.2515,1.2508,1.2589,2.5769,2.5565,2.5241,2.7447,2.8987,2.9661,2.8609,2.9288,2.9719,2.8377,2.9227,3.0285,3.0538,3.2701,3.4556,3.4873,3.4486,3.3699,3.2345,3.0853,2.929,2.7473,2.7321,2.7308,2.7161,2.7148,2.7148,2.7148,2.7228,2.7495,2.8003,2.8181,2.8221,2.8221,2.8154,2.8114,2.8114,2.7442,2.7121,2.7041,2.66,2.5581,2.3872,2.112,1.9014,1.7302,1.4541,1.3403,1.3397,1.3356,1.3275,1.3166,1.3132,1.303,1.2888,1.2773,1.2705,1.2657,1.2542,1.2185,1.1482,0.992,0.8653,0.7468,0.5916,0.5128,0.473,0.473,0.4663,0.4673,0.4673,0.4683,0.4849,0.5396,0.6644,0.7968,0.8517,0.9842,1.0928,1.0892,0.964,0.7581,0.4269,0.3651,0.3801,0.4333,0.6125,0.9904,1.701,1.9892,2.1413,2.1486,1.9304,1.718,1.5783,1.3566,1.223,1.223,1.2366,1.2447,1.2447,1.2481,1.2501,1.2501,1.2501,1.2501,1.2501,1.2501,1.2562,1.2671,1.2556,1.2705,2.9133,2.9035,2.9113,3.1948,3.3189,3.3816,3.3975,3.4011,3.3451,3.1663,3.1238,3.1113,3.1015,3.2248,3.3652,3.4883,3.4296,3.3476,3.2912,3.126,2.9508,2.7933,2.7682,2.7629,2.7468,2.7455,2.7455,2.7455,2.7455,2.7602,2.7936,2.8154,2.8221,2.8221,2.8221,2.7649,2.6483,2.5043,2.4269,2.415,2.3743,2.29,2.1603,1.941,1.7792,1.6483,0.0,1.3403,1.3403,1.3403,1.3349,1.3275,1.3275,1.3186,1.3037,1.2888,1.2786,1.2712,1.2556,1.2501,1.2347,1.1172,1.0153,0.9216,0.805,0.7033,0.6332,0.6332,0.6332,0.6332,0.6332,0.6332,0.6332,0.6332,0.7894,0.9376,0.9376,1.1011,1.2269,1.1327,0.7955,0.451,0.2082,-0.0615,-0.2145,-0.1224,-0.0152,0.3553,1.177,1.5956,1.8634,1.9665,1.7886,1.6249,1.5218,1.346,1.2386,1.2386,1.2461,1.2501,1.2501,1.2501,1.2501,1.2501,1.2501,1.2501,1.2501,1.2501,1.2583,1.2725,1.2644,1.2807,3.0512,3.0833,3.1791,3.5143,3.5931,3.6387,3.8513,3.7681,3.6137,3.4793,3.3176,3.1934,3.2053,3.209,3.2695,3.4355,3.3459,3.2557,3.2627,3.0839,2.9194,2.8227,2.7896,2.7762,2.7762,2.7762,2.7762,2.7762,2.7762,2.7762,2.7762,2.8003,2.8052,2.7714,2.7714,2.6474,2.3844,2.1726,2.0483,2.0178,1.9967,1.9775,1.942,1.7465,1.6401,1.6082,1.4217,0.0,1.3403,1.3403,1.3403,1.3403,1.3403,1.3308,1.3152,1.3017,1.2861,1.2712,1.2556,1.2501,1.2501,1.2501,1.125,0.9842,0.9842,0.8517,0.7111,0.7111,0.7111,0.7111,0.7111,0.7111,0.7111,0.7111,0.8517,0.9842,0.9842,1.1011,1.1405,0.9056,0.3897,-0.0234,-0.1092,-0.5748,-0.8683,-0.6868,-0.6403,-0.3301,0.4869,1.0775,1.5261,1.7937,1.637,1.5144,1.5072,1.3491,1.2501,1.2501,1.2501,1.2501,1.2501,1.2501,1.2501,1.2501,1.2501,1.2501,1.2501,1.2501,1.2589,1.2759,1.2739,1.2901,3.4364,3.485,3.5191,3.7003,3.9122,4.0075,3.7151,3.6382,3.5504,3.2673,3.127,3.0664,3.1035,3.1699,3.2617,3.3965,3.1872,3.065,3.2189,2.9464,2.7459,2.7779,2.7949,2.8154,2.8154,2.8154,2.8154,2.8154,2.8154,2.8154,2.8154,2.8194,2.7279,2.5373,2.5288,2.4143,2.1763,2.1119,2.0716,2.0493,2.0188,1.9086,1.7138,1.6811,1.5597,1.3969,1.3562,0.0,1.3403,1.3403,1.3403,1.3403,1.3403,1.3308,1.3152,1.3017,1.2861,1.2712,1.2556,1.2501,1.2501,1.2501,1.2263,1.1953,1.1953,1.1721,1.1405,1.1405,1.1405,1.1405,1.1405,1.1405,1.1405,1.1405,1.1721,1.1953,1.1953,1.0934,0.8818,0.4978,0.1946,-0.1637,-0.6863,-0.8658,-0.9284,-0.8886,-0.7403,-0.3886,0.2787,0.754,1.1765,1.5667,1.5658,1.475,1.3182,1.2733,1.2501,1.2501,1.2501,1.2501,1.2501,1.2501,1.2501,1.2501,1.2501,1.2501,1.2501,1.2501,1.2644,1.2915,1.2793,1.2956,3.6716,3.7313,3.7728,3.9897,4.0478,3.9951,3.8082,3.6099,3.4216,3.2322,3.0863,3.0,3.0449,3.1074,3.1517,3.1507,2.9927,2.9028,2.9849,2.7917,2.6707,2.7589,2.7963,2.8221,2.8221,2.8221,2.8221,2.8221,2.8221,2.8221,2.8221,2.8221,2.7714,2.6588,2.4166,2.2289,2.1135,1.8452,1.7078,1.6978,1.6709,1.6006,1.4946,1.4946,1.4375,1.3403,1.3403,0.0,1.3403,1.3403,1.3403,1.339,1.3315,1.3241,1.3146,1.2922,1.2793,1.2712,1.2556,1.2501,1.2501,1.2501,1.2501,1.2501,1.2501,1.2501,1.2501,1.2501,1.2501,1.2501,1.2501,1.2501,1.2501,1.2501,1.2501,1.2501,1.2501,0.9998,0.7185,0.5148,0.1326,-0.2577,-0.5624,-0.6999,-0.7752,-0.7752,-0.5009,-0.1536,0.262,0.6769,1.0491,1.3623,1.3945,1.3605,1.2688,1.2549,1.2535,1.2617,1.2549,1.203,1.0934,1.1953,1.1953,1.0934,1.1953,1.2501,1.2501,1.2583,1.2739,1.2963,1.2963,1.3119,3.7885,3.8777,3.9758,4.2125,4.1071,3.9259,3.8765,3.5703,3.2735,3.1989,3.0525,2.957,2.998,3.043,3.0411,2.9313,2.8408,2.7784,2.768,2.6682,2.6346,2.7388,2.7883,2.8221,2.8221,2.8221,2.8221,2.8221,2.8221,2.8221,2.8221,2.8221,2.7759,2.6669,2.3038,2.0611,1.9458,1.567,1.377,1.3627,1.3505,1.3431,1.3403,1.3403,1.3403,1.3403,1.3403,0.0,0.0,1.3363,1.3349,1.3336,1.3186,1.3105,1.3051,1.2813,1.2712,1.2664,1.2542,1.2501,1.2501,1.2501,1.2501,1.2501,1.2501,1.2501,1.2501,1.2501,1.2501,1.2579,1.3035,1.3112,1.3112,1.3112,1.2804,1.2501,1.2501,0.9609,0.68,0.6403,0.195,-0.1795,-0.1791,-0.2776,-0.344,-0.3052,0.0227,0.3176,0.4877,0.7977,1.0591,1.2333,1.2501,1.2549,1.2671,1.2569,1.2556,1.2671,1.2174,1.1095,0.9454,1.0546,1.0635,0.949,1.1059,1.2096,1.2603,1.2718,1.2861,1.309,1.3119,1.3254,3.7387,3.9433,4.1148,4.1986,4.1389,3.9915,3.7198,3.4153,3.1545,3.0111,2.9388,2.9121,2.9551,2.998,2.9988,2.9198,2.8123,2.727,2.709,2.6491,2.6186,2.6827,2.7642,2.8221,2.8221,2.8221,2.8221,2.8221,2.8221,2.8221,2.8221,2.8221,2.6196,2.1768,2.1258,1.8946,1.4536,1.4016,1.377,1.3627,1.3614,1.3539,1.3403,1.3403,1.3403,1.3403,1.3403,0.0,0.0,1.3254,1.3193,1.318,1.3037,1.2895,1.2766,1.2739,1.2644,1.2522,1.2508,1.2501,1.2501,1.2501,1.2501,1.2501,1.2501,1.2501,1.2501,1.2501,1.2501,1.2881,1.4782,1.5234,1.5234,1.5234,1.3791,1.2501,1.2501,1.0701,0.858,0.6678,0.4272,0.2481,0.2457,0.3719,0.5412,0.7253,0.9452,1.1008,1.1214,1.1752,1.2196,1.2494,1.2501,1.2508,1.2522,1.2508,1.2508,1.2522,1.0707,0.9609,0.9376,0.7738,0.7698,0.9529,0.9766,1.0861,1.2922,1.2935,1.3017,1.3152,1.3166,1.3254,3.658,3.8714,4.0412,4.1058,4.0083,3.8367,3.5954,3.2809,3.0249,2.9349,2.8848,2.8672,2.9101,2.9531,2.9108,2.6811,2.6472,2.5993,2.4445,2.4334,2.485,2.6146,2.6921,2.7053,2.6186,2.6066,2.6004,2.5831,2.5818,2.6343,2.7615,2.7776,2.6376,2.2888,2.1442,1.9156,1.5792,1.4379,1.3641,1.3492,1.3492,1.3458,1.3403,1.3403,1.3403,1.3403,1.3403,0.0,0.0,1.32,1.3119,1.303,1.2881,1.2786,1.2718,1.2623,1.2556,1.2501,1.2501,1.2501,1.2501,1.2501,1.2501,1.2501,1.2501,1.3337,1.433,1.433,1.5242,1.638,1.7132,1.6447,1.5463,1.5463,1.3945,1.2501,1.2501,1.185,1.0957,1.0158,0.928,0.8999,1.0126,1.2046,1.4034,1.5965,1.8087,1.8599,1.6178,1.601,1.5209,1.2726,1.2501,1.2535,1.263,1.2556,1.1992,1.0812,0.9885,0.8279,0.5705,0.7267,0.8015,0.7711,1.0177,1.2001,1.2963,1.3051,1.3119,1.3173,1.3268,1.3342,3.5644,3.7428,3.8809,3.9581,3.8318,3.6387,3.457,3.1808,2.9453,2.9004,2.8691,2.8574,2.8867,2.9375,2.8653,2.526,2.5485,2.5235,2.2765,2.302,2.3981,2.5398,2.5596,2.5516,2.5259,2.4795,2.4385,2.4197,2.4102,2.4995,2.7066,2.6734,2.5405,2.2962,2.0713,1.844,1.6028,1.4383,1.3505,1.3403,1.3403,1.3403,1.3403,1.3403,1.3403,1.3397,1.3356,0.0,0.0,1.3078,1.2983,1.2874,1.2725,1.2664,1.2651,1.2542,1.2501,1.2501,1.2501,1.2501,1.2501,1.2501,1.2501,1.2579,1.3182,1.4399,1.5463,1.5463,1.7436,1.9327,1.8723,1.7512,1.6294,1.5616,1.3945,1.2656,1.3259,1.3377,1.3501,1.4107,1.4213,1.4984,1.7505,1.9107,2.099,2.3463,2.4156,2.3174,1.9714,1.7813,1.5438,1.194,1.156,1.1837,1.2572,1.2011,1.0975,0.9646,0.8319,0.6173,0.3208,0.5393,0.6298,0.5596,0.8473,1.0633,1.2106,1.22,1.2572,1.3241,1.3349,1.3403,3.4685,3.5734,3.631,3.756,3.6253,3.4376,3.2923,3.1055,2.9453,2.9004,2.8906,2.8906,2.8926,2.9609,2.8974,2.5311,2.5622,2.5439,2.2792,2.3193,2.3981,2.4583,2.3542,2.3704,2.6188,2.4938,2.3998,2.3998,2.3998,0.0,2.668,2.477,2.2631,2.0405,1.8247,1.5937,1.3486,1.3403,1.3403,1.3403,1.3403,1.3403,1.3403,1.3403,1.3403,0.0,0.0,0.0,0.0,1.2854,1.2732,1.2718,1.2562,1.2501,1.2501,1.2501,1.2501,1.2501,1.2501,1.2501,1.2501,1.2501,1.2501,1.2881,1.4859,1.5463,1.5463,1.5463,1.8411,2.1141,1.9101,1.8572,1.8042,1.5989,1.3945,1.3035,1.5004,1.5463,1.6066,1.8118,1.8572,1.9747,2.3641,2.4302,2.569,2.9638,2.6865,2.3702,2.1659,1.6179,1.1657,0.9682,0.9454,1.0236,1.2347,1.0624,0.9454,0.9376,0.5471,0.313,0.313,0.1177,0.1111,0.3404,0.3487,0.5651,1.0039,1.0044,1.1214,1.3397,1.3403,1.3403,3.1314,3.2967,3.444,3.3823,3.3471,3.2987,3.1855,3.0275,2.9082,2.8945,2.8926,2.9004,2.9316,2.9824,2.9623,2.7955,2.8237,2.7626,2.4767,2.5139,2.5428,2.4703,2.2604,2.1594,2.2322,1.9136,1.882,2.3236,2.2229,2.2211,2.4165,2.2209,2.074,2.0008,1.7882,1.5652,1.3403,1.3403,1.3403,1.3403,1.3403,1.3403,1.3397,1.3295,1.3247,0.0,0.0,0.0,0.0,1.2766,1.2671,1.2569,1.2522,1.2501,1.2501,1.2501,1.2501,1.2501,1.2501,1.2501,1.2501,1.2501,1.2501,1.2656,1.3259,1.5387,1.8194,2.0916,2.1676,2.1452,2.0841,1.8572,1.6294,1.5693,1.3945,1.3035,1.5089,1.6599,1.8194,2.0241,2.1751,2.3536,2.6081,2.6503,2.6909,2.8044,2.4811,2.1098,1.7667,1.3177,0.948,0.7501,0.7271,0.8128,1.023,0.9765,0.8828,0.7349,0.4615,0.2427,0.102,0.1738,0.2556,0.3406,0.4819,0.7013,1.0044,1.0044,1.122,1.3403,1.3403,1.3403,2.9062,3.0429,3.1599,3.0867,3.0963,3.1025,3.0396,2.9539,2.8926,2.8926,2.8926,2.9004,2.9277,2.9334,2.9083,2.8478,2.8303,2.7781,2.6198,2.6048,2.5185,2.2633,2.2377,2.1199,1.8019,1.6751,1.7443,2.06,1.9526,1.9712,2.1775,1.9826,1.8232,1.7396,1.528,1.3439,1.2139,1.1303,1.1303,1.2139,1.2084,1.2478,1.3308,1.3159,1.3091,0.0,0.0,0.0,0.0,1.2671,1.2589,1.2501,1.2501,1.2501,1.2501,1.2501,1.2501,1.2501,1.2501,1.2501,1.2501,1.2501,1.3035,1.3791,1.4552,1.6599,1.9252,2.2583,2.2583,2.1216,1.9704,1.7436,1.531,1.4552,1.3414,1.3035,1.5089,1.6523,1.8042,2.008,2.1452,2.293,2.4856,2.4576,2.4082,2.3911,2.0473,1.6758,1.3452,0.9515,0.6467,0.5237,0.5084,0.563,0.6874,0.703,0.6484,0.5162,0.3132,0.1333,0.0079,0.1269,0.2006,0.211,0.3364,0.5223,0.7539,0.929,1.122,1.3403,1.3403,1.3431,0.0,2.8144,2.832,2.8652,2.8789,2.8774,2.8665,2.8684,0.0,2.8633,2.8687,2.8762,2.8839,2.8275,2.7741,2.751,2.6848,2.6532,2.7074,2.6064,2.3662,1.9339,2.2553,2.2078,1.4396,1.7145,1.8732,1.7194,1.6777,1.7502,1.9533,1.7584,1.5449,1.3307,1.1018,0.9775,0.978,0.7694,0.7861,1.0117,0.9917,1.1009,1.3152,1.301,1.2942,0.0,0.0,0.0,0.0,1.2562,1.2501,1.2501,1.2501,1.2501,1.2501,1.2501,1.2501,1.2501,1.2501,1.2501,1.2501,1.2501,1.3791,1.5693,1.7739,1.8572,1.9176,2.1066,2.1527,2.0466,1.6523,1.5387,1.4859,1.2958,1.2501,1.3035,1.5089,1.5463,1.6142,1.8194,1.8487,1.8909,2.0705,1.9404,1.7964,1.7488,1.4318,1.1164,0.8919,0.53,0.2897,0.2897,0.2897,0.2897,0.2897,0.3052,0.313,0.313,0.1177,0.0,0.0,0.0,0.0,0.0,0.0329,0.1498,0.3524,0.8123,1.1386,1.3403,1.3403,1.3485,2.581,0.0,2.7676,2.7129,2.748,2.7685,0.0,2.6516,2.6555,2.573,2.6417,2.7418,2.8083,2.8013,2.8531,3.0672,3.0088,2.9042,2.8045,2.6087,2.3935,2.1724,2.1212,2.0917,2.0443,1.6906,1.6533,2.1058,1.821,1.6544,1.7022,1.6589,1.5297,1.315,0.9359,0.7374,0.7439,0.6945,0.7769,0.983,0.98,1.0965,1.3003,1.2854,1.2786,0.0,0.0,0.0,1.2556,1.2515,1.2501,1.2501,1.2501,1.2501,1.2501,1.2501,1.2501,1.2501,1.2501,1.2501,1.2501,1.2501,1.2804,1.3568,1.5616,1.8421,2.0991,2.1452,2.0466,1.8723,1.6142,1.4322,1.3112,1.2579,1.2501,1.3035,1.5089,1.5463,1.6142,1.8194,1.7303,1.6273,1.6709,1.5093,1.2699,0.9513,0.8256,0.6361,0.2645,0.1329,0.0706,0.0706,0.0706,0.0706,0.0706,0.2194,0.313,0.313,0.1177,0.0,0.0,0.0,0.0,0.0,0.3393,0.5349,0.5951,1.0466,1.2899,1.3403,1.3403,1.3485,2.5067,2.6191,2.7305,2.7031,2.6891,2.6552,2.5972,2.5182,2.4481,2.3921,2.4531,2.5579,2.6986,2.6792,2.7299,2.9957,2.9321,2.8239,2.7372,2.629,2.4797,2.2538,2.2338,2.2018,0.0,1.8759,1.8346,2.0898,1.804,1.6098,1.6098,1.5161,1.362,1.1488,0.9072,0.7428,0.6618,0.4663,0.4744,0.6863,0.678,0.8349,1.1402,1.1264,1.1679,0.0,0.0,0.0,1.2501,1.2501,1.2501,1.2501,1.2501,1.2501,1.2501,1.2501,1.2501,1.2501,1.2501,1.2501,1.2501,1.2501,1.2501,1.2881,1.4859,1.7739,2.0005,1.9101,1.8723,1.7891,1.4935,1.3337,1.2501,1.2501,1.2501,1.2572,1.2692,1.2685,1.2755,1.2957,1.1217,0.973,0.973,0.8017,0.5544,0.2393,0.2712,0.2178,-0.1015,-0.0627,0.0,0.0,0.0,0.0,0.0,0.102,0.1646,0.1646,-0.0235,-0.1411,-0.1411,-0.1444,-0.098,0.0,0.2408,0.4672,0.67,0.9124,1.1386,1.3403,1.3403,1.3519,2.4716,2.5767,2.6769,2.7046,2.6191,2.5326,2.5395,2.3982,2.2645,2.243,2.2781,2.3728,2.5714,2.5292,2.5402,2.7896,2.7142,2.6278,2.6285,2.6367,2.5559,2.2943,2.401,0.0,2.027,2.1024,2.1101,1.9559,1.7585,1.6241,1.5926,1.4155,1.2207,1.0076,0.9598,0.8604,0.6923,0.2668,0.1621,0.3799,0.3356,0.5396,0.9598,0.9417,1.0546,1.2501,0.0,0.0,1.2501,1.2501,1.2501,1.2501,1.2501,1.2501,1.2501,1.2501,1.2501,1.2501,1.2501,1.2501,1.2501,1.2501,1.2501,1.2804,1.4552,1.6523,1.7739,1.5616,1.6751,1.7663,1.3568,1.2501,1.2501,1.2501,1.2263,1.156,0.9765,0.9138,0.8439,0.6648,0.46,0.3034,0.2643,0.0931,-0.1163,-0.3265,-0.1792,-0.1093,-0.2895,-0.1254,0.0,0.0,0.0,0.0,0.0,0.0,-0.0157,-0.0471,-0.2115,-0.3212,-0.3609,-0.3282,-0.2292,-0.0503,0.0166,0.2409,0.6202,0.6533,0.879,1.2899,1.2561,1.2707,2.3615,2.4509,2.5302,2.4509,2.4123,2.348,2.1799,2.1607,2.1436,2.0173,2.0985,2.2585,2.4844,2.415,2.4416,2.8182,2.6953,2.5734,2.6617,2.5709,2.4757,2.4298,2.3216,2.2973,2.406,2.1155,1.9821,2.1402,1.9461,1.7454,1.5701,1.5215,1.413,1.2141,1.0342,0.9251,0.8954,0.4765,0.3676,0.5826,0.3946,0.5329,0.9402,0.9382,1.0546,1.2501,0.0,1.2501,1.2501,1.2501,1.2501,1.2501,1.2501,1.2501,1.2501,1.2501,1.2501,1.2501,1.2501,1.2501,1.2501,1.2501,1.2501,1.2579,1.2881,1.4399,1.554,1.3568,1.5693,1.7663,1.3568,1.2501,1.2501,1.2501,1.1172,0.9765,0.9454,0.805,0.6644,0.6332,0.4534,0.2578,0.078,-0.1248,-0.3359,-0.5468,-0.3986,-0.2737,-0.3052,-0.1254,0.0,0.0,0.0,0.0,0.0,0.0,-0.0785,-0.2506,-0.2897,-0.3929,-0.5716,-0.4066,-0.299,-0.2647,0.0908,0.3153,0.386,0.5784,0.804,1.0466,0.8624,0.8809,2.2924,2.3044,2.3092,2.2215,2.2576,2.2859,2.1922,2.1017,2.0199,1.9533,2.0048,2.1263,2.3426,2.43,2.5504,2.8001,2.6034,2.4525,2.5269,2.4811,2.4462,2.4549,0.0,2.3766,2.4762,2.3042,2.2259,2.3292,2.0447,0.0,1.7208,1.5089,1.3491,1.2501,1.2628,1.2159,1.1095,1.0153,0.8618,0.6309,0.5332,0.641,0.9376,0.9376,1.0546,1.2501,0.0,1.2501,1.2501,1.2501,1.2501,1.2501,1.2501,1.1798,1.0856,1.0856,1.156,1.2501,1.2501,1.2501,1.2501,1.2501,1.2501,1.2501,1.2501,1.3868,1.5081,1.3035,1.4629,1.6218,1.3267,1.2501,1.2501,1.2501,1.1798,1.0469,0.8205,0.6956,0.563,0.3368,0.1174,-0.0547,-0.1485,-0.3439,-0.5162,-0.6176,-0.4459,-0.313,-0.313,-0.1254,0.0,0.0,0.0,0.0,0.0,0.0,-0.1411,-0.4615,-0.5861,-0.6911,-0.7952,-0.7035,-0.5437,-0.3134,-0.1148,0.0989,0.3358,0.4446,0.6035,0.8207,0.7165,0.8009,2.2167,2.1612,2.1002,2.0288,2.1044,2.192,2.1993,2.0662,1.947,1.9546,1.9746,2.0511,2.2408,2.4434,2.5973,2.6716,2.4807,2.3514,2.4035,2.4102,2.4182,2.4409,2.4436,2.4436,2.4436,2.4489,2.4529,2.4529,0.0,0.0,1.8648,1.5165,1.3182,1.3182,1.4705,1.5012,1.3945,1.5404,1.3312,0.7722,0.7713,0.8799,1.0821,1.0291,1.1231,1.319,1.2733,1.2501,1.2501,1.2501,1.2501,1.2501,1.2501,1.125,0.9376,0.9376,1.0391,1.1876,1.2347,1.2501,1.2501,1.2501,1.2783,1.3055,1.2601,1.3785,1.4957,1.2922,1.3556,1.4428,1.2874,1.2501,1.2501,1.2501,1.2108,1.0934,0.7734,0.6254,0.4615,0.1333,-0.0548,-0.1799,-0.2267,-0.3357,-0.4135,-0.4135,-0.2732,-0.1484,-0.0938,0.047,0.1255,0.0785,0.0706,0.0549,0.0079,-0.0471,-0.2115,-0.5318,-0.7968,-0.9412,-0.942,-0.9417,-0.7856,-0.4677,-0.4151,-0.2294,0.1006,0.1594,0.2934,0.5106,0.5156,0.6486,2.1027,2.0272,1.9477,1.9111,1.9331,1.9668,1.9937,1.9703,1.9519,2.0054,2.0187,2.0766,2.2688,2.3891,2.4239,2.3419,2.3265,2.3434,2.3754,2.3808,2.3808,2.3834,2.3834,2.3834,2.3834,2.4075,2.4235,2.4235,0.0,0.0,1.8723,1.6523,1.531,1.531,1.5387,1.6371,1.8118,1.8335,1.6174,1.1952,1.19,1.2956,1.4898,1.302,1.3355,1.5157,1.3337,1.2501,1.2501,1.2501,1.2501,1.2501,1.2501,1.125,0.9376,0.9376,0.9532,0.992,1.1798,1.2501,1.2501,1.2501,1.3617,1.4616,1.283,1.3537,1.458,1.2685,1.2347,1.2561,1.2544,1.2501,1.2501,1.2501,1.1011,0.9532,0.9221,0.6095,0.3208,0.2975,0.2739,0.2033,0.0078,0.1246,0.2409,0.2409,0.2566,0.3346,0.539,0.5786,0.5084,0.3052,0.2897,0.2115,0.0157,-0.1802,-0.2974,-0.3286,-0.7185,-0.9376,-0.9387,-0.9376,-0.9326,-0.9154,-0.7205,-0.6139,-0.5945,-0.3858,-0.1676,0.0501,0.0504,0.1693,1.9511,1.9426,1.9561,1.885,1.9145,1.972,2.0,2.0267,2.0561,2.0975,2.1846,2.3109,2.495,2.3866,2.3051,2.4324,2.3694,2.3207,2.3701,2.3768,2.3768,2.3768,2.3768,2.3768,2.3768,2.3875,2.3928,0.0,0.0,0.0,1.8221,1.6421,1.5311,1.5118,1.7693,1.8746,1.801,2.0534,2.0365,1.7517,1.6635,1.6539,1.7049,1.5142,1.4694,1.5152,1.3293,1.2454,1.2379,1.2467,1.2447,1.2136,0.9653,0.8153,0.7333,0.5962,0.7105,0.939,1.0154,1.1226,1.223,1.223,1.271,1.311,1.2367,1.2625,1.3036,1.2402,1.2176,1.2182,1.2332,1.2433,1.2501,1.2501,1.1876,1.0934,0.9687,0.8123,0.664,0.5318,0.5084,0.4847,0.4061,0.4605,0.507,0.507,0.507,0.5384,0.6176,0.6332,0.602,0.5162,0.3912,0.2271,0.0157,0.047,0.0782,0.0782,-0.4452,-0.7505,-0.7505,-0.7505,-0.6877,-0.5587,-0.6152,-0.5897,-0.4612,-0.5198,-0.4275,-0.2095,-0.2114,-0.0085,1.8732,1.868,1.8921,1.7929,1.8599,1.9639,2.008,2.0876,2.1735,2.2151,2.3525,2.5047,2.6343,2.4824,2.3731,2.4966,2.4324,2.3681,2.3561,2.3557,2.3557,2.3557,2.3557,2.3557,2.3557,2.3567,2.3634,0.0,0.0,0.0,0.0,1.7016,1.6296,1.6745,1.9522,2.0566,1.967,2.2371,2.3099,2.1642,2.0677,2.0144,1.9841,1.7394,1.6187,1.5847,1.3445,1.2311,1.2223,1.2325,1.1993,1.0911,0.6869,0.5319,0.5202,0.4301,0.5804,0.8356,0.9639,1.1002,1.2135,1.2135,1.2473,1.2793,1.2208,1.2395,1.2743,1.2196,1.2033,1.2013,1.2115,1.2291,1.2433,1.2433,1.2467,1.2108,1.0701,0.9842,0.8983,0.7583,0.7271,0.7271,0.7271,0.7816,0.8283,0.8283,0.8283,0.8283,0.8283,0.8283,0.7738,0.6414,0.4381,0.2271,0.0157,0.188,0.313,0.313,-0.0312,-0.2652,-0.3274,-0.4603,-0.465,-0.3217,-0.533,-0.5803,-0.4422,-0.5273,-0.4863,-0.3358,-0.2624,-0.0597,1.8788,1.8034,1.729,1.6136,1.7384,1.9088,1.992,2.147,2.2902,2.3501,2.4901,2.6161,2.6525,2.6906,2.6519,2.466,2.5018,2.4911,2.3119,2.2928,2.2859,2.2859,2.2859,2.2859,2.2859,2.307,2.3257,0.0,0.0,0.0,0.0,1.8778,1.8633,2.0598,2.0682,2.1701,2.3768,2.3768,2.3768,2.3768,2.3768,2.3768,2.3696,1.9732,1.7895,1.7676,1.3816,1.2135,1.2135,1.206,1.0921,0.873,0.4675,0.3096,0.3321,0.5274,0.6026,0.6627,1.0691,1.206,1.2135,1.2135,1.3273,1.4285,1.2408,1.3009,1.4014,1.2115,1.1721,1.183,1.183,1.206,1.2284,1.2291,1.2393,1.2501,1.2501,1.0856,0.9449,0.9454,0.9454,0.9454,0.9454,1.1172,1.2501,1.2501,1.2501,1.2501,1.2501,1.2501,1.0934,0.6725,0.4381,0.2271,0.0157,0.1959,0.313,0.313,0.5162,0.5384,0.3187,-0.0854,-0.3048,-0.3245,-0.538,-0.6513,-0.667,-0.4505,-0.3442,-0.3358,-0.1093,0.0,1.6048,1.5853,1.5939,1.4639,1.6457,1.8813,2.0103,2.1892,2.407,2.6772,2.6795,2.6622,2.7643,2.7027,2.5921,2.4585,2.4565,2.4268,2.3065,2.2928,2.2435,2.1113,2.0894,2.0409,1.9008,2.0203,0.0,0.0,0.0,0.0,0.0,1.9884,1.9824,2.0286,2.1757,2.2696,2.314,2.3196,2.3196,2.3196,2.3196,2.3247,2.332,1.957,1.7814,1.7394,1.3695,1.1999,1.175,1.0411,0.7882,0.4763,0.3576,0.3039,0.3014,0.36,0.5577,0.8071,0.9316,1.0565,1.1748,1.1748,1.2077,1.2395,1.1825,1.2007,1.2345,1.188,1.1728,1.1708,1.1803,1.1898,1.1993,1.2101,1.2162,1.2223,1.2332,1.1887,1.1453,1.1547,1.156,1.156,1.156,1.2108,1.2501,1.2501,1.2501,1.2501,1.2501,1.2501,1.0934,0.6725,0.5708,0.3914,0.0314,0.3288,0.5318,0.5318,0.8672,0.9056,0.5462,0.4133,0.2745,0.1271,-0.0964,-0.2846,-0.437,-0.5252,-0.4947,-0.3358,-0.2687,-0.152,1.5454,1.5024,1.4972,1.4463,1.6167,1.8691,2.1177,2.3195,2.561,2.9192,2.8453,2.7687,2.9356,2.8342,2.6778,2.5407,2.4762,2.4072,2.2876,2.206,2.1196,2.0259,1.9426,1.8508,1.7318,1.8229,0.0,0.0,0.0,0.0,0.0,2.1401,2.1413,2.1252,2.248,2.3046,2.2928,2.2928,2.2928,2.2928,2.2928,2.2608,2.1944,1.8948,1.75,1.7095,1.2685,1.0718,1.0347,0.7632,0.558,0.4116,0.331,0.3873,0.5282,0.6004,0.8304,1.096,1.0986,1.1722,1.261,1.1828,1.1619,1.1619,1.1619,1.1619,1.164,1.1721,1.1687,1.164,1.1728,1.1748,1.1782,1.1932,1.202,1.2101,1.2257,1.2291,1.2332,1.2474,1.2501,1.2481,1.2427,1.2467,1.2481,1.2427,1.2467,1.2501,1.2501,1.1798,0.9998,0.6648,0.5552,0.3679,0.0314,0.3836,0.6332,0.6332,1.023,1.1405,0.8905,0.7972,0.69,0.5609,0.3525,0.1865,0.0491,-0.0747,-0.0669,0.0586,0.067,0.0926,1.5806,1.4785,1.4094,1.49,1.6527,1.8902,2.2744,2.4717,2.6753,3.0257,2.9476,2.8773,3.0634,2.9772,2.8219,2.6451,2.5232,2.4036,2.2606,2.0736,1.9654,1.975,1.8095,1.6837,1.6697,1.6837,0.0,0.0,0.0,0.0,0.0,2.2654,2.2654,2.2654,2.2654,2.2585,2.2366,2.2366,2.2366,2.2366,2.2366,2.1459,1.9773,1.8019,1.6896,1.6112,1.0771,0.8338,0.7905,0.4573,0.4068,0.5373,0.3993,0.564,0.9138,1.1219,1.3066,1.4551,1.4611,1.4566,1.4077,1.218,1.1619,1.1619,1.1619,1.1619,1.1619,1.1619,1.1619,1.1619,1.1619,1.1476,1.1358,1.1484,1.169,1.1836,1.1983,1.2016,1.2056,1.2196,1.2306,1.242,1.2291,1.2386,1.244,1.2325,1.242,1.2424,1.2263,1.0546,0.8517,0.6254,0.4303,0.2271,0.0157,0.3679,0.6098,0.6254,0.9998,1.2269,1.2501,1.0701,0.9609,0.9376,0.7676,0.6718,0.6475,0.6629,0.67,0.67,0.67,0.5616,1.2609,1.1963,1.218,1.3146,1.686,2.0842,2.308,2.3884,2.4687,2.6753,2.6823,2.6668,2.7116,2.6891,2.6199,2.4749,2.4302,2.3636,2.2295,2.0585,1.8911,1.7538,1.5777,1.4139,1.2627,0.0,0.0,0.0,0.0,0.0,2.0605,2.0686,2.0686,2.0686,2.0686,1.9982,1.8438,1.8438,1.8438,0.0,1.8438,1.8229,1.7809,1.7388,1.4761,1.0341,0.7612,0.5591,0.4213,0.4866,0.4504,0.3776,0.6357,0.8791,1.1297,1.4605,1.6129,1.6586,1.6537,1.5573,1.4077,1.218,1.1619,1.1619,1.1619,1.1619,1.1619,1.1619,1.1619,1.1619,1.1619,1.0449,0.9363,0.9385,0.9412,0.9467,0.9593,0.9615,0.9653,0.9844,1.1164,1.2149,1.2115,1.2237,1.2366,1.244,1.2481,1.1876,1.0314,0.9687,0.7968,0.4224,0.3365,0.2271,0.0157,0.235,0.4537,0.6179,0.8672,1.0779,1.2424,1.203,1.1095,0.9454,0.9118,0.8093,0.6475,0.6629,0.67,0.67,0.67,0.6449,1.3655,1.3117,1.3286,1.5107,1.834,2.1294,2.2201,2.2404,2.264,2.3497,2.4286,2.5085,2.5863,2.5375,2.4595,2.3923,2.2413,2.1184,2.0653,1.8294,1.6258,1.543,1.3746,1.2253,1.1303,0.0,0.0,0.0,0.0,1.6461,1.8435,1.8515,1.857,1.8611,1.8622,1.8127,1.7086,1.7086,1.6669,1.5713,1.5713,1.4795,1.3114,1.4086,1.1823,0.7183,0.5229,0.4358,0.4286,0.4358,0.4939,0.5946,0.8873,1.1731,1.4594,1.7405,1.9127,1.9692,1.7757,1.6506,1.5283,1.2466,1.1619,1.1619,1.1619,1.1619,1.1619,1.1619,1.1619,1.1397,1.0449,0.943,0.8482,0.7544,0.7327,0.7353,0.7447,0.7543,0.7569,0.7739,0.9414,1.0673,1.0613,1.064,1.0696,1.0898,1.0114,0.9138,0.805,0.7033,0.5549,0.3365,0.2194,0.1177,0.0079,0.188,0.3599,0.4693,0.7656,0.992,1.0934,1.1953,1.1953,1.0934,1.1057,1.0514,0.9467,0.9687,0.9798,0.9798,0.9853,0.929,1.5304,1.53,1.5576,1.7892,1.9776,2.1109,2.1109,2.1109,2.1109,2.1109,2.2215,2.3574,2.4885,2.3854,2.275,2.275,2.0081,1.8121,1.8404,1.5328,1.3135,1.3349,1.1542,1.0185,1.0185,0.0,0.0,0.0,0.0,1.3551,1.574,1.5885,1.604,1.6442,1.6157,1.5872,1.5537,1.5243,1.4242,1.2694,1.2338,1.0265,0.6708,0.8344,0.7679,0.5138,0.2903,0.3195,0.5229,0.3923,0.5515,0.8987,1.1467,1.439,1.7529,2.0108,2.1627,2.1932,1.871,1.7227,1.6088,1.2663,1.1538,1.1538,1.1538,1.1558,1.1579,1.1579,1.1305,1.0743,0.9136,0.8194,0.7327,0.5663,0.5011,0.4953,0.5369,0.5455,0.5545,0.568,0.7261,0.8582,0.844,0.8429,0.8445,0.8702,0.733,0.6139,0.5829,0.4199,0.2959,0.2576,0.1016,0.0,0.0,0.1568,0.274,0.3052,0.6407,0.8672,0.9371,1.1011,1.2108,1.2501,1.2651,1.2745,1.2773,1.3044,1.3173,1.3173,1.3329,1.2376,1.3257,1.4926,1.7081,1.7968,1.9625,2.1109,2.1109,2.1109,2.1109,2.1109,2.1299,2.1475,2.1713,2.036,1.9203,1.9203,1.7527,1.6247,1.6278,1.3242,1.1007,1.1028,0.8189,0.6199,0.6199,0.0,0.0,0.0,0.6706,0.8303,1.1823,1.2042,1.2749,1.4327,1.2917,1.1262,0.9637,0.8099,0.7183,0.6892,0.5342,0.263,-0.104,-0.0765,0.0773,0.3073,-0.0578,-0.0073,0.3415,0.4794,0.6677,0.9203,1.4398,1.6746,1.7798,2.2902,2.2822,2.0107,1.956,1.7182,1.4096,1.1975,1.1226,1.1226,1.1226,1.1314,1.1423,1.1423,1.0286,0.8992,0.8776,0.6166,0.3633,0.3342,0.1966,0.1239,0.2914,0.3278,0.3352,0.3358,0.4889,0.6294,0.6349,0.6367,0.6478,0.6634,0.643,0.5607,0.3793,0.3264,0.244,0.0617,0.0155,0.0,0.0,0.0236,0.1177,0.2974,0.3599,0.5549,0.9216,0.9687,1.0624,1.2424,1.2651,1.2793,1.2929,1.3091,1.3173,1.3173,1.3329,1.3164,1.582,1.7626,1.9394,1.9543,2.0859,2.1942,2.1258,2.1109,2.1109,2.1109,2.1109,2.0779,1.9801,1.9024,1.818,1.7216,1.4707,1.2939,1.2939,0.9911,0.7673,0.7673,0.5405,0.3873,0.3873,0.0,0.0,0.0,0.3432,0.472,0.6357,0.7463,0.8387,0.9274,0.8518,0.7703,0.6898,0.5093,0.3149,0.1018,-0.0816,-0.2516,-0.4153,-0.5279,-0.4298,-0.1829,-0.3541,-0.2129,0.1561,0.34,0.5951,0.9008,1.3616,1.5989,1.7148,1.9705,2.0184,1.9159,1.6089,1.3866,1.2209,1.031,0.97,0.9908,1.0882,1.1212,1.126,1.126,0.9964,0.8308,0.7239,0.4926,0.2589,0.1512,0.0653,0.0219,0.1093,0.1311,0.1602,0.2691,0.356,0.4511,0.5703,0.5008,0.4302,0.4402,0.3456,0.2417,0.1513,0.1361,0.0985,0.0076,0.0,0.0,0.0,0.0,0.0392,0.1333,0.2427,0.391,0.5783,0.8123,0.9874,1.089,1.1979,1.2637,1.2705,1.2854,1.2922,1.2929,1.3085,1.3119,1.7689,1.9096,2.0199,2.0245,2.1171,2.1929,2.1159,2.1002,2.1015,2.1096,2.1109,2.0589,1.8832,1.8116,1.7141,1.492,1.1957,0.9786,0.9318,0.6273,0.4019,0.4019,0.2003,0.0666,0.0666,0.0,0.0,0.0,-0.0133,0.0866,0.1331,0.2603,0.3627,0.4135,0.3731,0.346,0.346,0.1694,-0.0807,-0.4065,-0.5419,-0.6297,-0.6769,-0.8257,-0.8136,-0.6696,-0.6329,-0.3969,-0.0348,0.1459,0.4169,0.7521,1.166,1.413,1.5344,1.5875,1.6577,1.665,1.2097,1.0246,0.9615,0.8692,0.8354,0.8702,1.0496,1.0796,1.0479,1.0479,0.8836,0.677,0.5305,0.352,0.1777,0.0357,0.0,0.0,0.0,0.0,0.0438,0.1892,0.2183,0.2618,0.4071,0.3152,0.2141,0.2141,0.0894,0.0,0.0,0.0,0.0,0.0,0.0,0.0,0.0,0.0,0.0,0.0,0.149,0.2584,0.3052,0.6095,0.8315,0.9499,1.0987,1.1973,1.2562,1.2671,1.2732,1.2732,1.2888,1.2942,1.662,1.7259,1.797,1.8784,1.9484,2.0107,2.0636,2.0695,2.0775,2.1056,2.1109,2.0589,1.8832,1.7141,1.492,1.1425,0.9335,0.756,0.5897,0.2541,0.0267,0.0267,-0.2811,-0.4958,0.0,0.0,0.0,0.0,-0.5025,-0.4211,-0.253,-0.233,-0.1464,0.0266,-0.1398,-0.2267,-0.2267,-0.4083,-0.5897,-0.7693,-0.7831,-0.8767,-1.0452,-1.0525,-1.0532,-1.0352,-0.8829,-0.5917,-0.2222,-0.0417,0.1529,0.3887,0.9343,1.1495,1.1761,1.3586,1.3073,1.1263,0.9232,0.7296,0.5975,0.7512,0.8051,0.8384,1.0199,0.9686,0.8486,0.8486,0.5942,0.3147,0.3077,0.1612,0.0141,0.0,0.0,0.0,0.0,0.0,0.0,0.0146,0.0146,0.0219,0.0292,0.0219,0.0146,0.0146,0.0073,0.0,0.0,0.0,0.0,0.0,0.0,0.0,0.0,0.0,0.0,0.0,0.0079,0.102,0.3052,0.3286,0.5318,0.9304,0.9532,1.0604,1.2718,1.2725,1.2732,1.2732,1.2888,1.2881,1.65,1.7602,1.844,1.8347,1.95,2.0501,1.9969,2.012,2.0414,2.0521,2.0548,1.972,1.6934,1.6169,1.4725,1.1155,0.7252,0.4003,0.2207,-0.1204,-0.3481,-0.3481,-0.5622,-0.7098,0.0,0.0,0.0,0.0,0.0,-0.6756,-0.614,-0.5012,-0.4145,-0.347,-0.4075,-0.4945,-0.6074,-0.6756,-0.7969,-0.9709,-0.9709,-1.0631,-1.2347,-1.124,-1.1306,-1.2289,-1.0551,-0.8418,-0.5897,-0.4125,-0.1623,0.1423,0.4591,0.7148,0.9108,0.8649,0.8061,0.6929,0.4019,0.2546,0.2007,0.2673,0.368,0.4958,0.6765,0.6924,0.6413,0.6413,0.4676,0.2794,0.2794,0.1374,0.0,0.0,-0.0923,-0.1858,-0.1867,-0.1881,-0.1892,-0.1892,-0.1892,-0.1892,-0.1892,-0.0801,0.0,0.0,0.0,0.0,0.0,0.0,0.0,0.0,0.0,0.0,0.0,0.0,0.0,0.0,0.0,0.031,0.1085,0.2418,0.3834,0.5315,0.8045,1.0491,1.2583,1.2583,1.2583,1.2583,1.2644,1.2637,1.6112,1.7176,1.8052,1.7874,1.8833,1.973,1.9486,1.9586,1.9853,2.0054,1.9724,1.8728,1.6556,1.4556,1.2089,0.8497,0.4444,0.0934,-0.1471,-0.4417,-0.6297,-0.6297,-0.7831,-0.89,0.0,0.0,0.0,0.0,0.0,0.0,-0.89,-0.7836,-0.7169,-0.7169,-0.7169,-0.7702,-0.89,-0.89,-0.951,-1.0717,-1.0717,-1.1306,-1.2413,-1.124,-1.1306,-1.2347,-1.1174,-1.0047,-0.8767,-0.7005,-0.4869,-0.2471,-0.0067,0.2326,0.4251,0.3135,0.266,0.2183,-0.08,-0.1806,-0.1605,-0.0401,0.0803,0.2211,0.4693,0.4961,0.4492,0.4492,0.322,0.1814,0.1814,0.0883,0.0,0.0,-0.1475,-0.2837,-0.292,-0.3385,-0.3705,-0.3052,-0.3415,-0.3633,-0.2979,-0.2401,-0.1748,-0.1093,-0.0947,-0.0729,-0.0073,0.0,0.0,0.0,0.0,0.0,0.0,0.0,0.0,0.0,0.0,0.0,0.0,0.1324,0.2349,0.3052,0.5861,0.8356,1.0391,1.1798,1.2501,1.2501,1.2501,1.2501,0.0,0.0,0.0,1.7198,1.7276,1.7463,1.8901,1.8964,1.8937,1.9522,1.8626,1.7751,1.7702,1.2296,0.6679,0.2856,0.0859,-0.147,-0.5025,-0.7031,-0.8163,-0.8097,-0.9643,-1.0717,0.0,0.0,0.0,0.0,-1.0717,-1.0717,-1.0717,-1.0717,-1.0717,-1.0717,-1.0717,-1.0717,-1.0717,-1.0717,-1.0717,-1.0717,-1.0717,-1.0717,-1.0784,-1.0717,-1.0717,-1.0784,-1.0717,-1.0717,-1.0585,-0.8834,-0.803,-0.7626,-0.4198,-0.2796,-0.2796,-0.2796,-0.2798,-0.3131,-0.4885,-0.5496,-0.4891,-0.1404,-0.0134,0.0602,0.4086,0.3957,0.2618,0.2618,0.1344,0.0,0.0,0.0,0.0,-0.0069,-0.1456,-0.2806,-0.3053,-0.46,-0.5367,-0.3415,-0.4576,-0.5301,-0.3415,-0.4576,-0.5156,-0.327,-0.2909,-0.2183,-0.0365,0.0,0.0,0.0,0.0,0.0,0.0,0.0,0.0,0.0,0.0,0.0,0.0,0.0,0.0941,0.2974,0.3052,0.4146,0.6176,1.0385,1.2424,1.2424,1.2501,1.2501,1.2573,0.0,0.0,0.0,0.0,0.0,1.4526,1.4883,1.5232,1.5602,1.5401,1.4483,1.244,0.8535,0.38,-0.2068,-0.4421,-0.641,-0.8832,-1.0729,-1.1344,-1.0107,-1.0386,-1.0717,0.0,0.0,0.0,0.0,-1.0717,-1.0717,-1.0717,-1.0717,-1.0717,-1.0717,-1.0717,-1.0717,-1.0717,-1.0717,-1.0717,-1.0717,-1.0717,-1.1372,-1.2545,-1.124,-1.1372,-1.2479,-1.124,-1.0717,-1.0651,-1.018,-0.9172,-0.7897,-0.6951,-0.5748,-0.4684,-0.4684,-0.5482,-0.6614,-0.7093,-0.7298,-0.7093,-0.6082,-0.4014,-0.1744,-0.0737,0.0134,0.074,0.074,0.0404,0.0,0.0,0.0,-0.0338,-0.1622,-0.3409,-0.5165,-0.6493,-0.8313,-0.922,-0.7445,-0.7544,-0.7761,-0.7178,-0.6387,-0.5591,-0.5084,-0.3778,-0.2691,-0.2183,-0.0874,0.0,0.0,0.0,0.0,0.0,0.0,0.0,0.0,0.0,0.0,0.0,0.0,0.0233,0.0863,0.2349,0.3365,0.399,0.8201,1.0236,1.0308,1.1798,1.2501,1.1497,1.1715,1.196,1.2109,0.0,0.0,1.3008,1.3266,1.3514,1.3856,1.2994,1.1676,1.0009,0.5305,0.0244,-0.4407,-0.7759,-1.0446,-1.2394,-1.2988,-1.2931,-1.1894,-1.1108,-1.0717,0.0,-1.0717,-1.0717,-1.0717,-1.0717,-1.1049,-1.1762,-1.2479,-1.2865,-1.2865,-1.2157,-1.1762,-1.1762,-1.1049,-1.0717,-1.0717,-1.0717,-1.124,-1.215,-1.1174,-1.124,-1.2157,-1.1108,-1.0717,-1.0717,-1.0717,-1.0047,-0.9105,-0.9105,-0.8501,-0.7636,-0.7636,-0.8235,-0.9105,-0.9105,-0.9105,-0.8972,-0.823,-0.6627,-0.4757,-0.4024,-0.2551,-0.1143,-0.1143,-0.0606,0.0,0.0,-0.0538,-0.1411,-0.2417,-0.472,-0.6922,-0.8058,-0.9769,-1.0586,-0.8883,-0.9204,-0.9504,-0.8765,-0.8346,-0.7859,-0.7106,-0.5373,-0.3851,-0.2979,-0.1239,0.0,0.0,0.0,0.0,0.0,0.0,0.0,0.0,0.0,0.0,0.0,0.0,0.0,0.0,0.1159,0.2244,0.3108,0.647,0.8517,0.9454,1.0624,1.1637,1.1104,1.1288,1.1629,1.2102,1.1854,0.0,1.2677,1.2654,1.2601,0.0,1.0988,0.9118,0.8972,0.2692,-0.3153,-0.5141,-0.9472,-1.3199,-1.4984,-1.406,-1.32,-1.3004,-1.1593,-1.0697,-1.0697,-1.0711,-1.0717,-1.0717,-1.085,-1.1696,-1.3193,-1.4939,-1.5913,-1.5913,-1.4428,-1.3521,-1.3325,-1.1762,-1.0916,-1.0717,-1.0717,-1.0717,-1.0717,-1.0717,-1.0717,-1.0717,-1.0717,-1.0717,-1.0717,-1.0717,-1.0717,-1.0717,-1.0916,-1.085,-1.0717,-1.0916,-1.085,-1.0717,-1.0717,-1.0717,-1.0452,-0.8834,-0.8163,-0.7698,-0.6164,-0.4426,-0.2954,-0.2752,-0.1545,-0.0269,-0.0067,-0.1344,-0.2752,-0.2954,-0.5559,-0.8128,-0.8501,-0.9758,-1.0412,-0.8872,-1.0022,-1.0707,-0.9063,-1.0235,-1.0857,-0.9247,-0.7178,-0.5156,-0.3415,-0.1311,0.0,0.0,0.0,0.0,0.0,0.0,0.0,0.0,0.0,0.0,0.0,0.0,0.0,0.0,0.0,0.0913,0.2765,0.489,0.7026,0.9061,0.9294,1.0385,0.8412,0.8649,0.8981,0.8814,0.0,0.0,0.9092,0.9144,0.9272,0.0,0.8241,0.6753,0.5656,0.125,-0.32,-0.6036,-0.9865,-1.2699,-1.3331,-1.3176,-1.2441,-1.1062,-1.0661,0.0,-1.0534,-1.0649,-1.0717,-1.0717,-1.2025,-1.2931,-1.3259,-1.4939,-1.5913,-1.5913,-1.5589,-1.4754,-1.3325,-1.2931,-1.2091,-1.0717,-1.0717,-1.0717,-1.0717,-1.0717,-1.0717,-1.0717,-1.0717,-1.0717,-1.0717,-1.0717,-1.0717,-1.085,-1.2215,-1.196,-1.085,-1.2281,-1.1894,-1.0717,-1.0717,-1.0717,-1.0651,-1.0313,-0.9172,-0.7964,-0.7564,-0.6297,-0.4559,-0.3088,-0.2417,-0.1814,-0.0404,-0.1344,-0.3088,-0.4559,-0.6498,-0.844,-0.9879,-1.0492,-1.0638,-1.0331,-1.0791,-1.1103,-1.0707,-1.1098,-1.1261,-1.0928,-0.8002,-0.5663,-0.5301,-0.2184,0.0,0.0,0.0,0.0,0.0,0.0,0.0,0.0,0.0,0.0,0.0,0.0,0.0,0.0,0.0,0.0228,0.0607,0.2687,0.4807,0.6956,0.8594,0.9609,0.7882,0.7984,0.814,0.8058,0.0,0.0,0.0,0.8262,0.8123,0.764,0.6346,0.4919,0.3628,-0.0332,-0.3895,-0.5499,-0.8571,-1.0906,-1.111,-1.2176,-1.2595,-1.172,-1.0913,0.0,-1.0385,-1.046,-1.0818,-1.1645,-1.3453,-1.4852,-1.5623,-1.7471,-1.8512,-1.8512,-1.7667,-1.6754,-1.5913,-1.4166,-1.2865,-1.2025,-1.1115,-1.0717,-1.0717,-1.0717,-1.0717,-1.0717,-1.0717,-1.0717,-1.0717,-1.0717,-1.0717,-1.085,-1.261,-1.2734,-1.2084,-1.2997,-1.2742,-1.1894,-1.0982,-1.0717,-1.0717,-1.0717,-1.0114,-0.9371,-0.9371,-0.8102,-0.6297,-0.4559,-0.4024,-0.3823,-0.2954,-0.4024,-0.5559,-0.6498,-0.8035,-0.9576,-1.0518,-1.0717,-1.0717,-1.0717,-1.0839,-1.0968,-1.1043,-1.1118,-1.0866,-1.0082,-0.7513,-0.5404,-0.4501,-0.182,0.0,0.0,0.0,0.0,0.0,0.0,0.0,0.0,0.0,0.0,0.0,0.0,0.0,0.0,0.0,0.0,0.0,0.1056,0.267,0.4732,0.577,0.7423,0.0,0.0,0.0,0.0,0.0,0.7388,0.0,0.0,0.0,0.624,0.4824,0.3429,0.0,0.0,0.0,0.0,0.0,0.0,0.0,-1.0942,0.0,-1.2192,-1.1025,0.0,-1.0195,-1.0215,-1.0932,-1.2578,-1.4499,-1.6296,-1.7917,-1.9902,-2.1029,-2.1029,-1.9712,-1.8832,-1.8512,-1.5719,-1.397,-1.3259,-1.1894,-1.1049,-1.0717,-1.0717,-1.0717,-1.0717,-1.0717,-1.0717,-1.0717,-1.0717,-1.0717,-1.085,-1.261,-1.3062,-1.2865,-1.3193,-1.3062,-1.261,-1.1174,-1.0717,-1.0717,-1.0717,-1.0717,-1.0651,-1.0313,-0.9172,-0.7631,-0.5897,-0.5429,-0.5429,-0.5429,-0.6698,-0.803,-0.803,-0.9371,-1.0585,-1.0246,-1.018,-1.0047,-0.9715,-0.9649,-0.9952,-1.0745,-1.086,-1.0334,-0.8723,-0.6861,-0.4914,-0.3099,-0.1229,0.0,0.0,0.0,0.0,0.0,0.0,0.0,0.0,0.0,0.0,0.0,0.0,0.0,0.0,0.0,0.0,0.0,0.0,0.0827,0.2532,0.2941,0.4893,0.0,0.0,0.0,0.0,0.5702,0.0,0.0,0.0,0.4578,0.4318,0.0,0.0,0.0,0.0,0.0,0.0,0.0,0.0,-0.8455,-0.9203,-0.9673,-0.9755,-0.9834,0.0,0.0,-0.9936,-1.0808,-1.257,-1.4171,-1.582,-1.7588,-1.9609,-2.0722,-2.0722,-2.0787,-2.0068,-1.8512,-1.8116,-1.6366,-1.3325,-1.3128,-1.2215,-1.0717,-1.0717,-1.0717,-1.0717,-1.0717,-1.0717,-1.0717,-1.0717,-1.0717,-1.085,-1.261,-1.2347,-1.1174,-1.2734,-1.2347,-1.0982,-1.0784,-1.0717,-1.0717,-1.0717,-1.0717,-1.0386,-0.8767,-0.8163,-0.7631,-0.5897,-0.5429,-0.5429,-0.5429,-0.6698,-0.803,-0.803,-0.9371,-1.0246,-0.8634,-0.8302,-0.7831,-0.6297,-0.603,-0.7036,-1.0206,-1.0793,-1.0338,-0.8581,-0.6798,-0.4972,-0.3161,-0.1197,0.0,0.0,0.0,0.0,0.0,0.0,0.0,0.0,0.0,0.0,0.0,0.0,0.0,0.0,0.0,0.0,0.0,0.0,0.015,0.0379,0.2275,0.3336,0.0,0.0,0.0,0.0,0.0,0.0,0.4154,0.0,0.3865,0.0,0.0,0.0,0.0,0.0,0.0,0.0,-0.4292,0.0,0.0,0.0,-0.7161,0.0,0.0,0.0,0.0,0.0,0.0,0.0,-1.4351,-1.5953,-1.8721,-1.9815,-2.0414,-2.0414,-2.0535,-2.0217,-1.9523,-1.8659,-1.7008,-1.4576,-1.3722,-1.2413,-1.0717,-1.0717,-1.0717,-1.0717,-1.0717,-1.0717,-1.0717,-1.0717,-1.0717,-1.0784,-1.1505,-1.196,-1.2281,-1.3062,-1.2865,-1.2091,-1.1049,-1.0717,-1.0518,-0.951,-0.844,-0.7503,-0.6698,-0.6498,-0.6564,-0.6831,-0.6898,-0.7165,-0.8169,-0.9039,-0.9576,-0.9576,-1.018,-1.018,-0.8368,-0.803,-0.7498,-0.5763,-0.5429,-0.5897,-0.7369,-0.7675,-0.7116,-0.5331,-0.4401,-0.3257,-0.1469,-0.0491,0.0,0.0,0.0,0.0,0.0,0.0,0.0,0.0,0.0,0.0,0.0,0.0,0.0,0.0,0.0,0.0,0.0,0.0,0.0,0.0,0.0902,0.1965,0.4721,0.0,0.0,0.0,0.0,0.0,0.0,0.0,0.0,0.0,0.0,0.0,0.0,0.0,0.0,0.0,0.0,-0.3833,0.0,-0.4411,0.0,0.0,0.0,0.0,0.0,0.0,0.0,0.0,0.0,-1.5243,-1.8731,-1.9218,-1.9606,-2.0047,-2.0127,-2.0167,-2.0167,-1.9186,-1.7582,-1.5436,-1.4373,-1.2726,-1.0656,-1.0704,-1.0717,-1.0717,-1.0717,-1.0717,-1.0717,-1.0717,-1.0717,-1.0651,-1.018,-1.0763,-1.1937,-1.2405,-1.261,-1.2413,-1.1108,-1.0386,-0.9775,-0.8435,-0.6831,-0.5295,-0.4827,-0.4626,-0.5028,-0.6765,-0.7298,-0.7831,-1.0114,-1.0717,-1.0717,-1.0717,-1.0717,-1.018,-0.8368,-0.803,-0.7365,-0.5095,-0.4626,-0.4626,-0.4626,-0.5496,-0.5513,-0.374,-0.3813,-0.3486,-0.1729,-0.1455,-0.1316,-0.0762,-0.0762,-0.0555,-0.0069,0.0,0.0,0.0,0.0,0.0,0.0,0.0,0.0,0.0,0.0,0.0,0.0,0.0,0.0,0.0,0.0,0.0824,0.0,0.0,0.0,0.2255,0.0,0.0,0.0,0.0,0.0103,0.0,0.0,0.0,0.0,0.0,0.0,0.0,0.0,0.0,0.0,0.0,0.0,0.0,0.0,0.0,0.0,0.0,0.0,0.0,-1.1608,0.0,-1.6608,-1.7089,-1.8084,-1.974,-2.008,-2.0167,-2.0167,-2.018,-1.8496,-1.5328,-1.5363,-1.3687,-1.0507,-1.0656,-1.0717,-1.0717,-1.0717,-1.0717,-1.0717,-1.0717,-1.0717,-1.0518,-0.8767,-0.8097,-0.8363,-1.0114,-1.0784,-1.0784,-1.0717,-0.9576,-0.8097,-0.803,-0.6831,-0.5095,-0.3287,-0.2819,-0.3155,-0.4961,-0.5496,-0.6297,-0.9782,-1.0717,-1.0717,-1.0717,-1.0717,-1.018,-0.8368,-0.803,-0.696,-0.3488,-0.2819,-0.2819,-0.2819,-0.5626,-0.7298,-0.5566,-0.6769,-0.7169,-0.5436,-0.5238,-0.4565,-0.2823,-0.2622,-0.1884,-0.0135,0.0,0.0,0.0,0.0,0.0,0.0,0.0,0.0,0.0,0.0,0.0,0.0,0.0,0.0,0.0,0.0,0.0,0.0,0.0,0.1858,0.0957,0.0,0.0,0.0,0.0,0.0,0.0,0.0,0.0,0.0,0.0,0.0,0.0,0.0,0.0,0.0,0.0,0.0,0.0,0.0,0.0,0.0,0.0,0.0,0.0,-1.2374,0.0,0.0,-1.7948,-1.8933,-1.9506,-1.9613,-1.9653,-1.9653,-1.88,-1.7236,-1.4972,-1.4145,-1.2551,-1.0351,-1.0405,-1.0432,-1.0432,-1.0432,-1.0432,-1.0432,-1.0432,-1.0432,-1.0232,-0.8528,-0.7862,-0.7802,-0.7341,-0.7902,-0.9105,-1.0246,-0.951,-0.7831,-0.6631,-0.5095,-0.3289,-0.1478,-0.0941,-0.1545,-0.4559,-0.5429,-0.6231,-0.9782,-1.0717,-1.0717,-1.0717,-1.0717,-1.018,-0.8368,-0.803,-0.7298,-0.4961,-0.4492,-0.4492,-0.4492,-0.6427,-0.7431,-0.5629,-0.5897,-0.6097,-0.5496,-0.5429,-0.5162,-0.4559,-0.4492,-0.4225,-0.3622,-0.2484,-0.1285,-0.0069,0.0,0.0,0.0,0.0,0.0,0.0,0.0,0.0,0.0,0.0,0.0,0.0,0.0,0.0,0.0492,0.0604,0.0,0.0215,0.0,0.0,0.0,0.0,0.0,0.0,0.0,0.0,0.0,0.0,0.0,0.0,0.0,0.0,0.0,-0.2314,0.0,0.0,0.0,0.0,0.0,0.0,-0.8948,-1.0279,-1.1317,0.0,0.0,0.0,-1.7029,-1.7689,-1.7689,-1.7689,-1.7689,-1.6841,-1.5523,-1.3895,-1.3075,-1.1815,-1.0202,-1.0256,-1.0283,-1.0276,-0.9697,-0.9443,-0.9373,-0.8794,-0.8539,-0.8475,-0.7316,-0.652,-0.5935,-0.5558,-0.6535,-0.8163,-0.9305,-0.8972,-0.7831,-0.6698,-0.5095,-0.3421,-0.2283,-0.1948,-0.2551,-0.5496,-0.6297,-0.7031,-0.9915,-1.0717,-1.0717,-1.0717,-1.0717,-1.0386,-0.9238,-0.8972,-0.8435,-0.6698,-0.6297,-0.6297,-0.6297,-0.7231,-0.7631,-0.6498,-0.6898,-0.7303,-0.7303,-0.7303,-0.7036,-0.6364,-0.6297,-0.6097,-0.5429,-0.3756,-0.2225,-0.1021,-0.0341,0.0,0.0,0.0,0.0,0.0,0.0,0.0,0.0,0.0,0.0,0.0,0.0,0.0]},{"header":{"parameterUnit":"m.s-1","parameterCategory":1,"la1":30.6,"la2":29.2853,"lo1":-89.7004,"lo2":-87.6739,"dy":0.0162,"dx":0.0183,"nx":112,"ny":82,"refTime":"2024-08-25T06:00:00:Z","depth":0,"parameterNumber":3,"parameterNumberName":"V-component_of_WINDS"},"data":[0.0,0.0,0.0,0.0,0.0,0.0,0.0,0.0,0.0,0.0,0.0,0.0,0.0,0.0,0.0,0.0,0.0,0.0,0.0,0.0,0.0,0.0,0.0,0.0,0.0,0.0,0.0,0.0,0.0,0.0,0.0,0.0,0.0,0.0,0.0,0.0,0.0,0.0,0.0,0.0,0.0,0.0,0.0,0.0,0.0,0.0,0.0,0.0,0.0,0.0,0.0,0.0,0.0,0.0,0.0,0.0,0.0,0.0,0.0,0.0,0.0,0.0,0.0,0.0,0.0,0.0,0.0,0.0,0.0,0.0,0.0,0.0,0.0,0.0,0.0,0.0,0.0,0.0,0.0,0.0,0.0,0.0,0.0,0.0,0.0,0.0,0.0,0.0,0.0,0.0,4.4393,4.4662,4.5248,4.5594,4.5594,4.5594,4.4902,4.3201,0.0,0.0,0.0,0.0,0.0,0.0,0.0,0.0,0.0,0.0,0.0,0.0,0.0,0.0,0.0,0.0,0.0,0.0,0.0,0.0,0.0,0.0,0.0,0.0,0.0,0.0,0.0,0.0,0.0,0.0,0.0,0.0,0.0,0.0,0.0,0.0,0.0,0.0,0.0,0.0,0.0,0.0,0.0,0.0,0.0,0.0,0.0,0.0,0.0,0.0,0.0,0.0,0.0,0.0,0.0,0.0,0.0,0.0,0.0,0.0,0.0,0.0,0.0,0.0,0.0,0.0,0.0,0.0,0.0,0.0,0.0,0.0,0.0,0.0,0.0,0.0,0.0,0.0,0.0,0.0,0.0,0.0,0.0,0.0,0.0,0.0,0.0,0.0,0.0,0.0,0.0,0.0,0.0,0.0,0.0,0.0,0.0,0.0,0.0,0.0,0.0,0.0,0.0,0.0,4.4855,4.6355,4.597,4.5594,4.5594,4.5594,4.4902,4.3201,0.0,0.0,0.0,0.0,0.0,0.0,0.0,0.0,0.0,0.0,0.0,0.0,0.0,0.0,0.0,0.0,0.0,0.0,0.0,0.0,0.0,0.0,0.0,0.0,0.0,0.0,0.0,0.0,0.0,0.0,0.0,0.0,0.0,0.0,0.0,0.0,0.0,0.0,0.0,0.0,0.0,0.0,0.0,0.0,0.0,0.0,0.0,0.0,0.0,0.0,0.0,0.0,0.0,0.0,0.0,0.0,0.0,0.0,0.0,0.0,0.0,0.0,0.0,0.0,0.0,0.0,0.0,0.0,0.0,0.0,0.0,0.0,0.0,0.0,0.0,0.0,0.0,0.0,0.0,0.0,0.0,0.0,0.0,0.0,0.0,0.0,0.0,0.0,0.0,0.0,0.0,0.0,0.0,0.0,0.0,0.0,0.0,0.0,0.0,0.0,0.0,0.0,0.0,4.4124,4.497,4.6692,4.6124,4.5594,4.5594,4.5594,4.4902,4.3201,4.1854,0.0,0.0,0.0,0.0,0.0,0.0,0.0,0.0,0.0,0.0,0.0,0.0,0.0,0.0,0.0,0.0,0.0,0.0,0.0,0.0,0.0,0.0,0.0,0.0,0.0,0.0,0.0,0.0,0.0,0.0,0.0,0.0,0.0,0.0,0.0,0.0,0.0,0.0,0.0,0.0,0.0,0.0,0.0,0.0,0.0,0.0,0.0,0.0,0.0,0.0,0.0,0.0,0.0,0.0,0.0,0.0,0.0,0.0,0.0,0.0,0.0,0.0,0.0,0.0,0.0,0.0,0.0,0.0,0.0,0.0,0.0,0.0,0.0,0.0,0.0,0.0,0.0,0.0,0.0,0.0,0.0,0.0,0.0,0.0,0.0,0.0,0.0,0.0,0.0,0.0,0.0,0.0,0.0,0.0,0.0,0.0,0.0,0.0,0.0,0.0,0.0,0.0,4.5017,4.5278,4.7009,4.624,4.5594,4.5594,4.5248,4.4393,4.2893,4.0969,0.0,0.0,0.0,0.0,0.0,0.0,0.0,0.0,0.0,0.0,0.0,0.0,0.0,0.0,0.0,0.0,0.0,0.0,0.0,0.0,0.0,0.0,0.0,0.0,0.0,0.0,0.0,0.0,0.0,0.0,0.0,0.0,0.0,0.0,0.0,0.0,0.0,0.0,0.0,0.0,0.0,0.0,0.0,0.0,0.0,0.0,0.0,0.0,0.0,0.0,0.0,0.0,0.0,0.0,0.0,0.0,0.0,0.0,0.0,0.0,0.0,0.0,0.0,0.0,0.0,0.0,0.0,0.0,0.0,0.0,0.0,0.0,0.0,0.0,0.0,0.0,0.0,0.0,0.0,0.0,0.0,0.0,0.0,0.0,0.0,0.0,0.0,0.0,0.0,0.0,0.0,0.0,0.0,0.0,0.0,0.0,0.0,0.0,0.0,0.0,0.0,0.0,4.5556,4.6163,4.7855,4.6586,4.5594,4.5594,4.4162,4.2893,4.1962,3.9546,0.0,0.0,0.0,0.0,0.0,0.0,0.0,0.0,0.0,0.0,0.0,0.0,0.0,0.0,0.0,0.0,0.0,0.0,0.0,0.0,0.0,0.0,0.0,0.0,0.0,0.0,0.0,0.0,0.0,0.0,0.0,0.0,0.0,0.0,0.0,0.0,0.0,0.0,0.0,0.0,0.0,0.0,0.0,0.0,0.0,0.0,0.0,0.0,0.0,0.0,0.0,0.0,0.0,0.0,0.0,0.0,0.0,0.0,0.0,0.0,0.0,0.0,0.0,0.0,0.0,0.0,0.0,0.0,0.0,0.0,0.0,0.0,0.0,0.0,0.0,0.0,0.0,0.0,0.0,0.0,0.0,0.0,0.0,0.0,0.0,0.0,0.0,0.0,0.0,0.0,0.0,0.0,0.0,0.0,0.0,0.0,0.0,0.0,0.0,0.0,0.0,0.0,4.5133,4.5624,0.0,4.6586,4.5594,4.5594,4.5017,4.3855,4.1923,0.0,0.0,0.0,0.0,0.0,0.0,0.0,0.0,0.0,0.0,0.0,0.0,0.0,0.0,0.0,0.0,0.0,0.0,0.0,0.0,0.0,0.0,0.0,0.0,0.0,0.0,0.0,0.0,0.0,0.0,0.0,0.0,0.0,0.0,0.0,0.0,0.0,0.0,0.0,0.0,0.0,0.0,0.0,0.0,0.0,0.0,0.0,0.0,0.0,0.0,0.0,0.0,0.0,0.0,0.0,0.0,0.0,0.0,0.0,0.0,0.0,0.0,0.0,0.0,0.0,0.0,0.0,0.0,0.0,0.0,0.0,0.0,0.0,0.0,0.0,0.0,0.0,0.0,0.0,0.0,0.0,0.0,0.0,0.0,0.0,0.0,0.0,0.0,0.0,0.0,0.0,0.0,0.0,0.0,0.0,0.0,0.0,0.0,0.0,0.0,0.0,0.0,4.5325,4.5547,4.6163,0.0,4.6855,4.5893,4.5633,4.5094,4.3816,4.1546,0.0,0.0,0.0,0.0,0.0,0.0,0.0,0.0,0.0,0.0,0.0,0.0,0.0,0.0,0.0,0.0,0.0,0.0,0.0,0.0,0.0,0.0,0.0,0.0,0.0,0.0,0.0,0.0,0.0,0.0,0.0,0.0,0.0,0.0,0.0,0.0,0.0,0.0,0.0,0.0,0.0,0.0,0.0,0.0,0.0,0.0,0.0,0.0,0.0,0.0,0.0,0.0,0.0,0.0,0.0,0.0,0.0,0.0,0.0,0.0,0.0,0.0,0.0,0.0,0.0,0.0,0.0,0.0,0.0,0.0,0.0,0.0,0.0,0.0,0.0,0.0,0.0,0.0,0.0,0.0,0.0,0.0,0.0,0.0,0.0,0.0,0.0,0.0,0.0,0.0,0.0,0.0,0.0,0.0,0.0,0.0,0.0,0.0,0.0,0.0,0.0,0.0,4.5518,4.7086,4.8086,4.8086,4.7394,4.6547,4.5671,4.4085,4.2393,0.0,0.0,0.0,0.0,0.0,0.0,0.0,0.0,0.0,0.0,0.0,0.0,0.0,0.0,0.0,0.0,0.0,0.0,0.0,0.0,0.0,0.0,0.0,0.0,0.0,0.0,0.0,0.0,0.0,0.0,0.0,0.0,0.0,0.0,0.0,0.0,0.0,0.0,0.0,0.0,0.0,0.0,0.0,0.0,0.0,0.0,0.0,0.0,0.0,0.0,0.0,0.0,0.0,0.0,0.0,0.0,0.0,0.0,0.0,0.0,0.0,0.0,0.0,0.0,0.0,0.0,0.0,0.0,0.0,0.0,0.0,0.0,0.0,0.0,0.0,0.0,0.0,0.0,0.0,0.0,0.0,0.0,0.0,0.0,0.0,0.0,0.0,0.0,0.0,0.0,0.0,0.0,0.0,0.0,0.0,0.0,0.0,0.0,0.0,0.0,0.0,0.0,0.0,4.6317,4.7432,4.8086,4.8086,4.7394,4.6547,4.5671,4.5171,4.3594,4.0669,0.0,0.0,0.0,0.0,0.0,0.0,0.0,0.0,0.0,0.0,0.0,0.0,0.0,0.0,0.0,0.0,0.0,0.0,0.0,0.0,0.0,0.0,0.0,0.0,0.0,0.0,0.0,0.0,0.0,0.0,0.0,0.0,0.0,0.0,0.0,0.0,0.0,0.0,0.0,0.0,0.0,0.0,0.0,0.0,0.0,0.0,0.0,0.0,0.0,0.0,0.0,0.0,0.0,0.0,0.0,0.0,0.0,0.0,0.0,0.0,0.0,0.0,0.0,0.0,0.0,0.0,0.0,0.0,0.0,0.0,0.0,0.0,0.0,0.0,0.0,0.0,0.0,0.0,0.0,0.0,0.0,0.0,0.0,0.0,0.0,0.0,0.0,0.0,0.0,0.0,0.0,0.0,0.0,0.0,0.0,0.0,0.0,0.0,0.0,0.0,0.0,0.0,4.674,4.8202,4.9009,4.8663,4.7855,4.7048,4.6201,4.5787,4.4286,4.12,0.0,0.0,0.0,0.0,0.0,0.0,0.0,0.0,0.0,0.0,0.0,0.0,0.0,0.0,0.0,0.0,0.0,0.0,0.0,0.0,0.0,0.0,0.0,0.0,0.0,0.0,0.0,0.0,0.0,0.0,0.0,0.0,0.0,0.0,0.0,0.0,0.0,0.0,0.0,0.0,0.0,0.0,0.0,0.0,0.0,0.0,0.0,0.0,0.0,0.0,0.0,0.0,0.0,0.0,0.0,0.0,0.0,0.0,0.0,0.0,0.0,0.0,0.0,0.0,0.0,0.0,0.0,0.0,0.0,0.0,0.0,0.0,0.0,0.0,0.0,0.0,0.0,0.0,0.0,0.0,0.0,0.0,0.0,0.0,0.0,0.0,0.0,0.0,0.0,0.0,0.0,0.0,0.0,0.0,0.0,0.0,0.0,0.0,0.0,0.0,0.0,0.0,4.6894,4.9163,5.0366,4.9471,4.8702,4.7855,4.6962,4.6163,4.4624,4.2077,0.0,0.0,0.0,0.0,0.0,0.0,0.0,0.0,0.0,0.0,0.0,0.0,0.0,0.0,0.0,0.0,0.0,0.0,0.0,0.0,0.0,0.0,0.0,0.0,0.0,0.0,0.0,0.0,0.0,0.0,0.0,0.0,0.0,0.0,0.0,0.0,0.0,0.0,0.0,0.0,0.0,0.0,0.0,0.0,0.0,0.0,0.0,0.0,0.0,0.0,0.0,0.0,0.0,0.0,0.0,0.0,0.0,0.0,0.0,0.0,4.4393,0.0,0.0,0.0,0.0,0.0,0.0,0.0,0.0,0.0,0.0,0.0,0.0,0.0,0.0,0.0,0.0,0.0,0.0,0.0,0.0,0.0,0.0,0.0,0.0,0.0,0.0,0.0,0.0,0.0,0.0,0.0,0.0,0.0,0.0,0.0,0.0,0.0,0.0,0.0,0.0,0.0,4.7663,4.951,5.0366,4.9471,4.924,4.8509,4.7038,4.674,4.5547,4.297,4.2008,0.0,0.0,0.0,0.0,0.0,0.0,0.0,0.0,0.0,0.0,0.0,0.0,0.0,0.0,0.0,0.0,0.0,0.0,0.0,0.0,0.0,0.0,0.0,0.0,0.0,0.0,0.0,0.0,0.0,0.0,0.0,0.0,0.0,0.0,0.0,0.0,0.0,0.0,0.0,0.0,0.0,0.0,0.0,0.0,0.0,0.0,0.0,0.0,0.0,0.0,0.0,0.0,0.0,0.0,0.0,0.0,0.0,0.0,0.0,0.0,4.6509,0.0,0.0,0.0,0.0,0.0,0.0,0.0,0.0,0.0,0.0,0.0,0.0,0.0,0.0,0.0,0.0,0.0,0.0,0.0,0.0,0.0,0.0,0.0,0.0,0.0,0.0,0.0,0.0,0.0,0.0,0.0,0.0,0.0,0.0,0.0,0.0,0.0,0.0,0.0,0.0,4.7932,4.9625,5.0519,5.0048,4.9663,4.9048,4.8163,4.7355,4.6163,4.4393,4.3124,0.0,0.0,0.0,0.0,0.0,0.0,0.0,0.0,0.0,0.0,0.0,0.0,0.0,0.0,0.0,0.0,0.0,0.0,0.0,0.0,0.0,0.0,0.0,0.0,0.0,0.0,0.0,0.0,0.0,0.0,0.0,0.0,0.0,0.0,0.0,0.0,0.0,0.0,0.0,0.0,0.0,0.0,0.0,0.0,0.0,0.0,0.0,0.0,0.0,0.0,0.0,0.0,0.0,5.3587,5.4087,5.4087,5.4087,5.4087,5.3972,5.1856,5.0548,4.974,4.8509,0.0,0.0,0.0,0.0,0.0,0.0,0.0,0.0,0.0,0.0,0.0,0.0,0.0,0.0,0.0,0.0,0.0,0.0,0.0,0.0,0.0,0.0,0.0,0.0,5.1818,5.1191,0.0,0.0,0.0,0.0,0.0,0.0,0.0,0.0,0.0,0.0,0.0,0.0,4.8432,4.9933,5.0894,5.0894,5.0125,4.9548,4.9394,4.8161,4.6938,4.5902,4.4397,4.3173,0.0,0.0,0.0,0.0,0.0,0.0,0.0,0.0,0.0,0.0,0.0,0.0,0.0,0.0,0.0,0.0,0.0,0.0,0.0,0.0,0.0,0.0,0.0,0.0,0.0,0.0,0.0,0.0,0.0,0.0,0.0,0.0,4.6042,4.6301,0.0,0.0,0.0,0.0,0.0,0.0,0.0,0.0,0.0,0.0,0.0,0.0,0.0,5.2626,5.2856,5.4434,5.5203,5.5203,5.6857,5.7627,5.7627,5.7627,5.7627,5.7627,5.728,0.0,5.1615,5.2164,0.0,0.0,0.0,0.0,0.0,0.0,0.0,0.0,0.0,0.0,0.0,0.0,0.0,0.0,0.0,0.0,0.0,0.0,0.0,0.0,0.0,0.0,5.4952,5.4638,5.5056,5.5446,0.0,5.2187,4.9412,4.9134,4.7944,0.0,0.0,0.0,0.0,0.0,0.0,0.0,5.0164,5.1164,5.1731,5.1731,5.101,5.0202,4.9471,4.9319,4.8531,4.6826,4.5935,4.4991,4.4017,4.247,0.0,0.0,0.0,0.0,0.0,0.0,0.0,0.0,0.0,0.0,0.0,0.0,0.0,0.0,0.0,0.0,0.0,0.0,0.0,0.0,0.0,0.0,0.0,0.0,0.0,0.0,0.0,0.0,0.0,4.5954,4.7639,4.6682,4.8147,4.8621,0.0,0.0,0.0,0.0,0.0,0.0,0.0,0.0,0.0,5.4549,5.4334,5.4821,5.6049,5.7242,5.7857,5.7857,5.9127,5.9704,5.9704,5.9704,5.9704,5.9704,5.9704,5.8357,5.6088,5.5049,5.3664,5.2252,0.0,0.0,0.0,0.0,5.2773,5.2539,5.4023,5.3945,0.0,5.2539,0.0,0.0,0.0,0.0,0.0,0.0,0.0,0.0,0.0,0.0,0.0,5.6983,5.7371,5.7653,5.7859,5.6307,5.4369,0.0,5.1758,5.0553,4.7701,0.0,0.0,0.0,0.0,5.05,5.1279,5.2125,5.2423,5.1962,5.1587,5.1048,5.0202,4.9726,4.9166,4.8365,4.7538,4.6891,4.6432,4.5316,4.4432,0.0,0.0,0.0,0.0,0.0,0.0,0.0,0.0,0.0,0.0,0.0,0.0,0.0,0.0,0.0,0.0,0.0,0.0,0.0,0.0,0.0,0.0,0.0,0.0,0.0,0.0,0.0,0.0,4.8073,4.9182,4.7881,4.9877,5.0509,0.0,0.0,0.0,0.0,0.0,0.0,5.4265,5.4167,5.4981,5.6894,5.706,5.7864,5.9369,6.0119,6.0473,6.0473,6.1127,6.1435,6.1435,6.1435,6.1435,6.1435,6.1435,6.0935,5.9973,5.7627,5.6049,5.5101,5.4699,5.444,5.4397,5.5535,5.5547,5.5312,5.7461,5.7656,5.6797,5.5937,0.0,5.4492,5.1719,0.0,0.0,0.0,0.0,5.5311,5.6682,5.7211,5.7665,5.881,5.9255,5.9443,5.9607,5.959,5.8707,0.0,5.5379,5.4435,5.0912,0.0,0.0,0.0,0.0,5.2577,5.2577,5.3126,5.328,5.2615,5.2385,5.1895,5.1087,5.0461,4.9892,4.9442,4.8834,4.8381,4.8125,4.7548,4.6894,4.624,0.0,0.0,0.0,0.0,0.0,0.0,0.0,0.0,0.0,0.0,0.0,0.0,0.0,0.0,0.0,0.0,0.0,0.0,0.0,0.0,0.0,0.0,0.0,0.0,0.0,0.0,0.0,0.0,0.0,5.1634,5.3477,0.0,0.0,0.0,0.0,5.4199,5.3522,5.4322,5.7215,5.8068,5.9072,6.0292,6.1979,6.272,6.2391,6.2874,6.3128,6.3128,6.3166,6.3166,6.3166,6.3166,6.3166,6.3166,6.3166,6.2704,6.1831,6.005,5.8357,5.6883,5.7105,5.6731,5.6227,5.7331,5.7734,5.7851,5.8789,5.8555,5.8086,5.9609,5.8984,5.7539,5.6523,5.5703,0.0,0.0,5.7031,5.7889,5.8597,5.9396,6.0018,6.0099,6.0759,6.14,6.1521,6.1472,6.0905,0.0,5.8025,5.6942,5.5969,0.0,5.401,5.3087,5.378,5.4357,5.4357,5.4395,5.4434,5.4357,5.3626,5.2779,5.1923,5.1915,5.1214,4.9528,4.9489,4.9088,4.8134,4.8048,4.8009,4.7971,4.6355,0.0,0.0,0.0,0.0,0.0,0.0,0.0,0.0,0.0,0.0,0.0,0.0,0.0,0.0,0.0,0.0,0.0,0.0,0.0,0.0,0.0,0.0,0.0,0.0,0.0,0.0,0.0,0.0,5.2731,5.4791,0.0,5.2907,5.4078,5.5503,5.6717,5.751,5.8617,6.0203,6.0281,6.0623,6.1373,6.1729,6.2108,6.259,6.2777,6.3012,6.3308,6.3308,6.3308,6.3308,6.3308,6.3308,6.3308,6.3308,6.3128,6.282,6.2204,6.0973,5.9502,5.9791,5.9727,5.9542,6.0039,6.0265,6.039,6.061,6.0539,6.0351,6.039,5.9648,5.8672,5.8359,5.8437,5.8633,5.8945,5.9687,6.039,6.062,6.093,6.1165,6.1165,6.1399,6.1635,6.1679,6.1585,6.1356,6.0792,5.9757,5.8326,5.6347,5.6521,5.6472,5.5011,5.6049,5.6742,5.6175,5.6099,5.5703,5.4626,5.4203,5.3664,5.2818,5.2281,5.1722,5.1048,5.0556,5.0141,4.9788,4.9779,4.951,4.8933,4.8355,4.7086,0.0,0.0,0.0,0.0,0.0,0.0,0.0,0.0,0.0,0.0,0.0,0.0,0.0,0.0,0.0,0.0,0.0,0.0,0.0,0.0,0.0,0.0,0.0,0.0,0.0,5.3958,5.499,5.443,5.6697,5.7506,5.5392,5.6892,5.8521,5.966,6.0246,6.0953,6.1937,6.1973,6.1885,6.1752,6.2317,6.2877,6.3343,6.3704,6.4191,6.474,6.4949,6.5013,6.5,6.4705,6.4589,6.4589,6.432,6.4012,6.3743,6.3743,6.2897,6.1686,6.2004,6.194,6.1669,6.1869,6.1805,6.1632,6.158,6.1632,6.1601,6.1015,6.0469,6.0039,6.0039,6.043,6.0859,6.0859,6.125,6.1719,6.1719,6.1719,6.1719,6.1719,6.1719,6.1679,6.1635,6.1517,6.1409,6.133,6.0727,5.965,5.7937,5.8461,5.8665,5.7203,5.7973,5.8396,5.755,5.7434,5.7011,5.5895,5.5511,5.4972,5.4126,5.301,5.2346,5.2346,5.1318,5.0827,5.1087,5.0548,4.9971,4.9394,4.9125,4.8432,4.7326,0.0,0.0,0.0,0.0,0.0,0.0,0.0,0.0,0.0,0.0,0.0,0.0,0.0,0.0,0.0,0.0,0.0,0.0,0.0,0.0,0.0,0.0,0.0,5.4439,5.5843,5.688,5.6917,5.9397,6.0662,5.9495,6.0076,6.1217,6.2899,6.1508,6.1084,6.233,6.3214,6.308,6.1765,6.422,6.5336,6.4838,6.5859,6.6783,6.76,6.8129,6.8385,6.8359,6.7513,6.7128,6.709,6.632,6.5513,6.4705,6.4705,6.4205,6.3457,6.3713,6.3195,6.2371,6.2721,6.2284,6.1554,6.1677,6.1719,6.1719,6.1719,6.1719,6.1719,6.1719,6.1719,6.1719,6.1719,6.1719,6.1719,6.1719,6.1719,6.1719,6.1719,6.1719,6.1678,6.152,6.1387,6.124,6.1048,6.0997,6.0988,6.0988,6.0902,6.0512,5.9665,5.955,0.0,5.8434,5.8357,5.8319,5.8319,5.755,5.6714,5.5857,5.4241,5.328,5.3241,5.1664,5.1087,5.1923,5.0394,4.951,4.9548,4.874,4.9125,5.0789,0.0,0.0,0.0,0.0,0.0,0.0,0.0,0.0,0.0,0.0,0.0,0.0,0.0,0.0,0.0,0.0,0.0,0.0,0.0,0.0,0.0,5.5175,5.6346,5.6534,5.7707,5.8754,5.9346,6.0637,6.1315,6.101,6.2266,6.3284,6.3746,6.3861,6.4129,6.4463,6.4709,6.4671,6.4273,6.4992,6.5491,6.5657,6.5951,6.6596,6.76,6.7751,6.8004,6.8385,6.8167,6.8052,6.8052,6.7821,6.759,6.7359,6.7359,6.6859,6.5921,6.4404,6.3648,6.3414,6.3666,6.3185,6.2374,6.1872,6.1719,6.1719,6.1719,6.1719,6.1719,6.1719,6.1719,6.1719,6.1719,6.1719,6.1719,6.1719,6.1719,6.1719,6.1719,6.1719,6.1678,6.152,6.1387,6.124,6.1048,6.0935,6.0828,6.0828,6.08,6.0704,6.0473,6.0435,0.0,5.9281,5.9165,5.8934,5.8357,5.8088,5.7857,5.7627,5.6011,5.4741,5.4164,5.251,5.1972,5.2818,5.2395,5.2433,5.3087,5.2856,5.2664,0.0,0.0,0.0,0.0,0.0,0.0,0.0,0.0,0.0,0.0,0.0,0.0,0.0,0.0,0.0,0.0,0.0,0.0,0.0,0.0,0.0,0.0,5.8156,5.9522,6.0115,6.0498,6.0872,6.1374,6.2438,6.3135,6.3135,6.4016,6.4861,6.5558,6.5411,6.5742,6.6769,6.6182,6.5815,6.5815,6.5815,6.5922,6.6186,6.6435,6.715,6.8296,6.8545,6.8947,6.9436,6.909,6.8936,0.0,6.8552,6.8385,6.8385,6.8385,6.809,0.0,0.0,0.0,0.0,0.0,6.3655,6.3189,6.289,6.2539,6.2226,6.2226,6.1992,6.1719,6.1719,6.1719,6.1719,6.1719,6.1953,6.2148,6.1797,6.2226,6.2617,6.1875,6.1992,6.2107,6.1598,6.1387,6.124,6.1048,6.0874,0.0,6.0781,6.0781,6.0781,6.0781,6.0781,6.0627,6.0127,6.005,5.9858,5.9396,5.9011,5.8819,5.8819,5.7242,0.0,0.0,0.0,5.3587,5.3741,5.3741,0.0,0.0,0.0,0.0,0.0,0.0,0.0,0.0,5.6319,5.628,0.0,0.0,0.0,0.0,0.0,0.0,0.0,0.0,0.0,0.0,0.0,0.0,0.0,0.0,0.0,0.0,6.1423,6.3246,6.409,6.3649,6.3184,6.3074,6.4494,6.5485,6.5558,6.5668,6.6329,6.7834,6.6659,6.6769,6.8935,0.0,0.0,0.0,0.0,6.6916,6.6916,6.7383,6.8279,6.9577,7.0041,7.0544,7.1014,7.0321,6.9937,6.9783,6.9013,6.8692,6.8692,6.8692,6.8615,6.8462,6.7817,6.6467,6.4875,6.4301,6.4059,6.3982,6.4218,0.0,0.0,6.3164,6.2578,6.1836,6.1836,6.1836,6.1836,6.1836,6.2461,6.2969,6.2187,6.3125,6.3906,6.2344,6.2578,6.2889,6.1988,6.1708,6.1537,6.132,6.1204,6.1097,6.0985,6.0858,6.0781,6.0781,6.0781,6.0781,6.0781,6.0781,6.0781,6.0781,0.0,0.0,5.9665,5.8204,5.755,5.828,5.6857,5.5665,5.4972,5.5126,5.5511,5.6126,5.6319,5.7473,5.9665,5.9858,6.0704,6.2139,5.8242,5.7665,0.0,0.0,0.0,0.0,0.0,0.0,0.0,0.0,0.0,0.0,0.0,0.0,0.0,0.0,0.0,6.086,6.2658,6.4127,6.4971,6.5485,6.5558,6.4897,6.5668,6.6512,6.7173,6.7834,6.8605,6.9559,6.9339,6.9376,6.9853,6.9559,6.9412,6.9412,6.9412,6.9412,6.9412,6.9512,7.014,7.1312,0.0,0.0,7.1937,7.1783,7.1321,7.0667,7.0475,7.0437,7.0437,7.0437,7.0014,6.9386,6.8657,6.7825,6.6925,6.6168,6.5515,6.4916,6.4333,6.4088,6.4062,6.4062,6.3476,6.2734,6.2734,6.2734,0.0,6.2734,6.3398,6.4023,6.3828,6.4062,6.4219,6.3867,6.3945,6.3982,6.367,6.3563,6.3453,6.3175,6.3099,6.2799,6.1982,6.1281,6.0781,6.0781,6.0781,6.0781,6.0781,6.0781,6.0781,6.0781,6.0666,6.055,6.055,5.9627,5.8819,5.8319,5.7973,5.7742,5.7588,5.8858,5.9319,5.8781,6.0127,6.0742,6.055,6.1897,6.2743,6.3051,6.155,6.1473,0.0,0.0,0.0,0.0,0.0,0.0,0.0,0.0,0.0,0.0,0.0,5.809,5.8529,0.0,6.2181,6.3796,6.5081,6.6035,6.6439,6.754,6.7687,6.6109,6.699,6.7871,6.8274,6.9045,6.9816,7.066,7.033,7.044,7.1248,7.055,7.0293,7.0697,7.0293,7.011,7.011,7.011,7.0682,7.1803,7.1803,7.2167,7.286,7.286,7.2629,7.2206,7.2206,7.2206,7.2168,7.1745,7.1052,7.0258,6.9885,6.9033,6.7891,6.7157,6.6704,6.6347,6.562,6.5175,6.4961,6.4961,6.4375,6.3633,6.3633,6.3633,6.3633,6.3633,6.4297,6.4844,6.4414,6.4961,6.539,6.4492,6.4648,6.4804,6.4326,6.4147,6.4002,6.374,6.3641,6.34,6.2802,6.2358,6.1781,6.0935,6.0781,6.0781,6.0781,6.0781,6.0781,6.0781,6.0781,6.0781,6.0781,6.0396,5.9973,5.9588,5.955,5.9742,6.0165,6.1012,6.1435,6.1396,6.2243,6.2474,6.205,6.2897,6.3743,6.4589,6.4205,6.4205,0.0,0.0,0.0,0.0,0.0,0.0,0.0,5.6639,5.7748,5.8547,6.047,6.2348,6.3332,6.4181,6.5254,6.6743,6.765,6.8164,6.8164,6.9265,6.9376,6.743,6.8348,6.9192,6.9376,6.9963,7.066,7.1468,7.1101,7.1358,7.2679,7.1505,7.1101,7.1762,7.0991,7.055,7.055,7.055,7.1087,7.2106,7.2251,7.2719,7.359,7.3702,7.3668,7.3514,7.3514,7.3399,7.3206,7.2476,7.1668,7.0898,7.0898,7.009,6.877,6.7917,6.7578,6.7482,6.6785,6.6214,6.5818,6.5859,6.5273,6.4531,6.4531,6.4531,6.4531,6.4531,6.5195,6.5703,6.5,6.5859,6.6562,6.5156,6.5351,6.5664,6.4961,6.4717,6.459,6.4398,6.4266,6.4072,6.3665,6.3596,6.3007,6.1293,6.105,6.0973,6.0819,6.0781,6.0781,6.0781,6.0781,6.0858,6.105,6.105,6.1127,6.1281,6.1281,6.1589,6.2293,6.232,6.2627,6.3269,6.3462,6.3628,6.382,6.3974,6.4859,6.6397,6.6397,6.6397,5.1014,5.2859,5.4698,5.7131,5.717,5.7647,0.0,6.2446,6.2559,6.3653,6.4856,6.5778,6.604,6.6632,6.7454,6.8458,6.9302,6.9816,6.9816,7.0,7.0,6.9743,6.9853,7.0257,7.0991,7.1109,7.1505,7.2312,7.2936,7.3377,7.356,7.3377,7.334,7.3413,7.2642,7.2239,7.2239,7.2239,7.2548,7.3218,7.3748,7.3965,7.3882,7.4351,7.4168,7.3514,7.3514,7.3053,7.2322,7.2245,7.1668,7.0898,7.0898,7.0783,7.0437,6.886,6.7922,6.7346,6.6665,6.6468,6.6522,6.6716,6.6172,6.5469,6.5469,6.5469,6.5469,6.5469,6.6094,6.6719,6.664,6.6758,6.6836,6.664,6.668,6.6719,6.664,6.6601,6.6518,6.6346,6.628,6.5933,6.4838,6.4638,6.4018,6.2213,6.1947,6.1678,6.0896,6.0781,6.0781,6.0781,6.0781,6.1089,6.1908,6.1947,6.2243,6.2974,6.3012,6.3051,6.3166,6.3166,6.3205,6.3308,6.4051,6.4859,6.559,6.632,6.7167,6.8129,6.8129,6.8129,5.4728,5.621,5.7434,6.0473,6.132,6.2119,6.4719,6.5872,6.6484,6.6844,6.7568,6.8073,6.7819,6.7994,6.8342,6.8741,6.9908,7.0624,7.0183,7.0513,7.0624,7.0146,7.0513,7.0954,7.1256,7.1725,7.2349,7.312,7.3487,7.3891,7.4368,7.4404,7.4404,7.4404,7.3634,7.3193,7.3193,7.2716,7.2789,7.3417,7.3651,7.4045,7.4613,7.4843,7.4941,7.4938,7.4938,7.4207,7.2976,7.2976,7.2129,7.0898,7.0898,7.0898,7.0744,6.959,6.9022,6.8665,6.742,6.7151,6.7283,6.6846,6.6556,6.6367,6.6367,6.6367,6.6445,6.6953,6.6992,6.7031,6.7539,6.7265,6.6991,6.7404,6.7475,6.7633,6.8141,6.7828,6.7471,6.7367,6.6967,6.6395,6.5687,6.5567,6.5092,6.3753,6.3128,6.2666,6.232,6.203,6.1652,6.1155,6.1144,6.1428,6.2038,6.2512,6.2935,6.3281,6.3308,6.3538,6.4051,6.4051,6.4512,6.5474,6.5859,6.6474,6.7359,6.7705,6.8321,6.9167,6.9167,6.9398,5.7533,5.8973,6.0319,6.3012,6.4474,6.5653,6.7102,6.8493,6.9509,6.9513,6.9663,6.9624,6.9131,6.8805,6.8645,6.9016,7.029,7.1136,7.0816,7.1064,7.1174,7.0807,7.1101,7.1366,7.1615,7.2165,7.2826,7.3634,7.3891,7.4368,7.5212,7.5249,7.5249,7.5249,7.4221,7.3707,7.3707,7.2899,7.2742,7.3145,7.3315,7.3827,7.4652,7.498,7.5323,7.5749,7.5932,7.5168,7.3822,7.3577,7.2629,7.1245,7.0975,7.0898,7.0821,7.0244,6.9964,6.9623,6.8199,6.7945,6.8097,6.7504,6.7285,6.7265,6.7265,6.7109,6.7031,6.7656,6.7578,6.7383,6.8047,6.789,6.7693,6.8153,6.8307,6.8513,6.9078,6.8739,6.8245,6.8013,6.7466,6.6869,6.6283,6.617,6.5915,6.5074,6.4436,6.3783,6.3181,6.268,6.2135,6.1527,6.1629,6.1936,6.2503,6.3232,6.3782,6.4012,6.4243,6.4628,6.5243,6.5513,6.6205,6.7436,6.7475,6.7898,6.8783,6.8783,6.9206,7.0014,7.0014,7.036,5.8511,6.0666,6.3397,6.432,6.5782,6.7535,6.9508,7.0612,7.139,7.1981,7.1228,7.0369,7.004,6.9,6.8597,6.9753,7.0618,7.1443,7.2307,7.1798,7.1578,7.2349,7.1762,7.1615,7.2386,7.2496,7.2826,7.3634,7.4441,7.5212,7.6019,7.6056,7.6056,7.6056,7.4515,7.3707,7.3707,7.2899,7.2496,7.2524,7.3119,7.3417,7.3516,7.4612,7.5109,7.5145,7.5733,7.5476,7.4591,7.3822,7.2976,7.2091,7.1245,7.0898,7.0898,7.086,7.036,6.9618,6.8822,6.8705,6.8915,6.9081,6.8689,6.8164,6.8164,6.7578,6.6914,6.6914,6.7539,6.8164,6.8203,6.875,6.9295,6.9207,6.9318,6.9411,6.9246,6.928,6.9101,6.8359,6.8164,6.776,6.6591,6.6381,6.6252,6.5919,6.582,6.505,6.2894,6.2142,6.1805,6.1805,6.226,6.291,6.3688,6.4241,6.4936,6.5782,6.6551,6.7013,6.7013,6.7859,6.8321,6.8359,6.8359,6.8783,6.9667,6.9667,7.009,7.086,7.086,7.0898,6.0121,6.182,6.3584,6.5559,6.6906,6.8028,6.9266,7.0629,7.1412,7.069,6.9724,6.8728,6.7653,6.6673,6.6266,6.72,6.8536,6.9926,7.1376,7.1355,7.1284,7.1668,7.1945,7.1982,7.1725,7.2202,7.3046,7.4404,7.4771,7.5506,7.6796,7.69,7.69,7.69,7.5836,7.5285,7.5285,7.4478,7.3817,7.3303,7.3352,7.3391,7.3442,7.4591,7.5109,7.5127,7.5733,7.5515,7.4668,7.4399,7.3476,7.2168,7.186,7.1398,7.0898,7.0898,7.0744,7.0373,6.9604,6.9452,6.9511,6.9137,6.8925,6.8882,6.9022,6.8867,6.875,6.9258,6.9219,6.914,6.9726,6.9648,6.9568,6.9952,7.0021,7.0098,7.0637,7.0194,6.9682,6.9543,6.9055,6.8488,6.7937,6.742,6.6971,6.6742,6.5929,6.497,6.392,6.2861,6.2167,6.2147,6.2617,6.3192,6.3733,6.5315,6.6359,6.6667,6.7475,6.7975,6.7975,6.8244,6.8667,6.9244,6.9244,6.9667,7.0514,7.0514,7.0629,7.0898,7.0898,7.1206,6.1976,6.3502,6.4745,6.637,6.7401,6.813,6.8683,6.9634,7.0107,6.9034,6.7862,6.6602,6.5189,6.4248,6.408,6.5382,6.6772,6.8539,7.1182,7.1023,7.1158,7.2416,7.2532,7.2422,7.2202,7.2642,7.3377,7.4404,7.4735,7.5506,7.6827,7.7127,7.7273,7.7273,7.6533,7.6093,7.6093,7.5028,7.4074,7.3266,7.3148,7.3066,7.3119,7.4299,7.479,7.4866,7.5654,7.5668,7.513,7.4822,7.4053,7.3053,7.2783,7.2129,7.136,7.136,7.1168,7.0821,7.0321,7.023,7.0302,6.9847,6.9718,6.9709,6.9827,6.9685,6.957,7.0117,7.0078,7.0,7.0547,7.0547,7.0467,7.085,7.0814,7.0892,7.1375,7.0945,7.0421,7.0244,6.9752,6.9211,6.8774,6.8291,6.787,6.7707,6.6767,6.5909,6.5332,6.3937,6.3072,6.3345,6.375,6.4253,6.482,6.6533,6.7552,6.7552,6.8398,6.8859,6.8859,6.9129,6.9552,7.0129,7.0129,7.0398,7.0898,7.0898,7.0898,7.0898,7.0898,7.136,6.3763,6.5457,6.6708,6.6639,6.7205,6.7728,6.772,6.767,6.7479,6.7033,6.5596,6.4021,6.2718,6.1782,6.1949,6.4334,6.5454,6.744,7.1663,7.0991,7.1267,7.4535,7.3597,7.2973,7.367,7.3744,7.3744,7.3744,0.0,7.5285,7.613,7.69,7.7273,7.7273,7.657,7.6166,7.6166,7.4551,7.3377,7.2642,7.2532,7.2524,7.261,7.3747,7.4315,7.4401,7.5501,7.6015,7.5938,7.513,7.4745,7.463,7.386,7.3014,7.2245,7.2206,7.1668,7.0975,7.0937,7.1029,7.1201,7.1211,7.0898,7.0544,7.0547,7.0052,6.953,6.9569,7.0155,7.0741,7.0741,7.1366,7.1949,7.1741,7.1679,7.1647,7.1505,7.1496,7.1216,7.0392,7.0244,6.9985,6.9085,6.8942,6.8928,6.8798,6.8304,6.7669,6.69,6.5268,6.4471,6.5279,6.5543,6.5974,6.6786,6.7852,6.8475,6.8475,6.9283,6.9744,6.9744,7.0475,7.0898,7.0898,7.0898,7.0898,7.0898,7.0898,7.0937,7.0975,7.0937,7.1398,6.2599,6.4283,6.5542,6.5455,6.4916,6.4525,6.4827,6.4266,6.3551,6.3177,6.1796,6.0412,5.9451,5.9452,6.0156,6.1953,6.4349,6.7221,7.0771,7.2029,7.3184,7.4719,7.5065,7.5028,7.4625,7.4588,7.4588,7.4588,7.4808,7.5542,7.6937,7.7163,7.7273,7.7273,7.709,7.698,7.698,7.5395,7.4515,7.4294,7.3083,7.2742,7.3198,7.3957,7.4527,7.4943,7.5686,7.6015,7.5976,7.5745,7.5284,7.4668,7.4476,7.3899,7.3091,7.2437,7.2052,7.1783,7.1129,7.0914,7.0991,7.1148,7.1116,7.1054,7.12,7.1104,7.0975,7.0975,7.1136,7.1292,7.1292,7.1448,7.1594,7.1554,7.1449,7.1314,7.129,7.1158,7.1,7.0768,7.0831,7.0649,6.9791,6.967,6.9623,6.9592,6.9143,6.8309,6.6975,6.6095,6.5659,6.5882,6.6228,6.673,6.7355,6.8593,6.936,6.936,7.0129,7.0591,7.0591,7.0783,7.0898,7.0898,7.0898,7.0898,7.0898,7.0898,7.1245,7.186,7.1206,7.2052,6.2832,6.4081,6.4817,6.3904,6.2915,6.1958,6.0978,6.0421,5.9884,5.9082,5.829,5.7603,5.7123,5.7289,5.8287,6.0419,6.3165,6.6415,7.038,7.2109,7.3728,7.5715,7.6056,7.5909,7.5469,7.5432,7.5432,7.5432,7.5432,7.5836,7.6754,7.709,7.7273,7.7273,7.7273,7.7273,7.7185,7.6226,7.5533,7.5161,7.3896,7.3467,7.3818,7.4384,7.4828,7.5127,0.0,7.6015,7.6015,7.6015,7.5707,7.5284,7.5284,7.4784,7.3937,7.3091,7.2514,7.2091,7.1206,7.0898,7.0925,7.1041,7.1115,7.1203,7.1344,7.1412,7.1478,7.1478,7.1478,7.1478,7.1478,7.1478,7.1478,7.1478,7.1361,7.1221,7.1221,7.1026,7.0939,7.1016,7.1197,7.1185,7.0672,7.0427,7.0201,7.0145,6.9843,6.9245,6.8052,6.7435,6.719,6.7466,6.7636,6.8008,6.8646,6.9649,7.0244,7.0244,7.0667,7.0898,7.0898,7.0898,7.0898,7.0898,7.0898,7.0898,7.0898,7.0898,7.136,7.2168,7.1706,7.2629,6.3434,6.4103,6.4113,6.2115,6.0847,5.9525,5.7233,5.6661,5.6317,5.5412,5.5214,5.531,5.5377,5.5581,5.663,5.9505,6.2107,6.5477,7.0168,7.178,7.3643,7.6772,7.6644,7.6276,7.6276,7.6276,7.6276,7.6276,7.6276,7.6276,7.6276,7.6937,7.7335,7.7457,7.7457,7.7435,7.7386,7.7034,7.6444,7.5636,7.4843,7.445,7.4422,7.4905,7.5145,7.5254,7.5787,0.0,7.6015,7.6015,7.6015,7.6015,7.6015,7.5476,7.4591,7.3822,7.2937,7.2091,7.1206,7.0898,7.0898,7.0898,7.1029,7.1158,7.1158,7.129,7.1404,7.1404,7.1404,7.1404,7.1404,7.1404,7.1404,7.1404,7.129,7.1158,7.1158,7.1026,7.1004,7.1184,7.1378,7.1484,7.1476,7.1057,7.0719,7.0526,7.053,7.0313,6.9634,6.9007,6.8836,6.9359,6.9183,6.9382,7.0157,7.0637,7.0898,7.0898,7.0898,7.0898,7.0898,7.0898,7.0898,7.0898,7.0898,7.0898,7.0898,7.0898,7.1398,7.236,7.2245,7.3168,6.2638,6.2548,6.2042,6.0384,5.8,5.6054,5.6263,5.4194,5.276,5.4376,5.3754,5.3112,5.3754,5.4905,5.6494,5.8829,6.1884,6.5357,6.9424,7.2018,7.4182,7.6063,7.679,7.709,7.709,7.709,7.709,7.709,7.709,7.709,7.709,7.72,7.757,7.809,7.8118,7.8357,7.8808,7.8134,7.7312,7.6482,7.5674,7.5153,7.498,7.5054,7.5396,7.5833,7.5947,0.0,7.6015,7.6015,7.6015,7.6015,7.6015,7.5476,7.4591,7.3822,7.2937,7.2091,7.1206,7.0898,7.0898,7.0898,7.09,7.0953,7.0953,7.0992,7.1004,7.1004,7.1004,7.1004,7.1004,7.1004,7.1004,7.1004,7.0992,7.0953,7.0953,7.1038,7.1174,7.1193,7.134,7.1465,7.1272,7.1155,7.1115,7.1087,7.1178,7.1183,7.0922,7.0261,6.9836,6.9946,6.9908,7.0145,7.0695,7.0857,7.0898,7.0898,7.0898,7.0898,7.0898,7.0898,7.0898,7.0898,7.0898,7.0898,7.0898,7.0898,7.1706,7.3245,7.2552,7.3476,6.1562,6.1339,6.0671,5.8323,5.6486,5.4988,5.3637,5.2402,5.1694,5.2487,5.2135,5.1961,5.2739,5.3822,5.5144,5.6987,6.0023,6.3697,6.8037,7.0871,7.3377,7.5799,7.6827,7.7273,7.7273,7.7273,7.7273,7.7273,7.7273,7.7273,7.7273,7.7273,7.7457,7.7768,7.8432,7.8701,7.8534,7.8364,7.7836,7.6978,7.6157,7.5709,7.5567,7.5567,7.5718,7.6015,7.6015,0.0,7.6015,7.6015,7.6015,7.5938,7.5515,7.5091,7.4553,7.3283,7.2552,7.2091,7.1206,7.0898,7.0898,7.0898,7.0898,7.0898,7.0898,7.0898,7.0898,7.0898,7.0898,7.0898,7.0898,7.0898,7.0898,7.0898,7.0898,7.0898,7.0898,7.1137,7.1358,7.1377,7.1472,7.1555,7.1459,7.1062,7.0788,7.0788,7.0525,7.0413,7.0615,7.03,7.0197,7.0493,7.0509,7.0814,7.15,7.1168,7.1091,7.1552,7.1168,7.094,7.1038,7.0953,7.0953,7.1038,7.0953,7.0898,7.0898,7.136,7.2245,7.3514,7.3514,7.4399,6.0481,6.0285,5.9502,5.6541,5.5377,5.4283,5.1443,5.1108,5.126,5.0946,5.0928,5.1217,5.1928,5.2706,5.3751,5.5421,5.8246,6.1859,6.6416,6.9508,7.2386,7.5249,7.6607,7.7273,7.7273,7.7273,7.7273,7.7273,7.7273,7.7273,7.7273,7.7273,7.7316,7.7451,7.8404,7.8633,7.804,7.8331,7.8092,7.7284,7.6592,7.6169,7.6015,7.6015,7.6015,7.6015,7.6015,0.0,0.0,7.5784,7.5707,7.563,7.4784,7.4322,7.4014,7.2668,7.2091,7.1822,7.1129,7.0898,7.0898,7.0898,7.0898,7.0898,7.0898,7.0898,7.0898,7.0898,7.0898,7.0885,7.0762,7.0748,7.0748,7.0748,7.0805,7.0898,7.0898,7.119,7.1435,7.1393,7.1497,7.154,7.1384,7.0648,7.0033,6.9894,6.9414,6.9263,6.9751,7.0016,7.034,7.0848,7.0898,7.1168,7.186,7.1283,7.1206,7.186,7.1312,7.1053,7.1211,7.1097,7.1163,7.1482,7.1335,7.1325,7.1475,7.2129,7.2937,7.3769,7.4399,7.5168,5.9687,5.9296,5.8358,5.5717,5.4061,5.2729,5.1435,5.0515,5.0117,5.0992,5.0646,5.0439,5.1183,5.1928,5.3138,5.5349,5.782,6.0891,6.48,6.8786,7.1945,7.3707,7.5946,7.7273,7.7273,7.7273,7.7273,7.7273,7.7273,7.7273,7.7273,7.7273,7.7447,7.7833,7.7974,7.8166,7.843,7.8485,7.8092,7.7284,7.7207,7.6784,7.6015,7.6015,7.6015,7.6015,7.6015,0.0,0.0,7.5168,7.4822,7.4745,7.3937,7.3129,7.2399,7.2245,7.1706,7.1014,7.0937,7.0898,7.0898,7.0898,7.0898,7.0898,7.0898,7.0898,7.0898,7.0898,7.0898,7.0791,7.0298,7.0162,7.0162,7.0162,7.0539,7.0898,7.0898,7.1074,7.1164,7.0975,7.1122,7.105,7.0348,6.951,6.8772,6.8288,6.8334,6.8535,6.8858,6.9759,7.0515,7.086,7.0898,7.0937,7.1014,7.0937,7.0937,7.1014,7.1112,7.119,7.1221,7.1378,7.1736,7.2383,7.2351,7.2669,7.3283,7.336,7.3822,7.4591,7.4668,7.5168,5.8257,5.7803,5.6917,5.4362,5.3434,5.2566,5.0405,5.0281,5.0592,5.0578,4.9965,4.9661,5.0405,5.115,5.2243,5.4069,5.597,5.8552,6.2457,6.5301,6.8274,7.1835,7.3964,7.5868,7.7698,7.7903,7.7718,7.7199,7.7162,7.6778,7.5873,7.6313,7.6602,7.6656,7.6992,7.719,7.719,7.7585,7.7361,7.6515,7.6515,7.6322,7.6015,7.6015,7.6015,7.6015,7.6015,0.0,0.0,7.4861,7.4399,7.3899,7.3053,7.2514,7.2129,7.1591,7.1206,7.0898,7.0898,7.0898,7.0898,7.0898,7.0898,7.0898,7.0898,7.0666,7.0432,7.0432,7.02,6.9903,6.9683,6.9847,7.0112,7.0112,7.0509,7.0898,7.0898,7.0812,7.0679,7.0601,7.0485,7.0128,6.9303,6.8757,6.822,6.7473,6.7501,6.7929,6.8707,6.9348,7.0047,7.0819,7.0898,7.1091,7.1629,7.1206,7.1184,7.1808,7.1468,7.1278,7.1491,7.1389,7.1741,7.2599,7.2413,7.2688,7.3514,7.4014,7.4399,7.4707,7.5245,7.5668,5.663,5.6548,5.5942,5.3613,5.3228,5.282,5.0182,5.0413,5.1014,5.0236,4.9695,4.9492,4.9999,5.0879,5.1959,5.3258,5.4965,5.735,6.1091,6.3246,6.5888,6.9779,7.1784,7.3841,7.6319,7.7169,7.734,7.6744,7.6733,7.6077,7.4617,7.5235,7.5653,7.5695,7.6301,7.644,7.6223,7.667,7.6592,7.6015,7.6015,7.6015,7.6015,7.6015,7.6015,7.5976,7.5745,0.0,0.0,7.4168,7.363,7.3014,7.2168,7.1822,7.1745,7.1129,7.0898,7.0898,7.0898,7.0898,7.0898,7.0898,7.0898,7.0885,7.0695,7.0378,7.0112,7.0112,6.9607,6.9106,6.9272,6.9588,6.9883,7.0078,7.0509,7.0871,7.0681,7.046,7.0277,7.0118,6.9858,6.9377,6.83,6.8032,6.7597,6.6489,6.6822,6.7541,6.8468,6.9189,6.9997,7.0876,7.0979,7.121,7.1758,7.13,7.1309,7.2052,7.1628,7.1452,7.1686,7.1516,7.199,7.3145,7.2947,7.3335,7.4333,7.4911,7.5127,7.5091,7.5707,7.6015,5.4972,5.5554,5.5647,5.3766,5.3621,5.3316,5.1185,5.0926,5.1014,5.0236,5.0067,5.0067,5.0101,5.1285,5.254,5.3364,5.5418,5.7985,6.1165,6.3723,6.5888,6.754,6.9603,7.1361,7.2443,7.4532,7.5824,7.5824,7.5824,0.0,7.3802,7.43,7.4898,7.5494,7.6004,7.6203,7.6,7.6015,7.6015,7.6015,7.6015,7.6015,7.6015,7.6015,7.6015,0.0,0.0,0.0,0.0,7.2899,7.2206,7.2129,7.1245,7.0898,7.0898,7.0898,7.0898,7.0898,7.0898,7.0898,7.0898,7.0898,7.0898,7.0791,7.0282,7.0112,7.0112,7.0112,6.9315,6.8614,6.9169,6.9313,6.9452,6.9954,7.0509,7.0762,7.0211,7.0112,6.9936,6.9433,6.9313,6.8865,6.7462,6.7226,6.6708,6.5222,6.6286,6.7399,6.7919,6.9389,7.0607,7.1141,7.1211,7.1142,7.0925,7.1085,7.1211,7.1221,7.151,7.1689,7.1689,7.1904,7.2726,7.4258,7.4293,7.4943,7.6256,7.6295,7.6171,7.5976,7.6015,7.6015,5.2504,5.3144,5.3414,5.1345,5.1296,5.1284,4.9643,4.9892,5.0371,5.0135,5.0101,5.0236,5.0777,5.1657,5.2895,5.4718,5.602,5.7756,6.035,6.2812,6.5176,6.7413,7.1963,7.5,7.5357,7.6752,7.691,7.5121,7.5344,7.4983,7.3554,7.4086,7.447,7.467,7.5208,7.5664,7.6015,7.6015,7.6015,7.6015,7.6015,7.6015,7.5976,7.5399,7.513,0.0,0.0,0.0,0.0,7.2399,7.186,7.1283,7.1014,7.0898,7.0898,7.0898,7.0898,7.0898,7.0898,7.0898,7.0898,7.0898,7.0898,7.0871,7.0681,7.0129,6.9413,6.8682,6.8487,6.8558,6.8705,6.9313,6.9883,7.0061,7.0509,7.0762,7.0233,6.9811,6.9413,6.8884,6.8464,6.7871,6.685,6.6642,6.6395,6.5669,6.6582,6.7686,6.8621,6.9822,7.0813,7.1365,7.1428,7.1335,7.1104,7.1169,7.1252,7.142,7.1609,7.1756,7.1907,7.2401,7.3197,7.4297,7.4767,7.5417,7.6295,7.6295,7.621,7.6015,7.6015,7.6015,5.0338,5.0894,5.1188,5.0125,5.0158,5.0258,4.936,4.9651,5.0101,5.0101,5.0101,5.0236,5.071,5.1847,5.3149,5.4271,5.5549,5.7118,5.9188,6.1551,6.4348,6.7889,7.1788,7.4544,7.5416,7.6348,7.6313,7.4915,7.5161,7.487,7.3808,7.3991,7.4159,7.4239,7.5102,7.5731,7.6108,7.6197,7.6197,7.6108,7.5761,7.5578,7.5476,7.463,7.4245,0.0,0.0,0.0,0.0,7.186,7.1398,7.0898,7.0898,7.0898,7.0898,7.0898,7.0898,7.0898,7.0898,7.0898,7.0898,7.0898,7.0762,7.0539,7.0346,6.9811,6.9127,6.8235,6.8235,6.859,6.8999,6.9607,7.0145,7.0346,7.0652,7.0762,7.0233,6.9829,6.9452,6.8891,6.8558,6.8037,6.7149,6.7293,6.7306,6.6827,6.7756,6.8809,6.961,7.0493,7.123,7.1527,7.1577,7.1536,7.1388,7.1373,7.1425,7.1572,7.1728,7.1862,7.1992,7.2723,7.3527,7.4384,7.5159,7.5875,7.6544,7.6351,7.621,7.6015,7.6015,7.6169,0.0,4.8748,4.9052,4.9627,4.9864,4.9963,5.0026,5.006,0.0,5.0224,5.0193,5.0195,5.0331,5.2077,5.329,5.2705,5.4443,5.6416,5.806,6.0482,6.3925,6.8859,6.993,7.1104,7.3207,7.3896,7.4437,7.4847,7.4902,7.4695,7.419,7.3954,7.387,7.4048,7.541,7.6172,7.6211,7.641,7.6393,7.6206,7.5326,7.478,7.4591,7.3783,7.3399,0.0,0.0,0.0,0.0,7.1245,7.0898,7.0898,7.0898,7.0898,7.0898,7.0898,7.0898,7.0898,7.0898,7.0898,7.0898,7.0898,7.0539,7.0061,6.953,6.9313,6.9148,6.8637,6.8535,6.8818,6.9829,7.0129,7.0282,7.0777,7.0898,7.0762,7.0233,7.0112,6.9918,6.9413,6.9295,6.906,6.8257,6.88,6.915,6.8546,6.9597,7.0488,7.0729,7.1327,7.1738,7.1738,7.1738,7.1738,7.1738,7.1693,7.1689,7.1689,7.1904,7.1992,7.1992,7.289,7.3789,7.457,7.5507,7.6274,7.6872,7.6484,7.6185,7.6015,7.6015,7.6476,4.4592,0.0,4.7936,4.6989,4.7597,4.8561,0.0,4.9608,5.0339,5.1466,5.1292,5.1296,5.2402,5.3103,5.3801,5.4769,5.6291,5.7933,5.9633,6.3566,6.7358,7.0232,7.1612,7.2349,7.2485,7.323,7.3435,7.2837,7.3037,7.3112,7.3003,7.2942,7.3144,7.364,7.4217,7.4872,7.5533,7.558,7.55,7.5298,7.4436,7.3918,7.3745,7.2899,7.2514,0.0,0.0,0.0,7.1206,7.0975,7.0898,7.0898,7.0898,7.0898,7.0898,7.0898,7.0898,7.0898,7.0898,7.0898,7.0898,7.0898,7.0805,7.0622,7.0078,6.9353,6.866,6.8558,6.8818,6.9272,6.9918,7.0394,7.0748,7.0885,7.0898,7.0762,7.0233,7.0112,6.9918,6.9413,6.9399,6.9447,6.9263,6.9513,6.9791,6.9902,7.0416,7.0926,7.1279,7.1667,7.1949,7.1949,7.1949,7.1949,7.1949,7.1802,7.1689,7.1689,7.1904,7.1992,7.1992,7.3476,7.4375,7.4609,7.5822,7.6493,7.6683,7.6277,7.6062,7.6015,7.6015,7.6476,4.3308,4.5365,4.7293,4.6819,4.7529,4.8523,4.9234,4.9423,4.9643,5.0435,5.0576,5.0886,5.1701,5.2724,5.3868,5.5031,5.6475,5.8545,6.1658,6.4664,6.767,7.0673,7.1391,7.1736,0.0,7.2212,7.2238,7.1989,7.2355,7.2612,7.2612,7.2494,7.2601,7.3047,7.3229,7.3767,7.4707,7.4894,7.4889,7.4685,7.3791,7.3276,7.3021,7.2134,7.1711,0.0,0.0,0.0,7.0898,7.0898,7.0898,7.0898,7.0898,7.0898,7.0898,7.0898,7.0898,7.0898,7.0898,7.0898,7.0898,7.0898,7.0898,7.0791,7.0282,6.953,6.8913,6.9169,6.9272,6.9492,7.0266,7.0666,7.0898,7.0898,7.0898,7.0846,7.0626,7.0588,7.0536,7.034,7.0322,7.0346,7.0346,7.0365,7.0446,7.0741,7.1003,7.1295,7.1555,7.1833,7.1992,7.1992,7.1992,7.1992,7.1992,7.1907,7.1856,7.1856,7.1835,7.1861,7.1861,7.354,7.4876,7.5781,7.6095,7.6381,7.6582,7.6371,7.6185,7.6015,7.6015,7.6669,4.3464,4.5427,4.7194,4.7441,4.8363,4.9305,4.9841,4.9583,4.9263,4.9361,4.9845,5.031,5.0467,5.229,5.4012,5.4748,5.6429,5.9195,6.3654,6.5055,6.6801,7.009,7.0228,0.0,7.1275,7.0975,7.0952,7.1433,7.1864,7.214,7.221,7.1981,7.198,7.2269,7.2295,7.2696,7.3581,7.4092,7.4279,7.4043,7.3204,7.2612,7.2295,7.1531,7.1097,7.0898,0.0,0.0,7.0898,7.0898,7.0898,7.0898,7.0898,7.0898,7.0898,7.0898,7.0898,7.0898,7.0898,7.0898,7.0898,7.0898,7.0898,7.0805,7.0346,6.9829,6.953,7.0078,6.9775,6.955,7.0622,7.0898,7.0898,7.0898,7.09,7.0979,7.1169,7.1213,7.1299,7.1488,7.1375,7.1263,7.124,7.1127,7.1084,7.1214,7.1423,7.1554,7.1699,7.1864,7.1992,7.1992,7.1992,7.1992,7.1992,7.1992,7.1992,7.1951,7.1805,7.1764,7.1862,7.3325,7.5004,7.6912,7.6211,7.6134,7.6663,7.6597,7.641,7.6062,7.6079,7.6966,4.4647,4.6957,4.8218,4.6339,4.8382,5.0642,4.9985,5.0748,5.1752,5.2382,5.2104,5.1943,5.2677,5.4242,5.5491,5.561,5.8633,6.1937,6.4657,6.6324,6.756,6.8141,6.9136,6.9669,6.9384,6.9467,6.9697,7.0004,6.988,7.0005,7.0459,7.0446,7.0632,7.1119,7.1324,7.1474,7.163,7.2695,7.3189,7.301,7.2275,7.1716,7.1415,7.126,7.1097,7.0898,0.0,7.0898,7.0898,7.0898,7.0898,7.0898,7.0898,7.0898,7.0898,7.0898,7.0898,7.0898,7.0898,7.0898,7.0898,7.0898,7.0898,7.0885,7.0791,7.0378,7.0095,7.0622,7.0061,6.955,7.0622,7.0898,7.0898,7.0898,7.1041,7.1169,7.1211,7.1344,7.1449,7.1478,7.1575,7.1594,7.148,7.1512,7.1562,7.1471,7.1569,7.1666,7.1693,7.1864,7.1992,7.1992,7.1992,7.1992,7.1992,7.1992,7.1949,7.1753,7.1738,7.1963,7.2627,7.3012,7.4041,7.5813,7.5697,7.6028,7.6856,7.6696,7.6493,7.6277,7.6429,7.7312,4.3687,4.6345,4.8277,4.7913,5.041,5.2888,5.2438,5.2513,5.2791,5.3124,5.3266,5.3466,5.3877,5.4901,5.6288,5.8053,6.0963,6.3683,6.5615,6.6582,6.721,6.7677,0.0,6.8535,6.8265,6.837,6.8506,6.8615,6.9027,0.0,6.9664,7.0233,7.0637,7.0898,7.0717,7.076,7.1053,7.1115,7.1474,7.2107,7.1755,7.1471,7.1221,7.1221,7.1097,7.0898,0.0,7.0898,7.0898,7.0898,7.0898,7.0898,7.0898,7.0979,7.105,7.105,7.0979,7.0898,7.0898,7.0898,7.0898,7.0898,7.0898,7.0898,7.0898,7.0524,7.0195,7.0762,7.033,6.9901,7.0719,7.0898,7.0898,7.0898,7.0979,7.1108,7.1326,7.142,7.1536,7.1757,7.1748,7.1677,7.1625,7.1597,7.1572,7.1491,7.1619,7.1689,7.1689,7.1864,7.1992,7.1992,7.1992,7.1992,7.1992,7.1992,7.1861,7.1609,7.1479,7.1777,7.2613,7.2236,7.3157,7.556,7.5147,7.5579,7.6919,7.6824,7.6677,7.6475,7.705,7.7831,4.3155,4.5694,4.8158,4.9901,5.2249,5.4255,5.4436,5.3827,5.3314,5.3702,5.4252,5.4678,5.4773,5.5696,5.7491,6.0539,6.2776,6.4604,6.6035,6.6219,6.6439,6.7063,6.7136,6.7136,6.7136,6.7283,6.7393,6.7393,0.0,0.0,6.9292,7.0217,7.0695,7.0695,7.0314,7.025,7.0509,6.9845,7.0115,7.1223,7.1145,7.1019,7.0819,7.0976,7.0913,7.0734,7.0857,7.0898,7.0898,7.0898,7.0898,7.0898,7.0898,7.1029,7.1221,7.1221,7.112,7.0966,7.0925,7.0898,7.0898,7.0898,7.0689,7.0441,7.0563,7.0103,6.9622,7.0148,7.0147,7.0133,7.0752,7.0898,7.0898,7.0898,7.0927,7.1038,7.134,7.1485,7.1609,7.1862,7.1795,7.1696,7.1644,7.1523,7.1443,7.1443,7.151,7.1586,7.1634,7.1795,7.1903,7.1949,7.1949,7.1951,7.1992,7.1951,7.1805,7.156,7.1314,7.1492,7.2161,7.1531,7.2466,7.5128,7.4533,7.5082,7.6829,7.6897,7.6819,7.6627,7.7367,7.8051,4.4458,4.6346,4.8206,5.1114,5.2574,5.3491,5.4224,5.3769,5.3628,5.5097,5.5464,5.5542,5.5629,5.75,5.9806,6.2223,6.3489,6.4383,6.5264,6.5411,6.5411,6.5485,6.5485,6.5485,6.5485,6.6145,6.6586,6.6586,0.0,0.0,6.9272,6.9829,7.0145,7.0145,7.0129,6.9865,6.9433,6.9335,6.9711,7.0478,7.017,6.9903,6.9715,7.0249,7.0345,7.0179,7.0666,7.0898,7.0898,7.0898,7.0898,7.0898,7.0898,7.1029,7.1221,7.1221,7.1201,7.1148,7.0979,7.0898,7.0898,7.0898,7.0056,6.9136,6.9648,6.8838,6.7865,6.8444,6.914,6.9896,7.0692,7.0898,7.0898,7.0898,7.1026,7.1201,7.1241,7.1459,7.1686,7.1735,7.1705,7.1651,7.1523,7.1356,7.1209,7.1209,7.1243,7.1289,7.1477,7.1524,7.1577,7.1693,7.1738,7.1805,7.1992,7.1813,7.1696,7.1682,7.1358,7.1221,7.1299,7.1221,7.2055,7.3888,7.3986,7.4866,7.6605,7.6817,7.6817,7.66,7.7068,7.7599,4.3822,4.6326,4.872,5.0753,5.2601,5.4179,5.495,5.5684,5.6492,5.7629,5.7472,5.7018,5.6536,5.7975,5.9855,6.1749,6.2746,6.3759,6.5118,6.5301,6.5301,6.5301,6.5301,6.5301,6.5301,6.5595,6.5742,0.0,0.0,0.0,6.7708,6.8729,6.9065,6.8548,6.8413,6.8173,6.7805,6.7165,6.7135,6.7732,6.8959,6.9223,6.8697,6.9742,6.9878,6.942,7.0436,7.0629,7.0206,7.0706,7.0591,7.0169,7.0356,7.0192,6.9772,6.9902,6.9795,6.9564,6.9496,6.941,6.936,6.936,6.8995,6.8642,6.8819,6.8534,6.8258,6.9012,6.9052,6.909,6.9937,7.0514,7.0898,7.0898,7.0966,7.1038,7.118,7.1296,7.1411,7.156,7.1577,7.1555,7.1525,7.1453,7.1383,7.1383,7.1383,7.1399,7.1491,7.1478,7.1505,7.1572,7.1651,7.1761,7.1992,7.1834,7.1714,7.1714,7.1502,7.1403,7.1403,7.1403,7.2251,7.4086,7.4042,7.4924,7.6775,7.6738,7.6756,7.6807,7.751,7.8242,4.3863,4.6379,4.8972,5.063,5.234,5.3959,5.517,5.6209,5.718,5.8276,5.7861,5.7262,5.6978,5.7954,5.9294,6.0648,6.1749,6.2918,6.4296,6.4505,6.4505,6.4505,6.4505,6.4505,6.4505,6.4751,6.4934,0.0,0.0,0.0,0.0,6.7618,6.7876,6.7162,6.6978,6.6747,6.6406,6.5669,6.5458,6.5872,6.7367,6.7732,6.7251,6.849,6.8745,6.8303,6.9572,6.9821,6.9321,6.9898,6.9797,6.9381,6.9741,6.9523,6.8984,6.9085,6.8936,6.8673,6.8584,6.8497,6.8385,6.8385,6.8125,6.7788,6.7935,6.7703,6.7519,6.8294,6.8244,6.8129,6.8706,6.9706,7.0514,7.0514,7.0706,7.0927,7.1074,7.1158,7.1233,7.1395,7.1428,7.1428,7.1428,7.137,7.1317,7.1317,7.1317,7.1317,7.1317,7.1317,7.1378,7.151,7.1624,7.1761,7.1992,7.1811,7.1689,7.1689,7.1562,7.1474,7.1409,7.1414,7.2155,7.368,7.3909,7.4775,7.6395,7.6615,7.676,7.6919,7.7573,7.8162,4.4942,4.6676,4.8826,5.0984,5.1768,5.2621,5.473,5.4854,5.495,5.6562,5.6259,5.5943,5.6721,5.7535,5.8359,5.9168,6.0585,6.1851,6.2668,6.278,6.2805,6.2805,6.2805,6.2805,6.2805,6.3601,6.4115,0.0,0.0,0.0,0.0,6.6582,6.6623,6.6083,6.6097,6.5811,6.5301,6.5301,6.5301,6.5301,6.5301,6.5301,6.5327,6.6347,6.6785,6.6843,6.7906,6.8385,6.8385,6.8398,6.847,6.8626,6.9021,6.9188,6.9139,6.8939,6.8877,6.8822,6.8467,6.8398,6.8385,6.8385,6.7496,6.6491,6.6946,6.6155,6.523,6.5768,6.6474,6.709,6.709,6.8398,6.9667,6.9706,7.0283,7.0898,7.0898,7.105,7.1172,7.1211,7.1211,7.1211,7.1211,7.1041,7.0898,7.0898,7.0898,7.0898,7.0898,7.0898,7.1038,7.1481,7.1624,7.1761,7.1992,7.1809,7.1689,7.1689,7.1572,7.1399,7.1218,7.1206,7.1615,7.2505,7.3475,7.4442,7.5291,7.6391,7.6915,7.6919,7.7101,7.7187,4.5163,4.7379,4.9981,5.1474,5.3829,5.5821,5.5992,5.6115,5.6194,5.6129,5.6335,5.6287,5.5444,5.5877,5.7043,5.8988,5.9673,6.0636,6.2522,6.278,6.2917,6.3331,6.3363,6.352,6.3913,6.3832,0.0,0.0,0.0,0.0,0.0,6.5036,6.5095,6.4338,6.4557,6.4316,6.3576,6.3514,6.3514,6.3514,6.3514,6.387,6.4508,6.6069,6.6483,6.6069,6.7691,6.8052,6.75,6.7641,6.7864,6.8115,6.8227,6.7901,6.7354,6.7286,6.7112,6.6937,6.6814,6.6707,6.6628,6.6628,6.6371,6.6074,6.6218,6.5987,6.5805,6.6526,6.6513,6.6397,6.6936,6.7475,6.8013,6.8629,6.8975,6.9321,6.9937,7.0093,7.0323,7.0902,7.0979,7.0979,7.0979,7.0927,7.0898,7.0898,7.0898,7.0898,7.0898,7.0898,7.1038,7.1481,7.153,7.169,7.1952,7.1721,7.156,7.156,7.1271,7.1184,7.1393,7.1404,7.1861,7.284,7.3626,7.4516,7.5498,7.6304,7.6755,7.6919,7.6945,7.7407,4.7387,4.9529,5.1785,5.3509,5.5465,5.6891,5.6639,5.6519,5.6197,5.5484,5.5692,5.5684,5.4778,5.5178,5.63,5.8085,5.8871,5.9957,6.2008,6.2511,6.2891,6.3527,6.3787,6.4019,6.4351,6.4099,0.0,0.0,0.0,0.0,0.0,6.3729,6.3766,6.3285,6.3481,6.3319,6.278,6.278,6.278,6.278,6.278,6.3186,6.3957,6.5274,6.5596,6.5219,6.6814,6.7197,6.6742,6.6988,6.7151,6.7296,6.738,6.6919,6.6196,6.6134,6.5846,6.5495,6.5649,6.5641,6.5635,6.5821,6.5897,6.5897,6.5897,6.5897,6.6013,6.6474,6.6282,6.6013,6.6513,6.6628,6.6821,6.7667,6.8167,6.8629,6.9513,6.9706,6.9937,7.0744,7.0898,7.0783,7.0475,7.0706,7.0783,7.0475,7.0706,7.0898,7.0898,7.0979,7.1137,7.1488,7.1543,7.1702,7.1991,7.1694,7.1478,7.1478,7.1104,7.1004,7.1242,7.1353,7.1661,7.2283,7.3392,7.4312,7.4959,7.6051,7.6677,7.6794,7.6794,7.7182,5.0514,5.2204,5.3769,5.6344,5.6703,5.6492,5.6828,5.634,5.5619,5.4866,5.4714,5.4689,5.4701,5.5264,5.5985,5.6885,5.8203,5.9677,6.1275,6.1974,6.2572,6.336,6.3893,6.4236,6.4273,6.4236,0.0,0.0,0.0,0.0,0.0,6.288,6.288,6.288,6.288,6.2904,6.2941,6.2941,6.2941,6.2941,6.2941,6.3215,6.368,6.4158,6.4463,6.4623,6.5685,6.6117,6.617,6.6444,6.6516,6.6423,6.6482,6.6127,6.5538,6.5293,6.4949,6.4632,6.4899,6.5029,6.5177,6.5717,6.5897,6.5897,6.5897,6.5897,6.5897,6.5897,6.5897,6.5897,6.5897,6.5923,6.6101,6.6833,6.759,6.8437,6.9284,6.9476,6.9707,7.0515,7.0695,7.0437,6.9706,7.0244,7.0552,6.9898,7.0437,7.0912,7.09,7.1097,7.129,7.1485,7.1629,7.1761,7.1992,7.1702,7.1498,7.1485,7.1137,7.0939,7.0898,7.1074,7.119,7.1221,7.3035,7.3992,7.4014,7.5765,7.6582,7.6582,7.6582,7.6709,4.9876,5.156,5.3554,5.6659,5.7379,5.7262,5.6946,5.6783,5.6438,5.5619,5.5455,5.5443,5.5443,5.5596,5.6184,5.7604,5.8132,5.887,6.0433,6.1078,6.1616,6.2183,6.2694,6.3123,6.3483,0.0,0.0,0.0,0.0,0.0,6.3416,6.3431,6.3431,6.3431,6.3431,6.3615,6.4039,6.4039,6.4039,0.0,6.4039,6.4099,6.4217,6.4332,6.4905,6.5754,6.6165,6.6406,6.6507,6.6463,6.6488,6.6494,6.6023,6.5664,6.5319,6.4219,6.4095,6.4422,6.4233,6.4554,6.5177,6.5717,6.5897,6.5897,6.5897,6.5897,6.5897,6.5897,6.5897,6.5897,6.5897,6.5974,6.6098,6.6253,6.6446,6.6833,6.7722,6.7877,6.8148,6.8949,6.9025,6.8898,6.8706,6.9398,7.0129,7.0552,7.0783,7.0966,7.1131,7.118,7.1314,7.1633,7.1679,7.1761,7.1992,7.1797,7.1614,7.153,7.1271,7.1062,7.0912,7.094,7.1053,7.1211,7.2948,7.3894,7.4014,7.5765,7.6582,7.6582,7.6582,7.6604,5.0086,5.2125,5.4296,5.738,5.7948,5.7721,5.7462,5.7425,5.729,5.6902,5.6527,5.6177,5.578,5.6004,5.6564,5.7402,5.8008,5.88,5.9981,6.0783,6.148,6.2176,6.265,6.3039,6.3295,0.0,0.0,0.0,0.0,6.28,6.2738,6.2755,6.2943,6.3338,6.3375,6.3478,6.3766,6.3766,6.3594,6.3314,6.3314,6.3454,6.3743,6.4535,6.5385,6.6252,6.6435,6.6498,6.6503,6.6498,6.6457,6.6296,6.5732,6.5282,6.4823,6.3842,6.3551,6.3664,6.4029,6.4403,6.4904,6.5663,6.5897,6.5897,6.5897,6.5897,6.5897,6.5897,6.5897,6.5897,6.5974,6.6049,6.6098,6.6212,6.6236,6.6469,6.7324,6.7509,6.7742,6.8588,6.8615,6.8351,6.7965,6.8633,6.9494,7.0293,7.0844,7.1213,7.1344,7.1412,7.1504,7.1679,7.1802,7.1904,7.1992,7.1811,7.1667,7.1604,7.1348,7.1148,7.1038,7.0953,7.0953,7.1038,7.2363,7.3075,7.314,7.4844,7.5697,7.5697,7.6123,7.6351,5.0056,5.2707,5.5228,5.7843,5.8258,5.7997,5.7997,5.7997,5.7997,5.7997,5.7498,5.6912,5.6223,5.6711,5.7205,5.7205,5.8113,5.9039,5.9729,6.0631,6.1464,6.2137,6.2657,6.2971,6.2971,0.0,0.0,0.0,0.0,6.2413,6.1978,6.1981,6.2304,6.3007,6.304,6.3072,6.3196,6.3187,6.294,6.2393,6.2385,6.2601,6.316,6.4462,6.5489,6.6207,6.6499,6.6525,6.6435,6.6525,6.6373,6.6032,6.5448,6.4908,6.4294,6.3534,6.3033,6.2804,6.3675,6.4011,6.4227,6.5148,6.5436,6.5436,6.5436,6.5551,6.5667,6.5667,6.5793,6.5967,6.6051,6.6135,6.6236,6.6399,6.6452,6.6652,6.7286,6.7436,6.7624,6.8358,6.8365,6.8055,6.7521,6.8034,6.878,6.9614,7.0479,7.1063,7.1089,7.1204,7.1345,7.1516,7.1672,7.1836,7.1992,7.1858,7.1744,7.1693,7.1432,7.1271,7.1182,7.1026,7.0927,7.0898,7.1745,7.2283,7.2437,7.3976,7.4707,7.4707,7.5592,7.5991,4.821,5.1839,5.5436,5.7205,5.7814,5.7997,5.7997,5.7997,5.7997,5.7997,5.7927,5.7821,5.769,5.8098,5.845,5.845,5.8933,5.9339,5.9452,6.0041,6.0491,6.0606,6.1173,6.1564,6.1564,0.0,0.0,0.0,6.2493,6.2537,6.2644,6.2682,6.2661,6.268,6.2787,6.3065,6.3531,6.3666,6.3658,6.3573,6.3447,6.3422,6.3546,6.3745,6.4448,6.5475,6.6247,6.6601,6.6553,6.6468,6.6305,6.6002,6.4946,6.4462,6.4179,6.2498,6.207,6.2345,6.2274,6.2485,6.2933,6.345,6.3666,6.3666,6.3666,6.4166,6.4782,6.4782,6.5407,6.607,6.61,6.6315,6.6541,6.6557,6.6729,6.6824,6.6733,6.6716,6.6752,6.6869,6.6774,6.6892,6.7475,6.767,6.8052,6.89,6.9155,6.9305,6.9467,6.9533,6.9879,7.0739,7.0859,7.1172,7.1953,7.1992,7.1904,7.1696,7.1667,7.1504,7.1203,7.118,7.1085,7.0912,7.1745,7.2552,7.3322,7.4245,7.4707,7.4707,7.5592,7.562,4.887,5.1191,5.3466,5.6356,5.6923,5.6975,5.7817,5.7997,5.7997,5.7997,5.7997,5.8074,5.8332,5.8549,5.8776,5.9065,5.9539,5.9908,5.9908,6.0443,6.0846,6.0846,6.1011,6.1127,6.1127,0.0,0.0,0.0,6.1623,6.1695,6.1783,6.1895,6.2132,6.2519,6.2587,6.2732,6.2983,6.2958,6.2694,6.2218,6.2299,6.2293,6.2323,6.2708,6.3448,6.4466,6.4864,6.5043,6.502,6.4872,6.4766,6.4609,6.3717,6.3245,6.2899,6.2023,6.1663,6.1703,6.2211,6.2544,6.2809,6.3306,6.3482,6.345,6.333,6.3589,6.3858,6.3858,6.4271,6.4742,6.4792,6.5322,6.5887,6.5998,6.6481,6.6874,6.6788,6.6784,6.6738,6.6625,6.6545,6.6605,6.6866,6.7392,6.7911,6.8296,6.8819,6.9215,6.9358,6.9322,6.9485,6.9922,7.039,7.0859,7.125,7.1719,7.1952,7.1862,7.1756,7.1612,7.1485,7.1296,7.139,7.1796,7.1583,7.1668,7.2052,7.2899,7.3283,7.3322,7.4207,7.4399,4.86,4.9909,5.1115,5.4693,5.5514,5.5849,5.7354,5.7703,5.774,5.796,5.7997,5.8142,5.8611,5.8796,5.9047,5.9566,6.0111,6.0503,6.0537,6.0967,6.1314,6.1314,6.1178,6.109,6.109,0.0,0.0,0.0,6.1015,6.1048,6.1001,6.1155,6.1495,6.205,6.2114,6.213,6.213,6.2086,6.1674,6.0997,6.1167,6.12,6.1189,6.1676,6.2323,6.3044,6.3553,6.3744,6.3749,6.3694,6.3613,6.3541,6.2913,6.2445,6.2117,6.1943,6.1597,6.1335,6.2233,6.2486,6.2467,6.2839,6.2924,6.2916,6.2721,6.2829,6.3041,6.3041,6.3371,6.3743,6.3842,6.4474,6.5132,6.5507,6.6094,6.664,6.6836,6.6914,6.6873,6.6692,6.6683,6.6628,6.6555,6.7152,6.7661,6.7661,6.8275,6.8789,6.8828,6.8789,6.8867,6.9062,6.9687,7.0234,7.0664,7.1289,7.1758,7.1992,7.1859,7.175,7.1693,7.1459,7.1589,7.2151,7.1386,7.1069,7.1245,7.186,7.2206,7.2206,7.3091,7.3399,4.5663,4.7259,4.9038,5.161,5.335,5.4869,5.6506,5.6859,5.7079,5.785,5.7997,5.8142,5.8611,5.9047,5.9566,6.0175,6.0653,6.1018,6.124,6.1275,6.1288,6.1288,6.1303,6.1284,0.0,0.0,0.0,0.0,6.1279,6.1183,6.1002,6.101,6.0998,6.0898,6.0999,6.1091,6.1091,6.127,6.124,6.1001,6.1023,6.0935,6.0827,6.0854,6.0893,6.1042,6.282,6.3632,6.3633,6.3748,6.3692,6.3553,6.2983,6.2784,6.2695,6.2245,6.1836,6.1516,6.1775,6.164,6.135,6.1181,6.1152,6.1107,6.0949,6.1587,6.2355,6.2355,6.3158,6.4063,6.4067,6.4237,6.457,6.539,6.5625,6.5898,6.6719,6.6914,6.6914,6.6875,6.6875,6.6874,6.6874,6.6914,6.6953,6.6953,6.6992,6.7031,6.7031,6.7031,6.7344,6.8164,6.8281,6.8984,7.0547,7.0742,7.1133,7.1953,7.1992,7.1907,7.1693,7.1682,7.156,7.127,7.1201,7.1483,7.2129,7.2168,7.2206,7.2206,7.3091,7.3053,4.5333,4.6005,4.6812,4.9731,5.1301,5.2549,5.4129,5.528,5.6088,5.6381,5.6455,5.6667,5.7398,5.8551,5.9614,6.0186,6.0701,6.108,6.1288,6.1316,6.1307,6.1307,6.1187,6.1112,0.0,0.0,0.0,0.0,0.0,6.1073,6.0981,6.1123,6.1188,6.1112,6.1153,6.1128,6.0987,6.1073,6.1044,6.0871,6.0871,6.0677,6.0351,6.0647,6.0634,6.0403,6.1405,6.1852,6.1946,6.1894,6.1971,6.2093,6.1783,6.1539,6.1398,6.1543,6.1229,6.0817,6.1314,6.1392,6.1295,6.1231,6.1257,6.1284,6.115,6.1368,6.1659,6.1659,6.2011,6.2437,6.2437,6.2954,6.3672,6.457,6.5071,6.5481,6.5794,6.6301,6.6692,6.6692,6.6692,6.6692,6.6692,6.6792,6.6914,6.6914,6.6914,6.6914,6.6914,6.6914,6.7031,6.7344,6.7851,6.8437,6.9023,6.9609,7.0078,7.039,7.0898,7.1132,7.1046,7.1482,7.1655,7.1521,7.1305,7.1263,7.136,7.136,7.136,7.136,7.1706,7.1668,4.4268,4.4746,4.5537,4.8449,4.9382,5.0249,5.2642,5.3812,5.4546,5.5097,5.5506,5.5973,5.6572,5.7845,5.9088,5.9987,6.0697,6.1165,6.1271,6.1247,6.12,6.12,6.1023,6.0916,0.0,0.0,0.0,0.0,0.0,0.0,6.0916,6.1062,6.1143,6.1143,6.1143,6.1079,6.0916,6.0916,6.0902,6.0781,6.0781,6.0634,6.0338,6.0647,6.0634,6.0351,6.0659,6.0856,6.0935,6.0887,6.1017,6.12,6.1055,6.0893,6.0789,6.1091,6.0918,6.0625,6.1127,6.1301,6.1307,6.1288,6.1362,6.1405,6.1344,6.1323,6.1359,6.1359,6.1439,6.1575,6.1575,6.2298,6.3164,6.3711,6.4397,6.4977,6.5247,6.5968,6.6537,6.6571,6.6553,6.6541,6.6574,6.6675,6.6735,6.6788,6.679,6.6832,6.6875,6.6914,6.6914,6.6914,6.7422,6.789,6.8164,6.8711,6.918,6.9492,7.0273,7.0703,7.0703,7.1394,7.1758,7.1693,7.1479,7.1269,7.112,7.0979,7.0898,7.0898,7.0898,7.0898,0.0,0.0,0.0,4.7573,4.7627,4.8142,5.2107,5.2459,5.2385,5.4002,5.5266,5.6086,5.6143,5.6929,5.8054,5.9463,6.0541,6.1232,6.1279,6.112,6.0979,6.0988,6.0882,6.0781,0.0,0.0,0.0,0.0,6.0781,6.0781,6.0781,6.0781,6.0781,6.0781,6.0781,6.0781,6.0781,6.0781,6.0781,6.0781,6.0781,6.0781,6.0769,6.0781,6.0781,6.0769,6.0781,6.0781,6.0804,6.0925,6.0997,6.1009,6.0988,6.099,6.099,6.099,6.103,6.1013,6.1212,6.1277,6.1289,6.1273,6.1289,6.1325,6.1309,6.1396,6.1507,6.1507,6.1587,6.1719,6.1719,6.2344,6.2969,6.2969,6.3538,6.4275,6.5045,6.5777,6.6346,6.6553,6.6483,6.6429,6.6553,6.6483,6.6441,6.656,6.6616,6.6683,6.6874,6.6914,6.6914,6.6914,6.6914,6.7226,6.8086,6.8164,6.8515,6.9375,7.0195,7.0625,7.0664,7.1484,7.1869,7.1696,7.1693,7.1638,7.1491,7.1081,7.0912,7.0912,7.0898,7.0898,4.2108,0.0,0.0,0.0,0.0,0.0,4.8455,4.9449,5.0609,5.2252,5.284,5.3585,5.5257,5.627,5.7022,5.7424,5.8622,5.9735,6.0452,6.0462,6.0468,6.0806,6.0839,6.0781,0.0,0.0,0.0,0.0,6.0781,6.0781,6.0781,6.0781,6.0781,6.0781,6.0781,6.0781,6.0781,6.0781,6.0781,6.0781,6.0781,6.0622,6.0311,6.0647,6.0622,6.0324,6.0647,6.0781,6.0793,6.0834,6.0915,6.1014,6.1011,6.1097,6.1227,6.1227,6.1122,6.101,6.1074,6.1089,6.1074,6.1065,6.1236,6.146,6.1441,6.1523,6.1636,6.1636,6.1678,6.1719,6.1719,6.1875,6.203,6.1932,6.2446,6.2992,6.3104,6.3678,6.4579,6.5987,6.6212,6.6187,6.6213,6.6334,6.6406,6.6446,6.6533,6.6625,6.6683,6.6791,6.6914,6.6914,6.6914,6.6992,6.7226,6.7265,6.7344,6.7617,6.8437,6.914,6.9726,7.0586,7.1328,7.1909,7.1758,7.1679,7.1647,7.1287,7.1142,7.1092,7.0979,7.0898,4.2536,4.3529,4.4636,4.4799,0.0,0.0,4.7712,4.8451,4.9355,5.1043,5.1874,5.2666,5.4002,5.5097,5.5859,5.5999,5.7013,5.8131,5.9265,5.9817,6.0189,6.0482,6.0671,6.0781,0.0,6.0781,6.0781,6.0781,6.0781,6.0722,6.0508,6.0324,6.0203,6.0203,6.043,6.0508,6.0508,6.0722,6.0781,6.0781,6.0781,6.0647,6.0391,6.0659,6.0647,6.043,6.0671,6.0781,6.0781,6.0781,6.0856,6.0925,6.0925,6.0973,6.1087,6.1087,6.1009,6.0925,6.0925,6.0925,6.0945,6.097,6.1126,6.13,6.1392,6.1509,6.163,6.163,6.1677,6.1719,6.1719,6.1677,6.1585,6.1515,6.1695,6.1958,6.2254,6.2562,6.3261,6.4745,6.4976,6.5051,6.547,6.5604,6.5782,6.6221,6.6423,6.6529,6.6574,6.6785,6.6914,6.6914,6.6914,6.6914,6.6914,6.6914,6.6914,6.6914,6.7734,6.8398,6.8867,6.9726,7.039,7.0937,7.0811,7.0902,7.1182,7.1269,7.129,7.1211,7.1085,7.0966,4.3326,4.4045,4.5168,4.6377,4.5836,0.0,4.8366,4.8493,4.8507,0.0,5.1417,5.2376,5.256,5.3604,5.4479,5.4641,5.5486,5.6606,5.7937,5.9133,5.9851,5.9893,6.0342,6.0666,6.0666,6.0742,6.0781,6.0781,6.0757,6.0521,6.0132,5.9642,5.9389,5.9389,5.9808,6.0059,6.0103,6.0508,6.0746,6.0781,6.0781,6.0781,6.0781,6.0781,6.0781,6.0781,6.0781,6.0781,6.0781,6.0781,6.0781,6.0781,6.0746,6.0757,6.0781,6.0746,6.0757,6.0781,6.0781,6.0781,6.0827,6.0925,6.0979,6.104,6.1214,6.1364,6.1491,6.1501,6.1582,6.1679,6.1719,6.1587,6.1501,6.1491,6.1232,6.122,6.1958,6.205,6.2221,6.3129,6.3274,6.3557,6.4483,6.4624,6.4879,6.5799,6.6213,6.6441,6.6553,6.6784,6.6914,6.6914,6.6914,6.6914,6.6914,6.6914,6.6914,6.6914,6.7617,6.8086,6.8203,6.8906,6.9336,6.9492,6.9453,6.972,7.0375,7.1043,7.1334,7.1223,7.1193,7.1081,4.353,4.4758,4.6205,4.5084,0.0,0.0,4.6502,4.6771,4.7422,0.0,4.892,4.9621,5.1133,5.2094,5.2324,5.1483,5.3552,5.584,5.7458,5.7935,5.8217,5.8614,5.9323,0.0,5.9742,6.0396,6.0781,6.0781,6.0456,6.0189,6.0118,5.9642,5.9389,5.9389,5.9475,5.9728,6.0103,6.0189,6.0443,6.0781,6.0781,6.0781,6.0781,6.0781,6.0781,6.0781,6.0781,6.0781,6.0781,6.0781,6.0781,6.0757,6.0378,6.0469,6.0757,6.0365,6.0482,6.0781,6.0781,6.0781,6.0793,6.0811,6.0915,6.1006,6.1056,6.12,6.1354,6.1485,6.1515,6.1575,6.1678,6.1587,6.1485,6.1354,6.1179,6.102,6.1081,6.1058,6.1112,6.1323,6.2394,6.3371,6.3557,6.4164,6.4691,6.4867,6.5765,6.6399,6.6429,6.6722,6.6914,6.6914,6.6914,6.6914,6.6914,6.6914,6.6914,6.6914,6.707,6.7461,6.8164,6.8359,6.875,6.9414,6.9453,6.9531,6.9607,7.0339,7.097,7.142,7.128,7.119,4.4701,4.5278,4.6163,4.5701,0.0,0.0,0.0,4.6855,4.7276,4.8582,4.8611,4.8854,5.0299,5.078,5.0906,5.0718,5.2271,5.3908,5.5222,5.6675,5.7704,5.7928,5.8522,0.0,5.8896,5.9319,5.9453,5.9217,5.9153,5.9019,5.882,5.8746,5.8713,5.8713,5.8932,5.9158,5.9389,5.987,6.0203,6.0456,6.071,6.0781,6.0781,6.0781,6.0781,6.0781,6.0781,6.0781,6.0781,6.0781,6.0781,6.0757,6.0297,6.0231,6.0405,6.0175,6.0269,6.0482,6.0734,6.0781,6.0781,6.0781,6.0845,6.0884,6.0884,6.1027,6.12,6.1354,6.1392,6.1404,6.1491,6.1392,6.1232,6.1179,6.1036,6.0892,6.0816,6.0781,6.0781,6.0781,6.1473,6.2204,6.2627,6.3051,6.3649,6.4569,6.5311,6.5911,6.6449,6.6733,6.6914,6.6914,6.6914,6.6914,6.6914,6.6914,6.6914,6.6914,6.6914,6.7109,6.7539,6.7539,6.7734,6.8164,6.8203,6.8398,6.8789,6.9171,6.991,7.1014,7.1329,7.1373,0.0,0.0,0.0,0.0,0.0,4.6645,0.0,0.0,0.0,4.8625,4.8432,4.8277,0.0,0.0,0.0,0.0,0.0,0.0,0.0,5.4697,0.0,5.6752,5.7388,0.0,5.7819,5.7934,5.7923,5.7628,5.7618,5.7541,5.7262,5.7596,5.7776,5.7776,5.828,5.8611,5.8713,5.9441,5.9916,6.0118,6.0482,6.0722,6.0781,6.0781,6.0781,6.0781,6.0781,6.0781,6.0781,6.0781,6.0781,6.0757,6.0297,6.0161,6.0203,6.0132,6.0161,6.0297,6.0659,6.0781,6.0781,6.0781,6.0781,6.0793,6.0811,6.0915,6.1048,6.124,6.1283,6.1283,6.1283,6.1158,6.0997,6.0997,6.0884,6.0804,6.0823,6.0834,6.0856,6.091,6.092,6.1109,6.1728,6.1985,6.259,6.4096,6.4597,6.5166,6.6021,6.6278,6.6406,6.6406,6.6406,6.6406,6.6406,6.6406,6.6484,6.664,6.664,6.6719,6.6875,6.6914,6.6914,6.6914,6.6914,6.7265,6.7969,6.8125,6.8901,7.0306,7.0915,7.1082,0.0,0.0,0.0,0.0,4.8179,0.0,0.0,0.0,4.7004,4.644,0.0,0.0,0.0,0.0,0.0,0.0,0.0,0.0,4.8884,5.0893,5.2833,5.3612,5.5066,0.0,0.0,5.6714,5.727,5.7589,5.6572,5.6093,5.6424,5.6747,5.6932,5.6932,5.7698,5.8282,5.8713,5.8796,5.9266,6.0103,6.0146,6.0378,6.0781,6.0781,6.0781,6.0781,6.0781,6.0781,6.0781,6.0781,6.0781,6.0757,6.0297,6.0351,6.0659,6.0231,6.0351,6.0734,6.0769,6.0781,6.0781,6.0781,6.0781,6.0839,6.0935,6.0979,6.1048,6.124,6.1283,6.1283,6.1283,6.1158,6.0997,6.0997,6.0884,6.0823,6.0954,6.1,6.1023,6.12,6.1227,6.1159,6.0988,6.1601,6.2193,6.2539,6.3347,6.4065,6.4336,6.452,6.4609,6.4609,6.4609,6.4609,6.4609,6.4609,6.4922,6.5703,6.5742,6.6094,6.6875,6.6914,6.6914,6.6914,6.6914,6.6953,6.7031,6.7812,6.8672,6.953,6.9494,6.9451,0.0,0.0,0.0,0.0,0.0,0.0,4.6887,0.0,4.6519,0.0,0.0,0.0,0.0,0.0,0.0,0.0,4.7855,0.0,0.0,0.0,5.055,0.0,0.0,0.0,0.0,0.0,0.0,0.0,5.451,5.451,5.5151,5.5764,5.6088,5.6088,5.6418,5.6698,5.69,5.7641,5.8353,5.9008,5.9733,6.0338,6.0781,6.0781,6.0781,6.0781,6.0781,6.0781,6.0781,6.0781,6.0781,6.0769,6.0597,6.0469,6.0365,6.0161,6.0203,6.0443,6.0722,6.0781,6.0816,6.0902,6.102,6.1103,6.1158,6.1179,6.1172,6.1143,6.1135,6.1105,6.1018,6.0935,6.0892,6.0892,6.0834,6.0834,6.0991,6.0997,6.1065,6.1253,6.1283,6.124,6.112,6.1397,6.1858,6.2507,6.2932,6.3471,6.4124,6.4256,6.4297,6.4297,6.4297,6.4297,6.4297,6.4297,6.4453,6.4805,6.5312,6.5976,6.6875,6.6914,6.6914,6.6914,6.6914,6.6914,6.6914,6.7265,6.7617,6.7969,6.89,6.9269,4.7932,0.0,0.0,0.0,0.0,0.0,0.0,0.0,0.0,0.0,0.0,0.0,0.0,0.0,0.0,0.0,0.0,4.7384,0.0,4.8001,0.0,0.0,0.0,0.0,0.0,0.0,0.0,0.0,0.0,5.2723,5.3826,5.4649,5.5175,5.5265,5.5486,5.5596,5.5596,5.652,5.7284,5.7859,5.9017,5.9873,6.0435,6.0704,6.0781,6.0781,6.0781,6.0781,6.0781,6.0781,6.0781,6.0793,6.0834,6.0654,6.0354,6.03,6.0297,6.0338,6.0671,6.0839,6.086,6.0982,6.1143,6.1295,6.1334,6.1349,6.1318,6.115,6.1089,6.1023,6.0845,6.0781,6.0781,6.0781,6.0781,6.0834,6.0991,6.0997,6.1081,6.1312,6.1349,6.1349,6.1349,6.1277,6.1472,6.227,6.2344,6.2598,6.3375,6.3499,6.3502,6.3511,6.3511,6.3552,6.3594,6.3594,6.3672,6.3945,6.4765,6.5625,6.6523,6.6523,6.664,6.6914,6.6914,6.6914,6.6914,6.6914,6.6914,6.6914,6.8164,6.8667,0.0,0.0,0.0,4.8033,0.0,0.0,0.0,0.0,4.7304,0.0,0.0,0.0,0.0,0.0,0.0,0.0,0.0,0.0,0.0,0.0,0.0,0.0,0.0,0.0,0.0,0.0,0.0,0.0,5.104,0.0,5.2473,5.3386,5.4047,5.4421,5.517,5.5596,5.5596,5.5633,5.6091,5.6958,5.7838,5.8699,5.9588,6.0435,6.0781,6.0781,6.0781,6.0781,6.0781,6.0781,6.0781,6.0816,6.0935,6.0988,6.0952,6.0845,6.0769,6.0769,6.0781,6.0892,6.0988,6.0997,6.1143,6.1312,6.1435,6.1498,6.1481,6.1323,6.1277,6.12,6.0899,6.0781,6.0781,6.0781,6.0781,6.0834,6.0991,6.0997,6.1089,6.1424,6.1498,6.1498,6.1498,6.1226,6.1089,6.131,6.1189,6.1143,6.1361,6.1417,6.1432,6.1576,6.1585,6.1651,6.1758,6.1797,6.2148,6.3008,6.3867,6.4726,6.5625,6.5625,6.6055,6.6875,6.6914,6.6914,6.6914,6.6914,6.6914,6.6914,6.6953,6.6992,0.0,0.0,5.0083,4.874,0.0,0.0,0.0,0.0,0.0,0.0,0.0,0.0,0.0,0.0,0.0,0.0,0.0,0.0,0.0,0.0,0.0,0.0,0.0,0.0,0.0,0.0,0.0,0.0,5.0096,0.0,0.0,5.3062,5.3465,5.3592,5.3885,5.3995,5.3995,5.4794,5.551,5.6123,5.7263,5.8113,5.8704,5.9011,5.9165,5.9165,5.9165,5.9165,5.9165,5.9165,5.9165,5.9161,5.9272,5.9719,6.0278,6.0887,6.1053,6.0925,6.0823,6.0902,6.1023,6.1165,6.1312,6.1474,6.1584,6.1633,6.1582,6.1354,6.1283,6.1207,6.0899,6.0781,6.0781,6.0781,6.0781,6.0834,6.0991,6.0997,6.1089,6.1323,6.1359,6.1359,6.1359,6.1147,6.1073,6.1265,6.124,6.122,6.1277,6.1283,6.1306,6.1354,6.1359,6.1378,6.1417,6.1512,6.1979,6.2929,6.3281,6.3828,6.4687,6.4726,6.5156,6.6015,6.6055,6.6328,6.6914,6.6914,6.6914,6.6914,6.6914,6.6914,5.0076,5.0348,0.0,4.9179,4.9141,0.0,4.7148,0.0,0.0,0.0,0.0,0.0,0.0,0.0,0.0,0.0,0.0,0.0,0.0,4.6075,0.0,0.0,0.0,0.0,0.0,0.0,4.8279,4.969,4.9264,0.0,0.0,0.0,5.32,5.3643,5.3643,5.3643,5.3643,5.4447,5.504,5.5474,5.6635,5.743,5.7857,5.8165,5.8319,5.828,5.834,5.8382,5.8353,5.8404,5.8442,5.8451,5.8529,5.8937,5.9588,6.0487,6.09,6.0979,6.0895,6.0945,6.1023,6.1158,6.1312,6.1428,6.152,6.1571,6.1509,6.1277,6.12,6.112,6.0877,6.0781,6.0781,6.0781,6.0781,6.0839,6.0905,6.0945,6.0982,6.1158,6.12,6.12,6.12,6.1097,6.1048,6.1179,6.1135,6.1128,6.1128,6.1128,6.1159,6.1193,6.12,6.122,6.1283,6.1409,6.1796,6.2413,6.2499,6.293,6.3789,6.3828,6.4258,6.5117,6.5156,6.5586,6.6445,6.6445,6.6601,6.6914,6.6914,6.6914]}]]